[[{"header":{"parameterUnit":"m.s-1","parameterCategory":1,"la1":30.6,"la2":28.766,"lo1":-90.7593,"lo2":-88.6598,"dy":0.0162,"dx":0.0183,"nx":116,"ny":114,"refTime":"2024-03-13T18:00:00:Z","depth":0,"parameterNumber":2,"parameterNumberName":"U-component_of_WINDS"},"data":[0.0,0.0,0.0,0.0,0.0,0.0,0.0,0.0,0.0,0.0,0.0,0.0,0.0,0.0,0.0,0.0,0.0,0.0,0.0,0.0,0.0,0.0,0.0,0.0,0.0,0.0,0.0,0.0,0.0,0.0,0.0,0.0,0.0,0.0,0.0,0.0,0.0,0.0,0.0,0.0,0.0,0.0,0.0,0.0,0.0,0.0,0.0,0.0,0.0,0.0,0.0,0.0,0.0,0.0,0.0,0.0,0.0,0.0,0.0,0.0,0.0,0.0,0.0,0.0,0.0,0.0,0.0,0.0,0.0,0.0,0.0,0.0,0.0,0.0,0.0,0.0,0.0,0.0,0.0,0.0,0.0,0.0,0.0,0.0,0.0,0.0,0.0,0.0,0.0,0.0,0.0,0.0,0.0,0.0,0.0,0.0,0.0,0.0,0.0,0.0,0.0,0.0,0.0,0.0,0.0,0.0,0.0,0.0,0.0,0.0,0.0,0.0,0.0,0.0,0.0,0.0,0.0,0.0,0.0,0.0,0.0,0.0,0.0,0.0,0.0,0.0,0.0,0.0,0.0,0.0,0.0,0.0,0.0,0.0,0.0,0.0,0.0,0.0,0.0,0.0,0.0,0.0,0.0,0.0,0.0,0.0,0.0,0.0,0.0,0.0,0.0,0.0,0.0,0.0,0.0,0.0,0.0,0.0,0.0,0.0,0.0,0.0,0.0,0.0,0.0,0.0,0.0,0.0,0.0,0.0,0.0,0.0,0.0,0.0,0.0,0.0,0.0,0.0,0.0,0.0,0.0,0.0,0.0,0.0,0.0,0.0,0.0,0.0,0.0,0.0,0.0,0.0,0.0,0.0,0.0,0.0,0.0,0.0,0.0,0.0,0.0,0.0,0.0,0.0,0.0,0.0,0.0,0.0,0.0,0.0,0.0,0.0,0.0,0.0,0.0,0.0,0.0,0.0,0.0,0.0,0.0,0.0,0.0,0.0,0.0,0.0,0.0,0.0,0.0,0.0,0.0,0.0,0.0,0.0,0.0,0.0,0.0,0.0,0.0,0.0,0.0,0.0,0.0,0.0,0.0,0.0,0.0,0.0,0.0,0.0,0.0,0.0,0.0,0.0,0.0,0.0,0.0,0.0,0.0,0.0,0.0,0.0,0.0,0.0,0.0,0.0,0.0,0.0,0.0,0.0,0.0,0.0,0.0,0.0,0.0,0.0,0.0,0.0,0.0,0.0,0.0,0.0,0.0,0.0,0.0,0.0,0.0,0.0,0.0,0.0,0.0,0.0,0.0,0.0,0.0,0.0,0.0,0.0,0.0,0.0,0.0,0.0,0.0,0.0,0.0,0.0,0.0,0.0,0.0,0.0,0.0,0.0,0.0,0.0,0.0,0.0,0.0,0.0,0.0,0.0,0.0,0.0,0.0,0.0,0.0,0.0,0.0,0.0,0.0,0.0,0.0,0.0,0.0,0.0,0.0,0.0,0.0,0.0,0.0,0.0,0.0,0.0,0.0,0.0,0.0,0.0,0.0,0.0,0.0,0.0,0.0,0.0,0.0,0.0,0.0,0.0,0.0,0.0,0.0,0.0,0.0,0.0,0.0,0.0,0.0,0.0,0.0,0.0,0.0,0.0,0.0,0.0,0.0,0.0,0.0,0.0,0.0,0.0,0.0,0.0,0.0,0.0,0.0,0.0,0.0,0.0,0.0,0.0,0.0,0.0,0.0,0.0,0.0,0.0,0.0,0.0,0.0,0.0,0.0,0.0,0.0,0.0,0.0,0.0,0.0,0.0,0.0,0.0,0.0,0.0,0.0,0.0,0.0,0.0,0.0,0.0,0.0,0.0,0.0,0.0,0.0,0.0,0.0,0.0,0.0,0.0,0.0,0.0,0.0,0.0,0.0,0.0,0.0,0.0,0.0,0.0,0.0,0.0,0.0,0.0,0.0,0.0,0.0,0.0,0.0,0.0,0.0,0.0,0.0,0.0,0.0,0.0,0.0,0.0,0.0,0.0,0.0,0.0,0.0,0.0,0.0,0.0,0.0,0.0,0.0,0.0,0.0,0.0,0.0,0.0,0.0,0.0,0.0,0.0,0.0,0.0,0.0,0.0,0.0,0.0,0.0,0.0,0.0,0.0,0.0,0.0,0.0,0.0,0.0,0.0,0.0,0.0,0.0,0.0,0.0,0.0,0.0,0.0,0.0,0.0,0.0,0.0,0.0,0.0,0.0,0.0,0.0,0.0,0.0,0.0,0.0,0.0,0.0,0.0,0.0,0.0,0.0,0.0,0.0,0.0,0.0,0.0,0.0,0.0,0.0,0.0,0.0,0.0,0.0,0.0,0.0,0.0,0.0,0.0,0.0,0.0,0.0,0.0,0.0,0.0,0.0,0.0,0.0,0.0,0.0,0.0,0.0,0.0,0.0,0.0,0.0,0.0,0.0,0.0,0.0,0.0,0.0,0.0,0.0,0.0,0.0,0.0,0.0,0.0,0.0,0.0,0.0,0.0,0.0,0.0,0.0,0.0,0.0,0.0,0.0,0.0,0.0,0.0,0.0,0.0,0.0,0.0,0.0,0.0,0.0,0.0,0.0,0.0,0.0,0.0,0.0,0.0,0.0,0.0,0.0,0.0,0.0,0.0,0.0,0.0,0.0,0.0,0.0,0.0,0.0,0.0,0.0,0.0,0.0,0.0,0.0,0.0,0.0,0.0,0.0,0.0,0.0,0.0,0.0,0.0,0.0,0.0,0.0,0.0,0.0,0.0,0.0,0.0,0.0,0.0,0.0,0.0,0.0,0.0,0.0,0.0,0.0,0.0,0.0,0.0,0.0,0.0,0.0,0.0,0.0,0.0,0.0,0.0,0.0,0.0,0.0,0.0,0.0,0.0,0.0,0.0,0.0,0.0,0.0,0.0,0.0,0.0,0.0,0.0,0.0,0.0,0.0,0.0,0.0,0.0,0.0,0.0,0.0,0.0,0.0,0.0,0.0,0.0,0.0,0.0,0.0,0.0,0.0,0.0,0.0,0.0,0.0,0.0,0.0,0.0,0.0,0.0,0.0,0.0,0.0,0.0,0.0,0.0,0.0,0.0,0.0,0.0,0.0,0.0,0.0,0.0,0.0,0.0,0.0,0.0,0.0,0.0,0.0,0.0,0.0,0.0,0.0,0.0,0.0,0.0,0.0,0.0,0.0,0.0,0.0,0.0,0.0,0.0,0.0,0.0,0.0,0.0,0.0,0.0,0.0,0.0,0.0,0.0,0.0,0.0,0.0,0.0,0.0,0.0,0.0,0.0,0.0,0.0,0.0,0.0,0.0,0.0,0.0,0.0,0.0,0.0,0.0,0.0,0.0,0.0,0.0,0.0,0.0,0.0,0.0,0.0,0.0,0.0,0.0,0.0,0.0,0.0,0.0,0.0,0.0,0.0,0.0,0.0,0.0,0.0,0.0,0.0,0.0,0.0,0.0,0.0,0.0,0.0,0.0,0.0,0.0,0.0,0.0,0.0,0.0,0.0,0.0,0.0,0.0,0.0,0.0,0.0,0.0,0.0,0.0,0.0,0.0,0.0,0.0,0.0,0.0,0.0,0.0,0.0,0.0,0.0,0.0,0.0,0.0,0.0,0.0,0.0,0.0,0.0,0.0,0.0,0.0,0.0,0.0,0.0,0.0,0.0,0.0,0.0,0.0,0.0,0.0,0.0,0.0,0.0,0.0,0.0,0.0,0.0,0.0,0.0,0.0,0.0,0.0,0.0,0.0,0.0,0.0,0.0,0.0,0.0,0.0,0.0,0.0,0.0,0.0,0.0,0.0,0.0,0.0,0.0,0.0,0.0,0.0,0.0,0.0,0.0,0.0,0.0,0.0,0.0,0.0,0.0,0.0,0.0,0.0,0.0,0.0,0.0,0.0,0.0,0.0,0.0,0.0,0.0,0.0,0.0,0.0,0.0,0.0,0.0,0.0,0.0,0.0,0.0,0.0,0.0,0.0,0.0,0.0,0.0,0.0,0.0,0.0,0.0,0.0,0.0,0.0,0.0,0.0,0.0,0.0,0.0,0.0,0.0,0.0,0.0,0.0,0.0,0.0,0.0,0.0,0.0,0.0,0.0,0.0,0.0,0.0,0.0,0.0,0.0,0.0,0.0,0.0,0.0,0.0,0.0,0.0,0.0,0.0,0.0,0.0,0.0,0.0,0.0,0.0,0.0,0.0,0.0,0.0,0.0,0.0,0.0,0.0,0.0,0.0,0.0,0.0,0.0,0.0,0.0,0.0,0.0,0.0,0.0,0.0,0.0,0.0,0.0,0.0,0.0,0.0,0.0,0.0,0.0,0.0,0.0,0.0,0.0,0.0,0.0,0.0,0.0,0.0,0.0,0.0,0.0,0.0,0.0,0.0,0.0,0.0,0.0,0.0,0.0,0.0,0.0,0.0,0.0,0.0,0.0,0.0,0.0,0.0,0.0,0.0,0.0,0.0,0.0,0.0,0.0,0.0,0.0,0.0,0.0,0.0,0.0,0.0,0.0,0.0,0.0,0.0,0.0,0.0,0.0,0.0,0.0,0.0,0.0,0.0,0.0,0.0,0.0,0.0,0.0,0.0,0.0,0.0,0.0,0.0,0.0,0.0,0.0,0.0,0.0,0.0,0.0,0.0,0.0,0.0,0.0,0.0,0.0,0.0,0.0,0.0,0.0,0.0,0.0,0.0,0.0,0.0,0.0,0.0,0.0,0.0,0.0,0.0,0.0,0.0,0.0,0.0,0.0,0.0,0.0,0.0,0.0,0.0,0.0,0.0,0.0,0.0,0.0,0.0,0.0,0.0,0.0,0.0,0.0,0.0,0.0,0.0,0.0,0.0,0.0,0.0,0.0,0.0,0.0,0.0,0.0,0.0,0.0,0.0,0.0,0.0,0.0,0.0,0.0,0.0,0.0,0.0,0.0,0.0,0.0,0.0,0.0,0.0,0.0,0.0,0.0,0.0,0.0,0.0,0.0,0.0,0.0,0.0,0.0,0.0,0.0,0.0,0.0,0.0,0.0,0.0,0.0,0.0,0.0,0.0,0.0,0.0,0.0,0.0,0.0,0.0,0.0,0.0,0.0,0.0,0.0,0.0,0.0,0.0,0.0,0.0,0.0,0.0,0.0,0.0,0.0,0.0,0.0,0.0,0.0,0.0,0.0,0.0,0.0,0.0,0.0,0.0,0.0,0.0,0.0,0.0,0.0,0.0,0.0,0.0,0.0,0.0,0.0,0.0,0.0,0.0,0.0,0.0,0.0,0.0,0.0,0.0,0.0,0.0,0.0,0.0,0.0,0.0,0.0,0.0,0.0,0.0,0.0,0.0,0.0,0.0,0.0,0.0,0.0,0.0,0.0,0.0,0.0,0.0,0.0,0.0,0.0,0.0,0.0,0.0,0.0,0.0,0.0,0.0,0.0,0.0,0.0,0.0,0.0,0.0,0.0,0.0,0.0,0.0,0.0,0.0,0.0,0.0,0.0,0.0,0.0,0.0,0.0,0.0,0.0,0.0,0.0,0.0,0.0,0.0,0.0,0.0,0.0,0.0,0.0,0.0,0.0,0.0,0.0,0.0,0.0,0.0,0.0,0.0,0.0,0.0,0.0,0.0,0.0,0.0,0.0,0.0,0.0,0.0,0.0,0.0,0.0,0.0,0.0,0.0,0.0,0.0,0.0,0.0,0.0,0.0,0.0,0.0,0.0,0.0,0.0,0.0,0.0,0.0,0.0,0.0,0.0,0.0,0.0,0.0,0.0,0.0,0.0,0.0,0.0,0.0,0.0,0.0,0.0,0.0,0.0,0.0,0.0,0.0,0.0,0.0,0.0,0.0,0.0,0.0,0.0,0.0,0.0,0.0,0.0,0.0,0.0,0.0,0.0,0.0,0.0,0.0,0.0,0.0,0.0,0.0,0.0,0.0,0.0,0.0,0.0,0.0,0.0,0.0,0.0,0.0,0.0,0.0,0.0,0.0,0.0,0.0,0.0,0.0,0.0,0.0,0.0,0.0,0.0,0.0,0.0,0.0,0.0,0.0,0.0,0.0,0.0,0.0,0.0,0.0,0.0,0.0,0.0,0.0,0.0,-1.8994,-1.8216,0.0,0.0,0.0,0.0,0.0,0.0,0.0,0.0,0.0,0.0,0.0,0.0,0.0,0.0,0.0,0.0,0.0,0.0,0.0,0.0,0.0,0.0,0.0,0.0,0.0,0.0,-2.8113,-2.7966,-2.7333,-2.7248,-2.6755,-2.5748,-2.5417,-2.504,-2.4597,-2.4204,-2.4057,-2.4123,-2.3867,-2.4387,-2.5544,-2.4232,-2.3963,0.0,0.0,0.0,0.0,0.0,0.0,0.0,0.0,0.0,0.0,0.0,0.0,0.0,0.0,0.0,0.0,0.0,0.0,0.0,0.0,0.0,0.0,0.0,0.0,0.0,0.0,0.0,0.0,0.0,0.0,0.0,0.0,0.0,0.0,0.0,0.0,0.0,0.0,0.0,0.0,0.0,0.0,0.0,0.0,0.0,0.0,0.0,0.0,0.0,0.0,0.0,0.0,0.0,0.0,0.0,0.0,0.0,0.0,0.0,0.0,0.0,0.0,0.0,0.0,0.0,0.0,0.0,0.0,0.0,0.0,0.0,-1.9662,-1.8974,0.0,0.0,0.0,0.0,0.0,0.0,0.0,0.0,0.0,0.0,0.0,0.0,0.0,0.0,0.0,0.0,0.0,0.0,0.0,0.0,0.0,0.0,0.0,-2.6404,-2.7152,-2.7679,-2.7851,-2.7851,-2.7663,-2.7314,-2.6916,-2.6553,-2.5938,-2.5468,-2.514,-2.4911,-2.4728,-2.4528,-2.4611,-2.4925,-2.5444,-2.5651,0.0,0.0,0.0,0.0,0.0,0.0,0.0,0.0,0.0,0.0,0.0,0.0,0.0,0.0,0.0,0.0,0.0,0.0,0.0,0.0,0.0,0.0,0.0,0.0,0.0,0.0,0.0,0.0,0.0,0.0,0.0,0.0,0.0,0.0,0.0,0.0,0.0,0.0,0.0,0.0,0.0,0.0,0.0,0.0,0.0,0.0,0.0,0.0,0.0,0.0,0.0,0.0,0.0,0.0,0.0,0.0,0.0,0.0,0.0,0.0,0.0,0.0,0.0,0.0,0.0,0.0,-2.1621,-2.2051,-2.2324,-2.2113,-2.2349,-2.2715,-2.0527,-2.0036,-2.0644,-1.9746,0.0,0.0,0.0,0.0,0.0,0.0,0.0,0.0,0.0,0.0,0.0,0.0,0.0,0.0,0.0,0.0,0.0,0.0,0.0,0.0,0.0,-2.6237,-2.7056,-2.8129,-2.7867,-2.7697,-2.7842,-2.7646,-2.7151,-2.6288,-2.6145,-2.5698,-2.4873,-2.4864,-2.455,-2.3905,-2.6126,-2.7756,-2.8777,-2.9702,-3.0519,-3.1023,-2.7426,0.0,0.0,0.0,0.0,0.0,0.0,0.0,0.0,0.0,0.0,0.0,0.0,0.0,0.0,0.0,0.0,0.0,0.0,0.0,0.0,0.0,0.0,0.0,0.0,0.0,0.0,0.0,0.0,0.0,0.0,0.0,0.0,0.0,0.0,0.0,0.0,0.0,0.0,0.0,0.0,0.0,0.0,0.0,-2.3055,-2.3218,0.0,0.0,0.0,0.0,0.0,0.0,0.0,0.0,0.0,0.0,0.0,0.0,0.0,-1.8549,-1.9763,-2.1229,-2.2227,-2.2769,-2.4004,-2.4394,-2.4036,-2.3055,-2.3139,-2.403,-2.2356,0.0,-2.1054,-2.043,0.0,0.0,0.0,0.0,0.0,0.0,0.0,0.0,0.0,0.0,0.0,0.0,0.0,0.0,0.0,0.0,0.0,0.0,0.0,0.0,0.0,-2.7318,-2.8293,-2.8962,-2.9982,-2.9923,-2.8471,-2.907,-2.8594,-2.6597,-2.6539,-2.6265,-2.5664,-2.5626,-2.5753,-2.5991,-2.8359,-2.9828,-3.0535,-3.1289,-3.1979,-3.2521,-3.0865,-2.9927,-2.9495,-2.8079,0.0,0.0,0.0,0.0,0.0,0.0,0.0,0.0,0.0,0.0,0.0,0.0,0.0,0.0,0.0,0.0,0.0,0.0,0.0,0.0,0.0,0.0,0.0,0.0,0.0,0.0,0.0,0.0,0.0,0.0,0.0,0.0,0.0,0.0,0.0,0.0,0.0,0.0,0.0,-2.3412,-2.3374,-2.2651,-2.2649,-2.2173,0.0,0.0,0.0,0.0,0.0,0.0,0.0,0.0,0.0,-1.9662,-1.9234,-1.9833,-2.1578,-2.2301,-2.3409,-2.498,-2.5547,-2.584,-2.583,-2.4659,-2.4282,-2.4568,-2.3144,-2.2398,-2.2039,-2.1282,-2.0484,-1.9545,0.0,0.0,0.0,0.0,-1.7242,-1.7291,0.0,0.0,0.0,0.0,0.0,0.0,0.0,0.0,0.0,0.0,0.0,0.0,-2.6724,-2.7907,-2.9088,-3.0119,-3.1315,-3.135,-2.9928,-3.0046,-2.9286,-2.7372,-2.6886,-2.6531,-2.6213,-2.6284,-2.7029,-2.8569,-3.0214,-3.1398,-3.2039,-3.2742,-3.337,-3.3941,-3.3896,-3.3013,-3.142,-3.0086,-2.8672,0.0,0.0,0.0,0.0,0.0,0.0,0.0,0.0,0.0,0.0,0.0,0.0,0.0,0.0,0.0,0.0,0.0,0.0,0.0,0.0,0.0,0.0,0.0,0.0,0.0,0.0,0.0,0.0,0.0,0.0,0.0,0.0,0.0,0.0,0.0,0.0,0.0,0.0,-2.3561,-2.3627,-2.2408,-2.3334,-2.3185,0.0,0.0,0.0,0.0,0.0,0.0,-2.05,-1.9968,-1.9953,-2.0699,-2.0523,-2.147,-2.3476,-2.3683,-2.4746,-2.6719,-2.6816,-2.6878,-2.6806,-2.5601,-2.4911,-2.4551,-2.3254,-2.2773,-2.2757,-2.175,-2.1245,-2.0892,-1.9092,-1.8066,-1.757,-1.7482,-1.7207,-1.6982,0.0,0.0,0.0,0.0,0.0,0.0,0.0,0.0,0.0,0.0,0.0,-2.5771,-2.6554,-2.7135,-2.8652,-3.1623,-3.0406,-3.0475,-3.2799,-2.9783,-2.81,-2.8593,-2.7131,-2.6242,-2.601,-2.6381,-2.8013,-3.0918,-3.1236,-3.219,-3.3796,-3.4831,-3.568,-3.6229,-3.5629,-3.5519,-3.5538,-3.1742,-3.0813,-3.1501,0.0,0.0,0.0,0.0,0.0,0.0,0.0,0.0,0.0,0.0,0.0,0.0,0.0,0.0,0.0,0.0,0.0,0.0,0.0,0.0,0.0,0.0,0.0,0.0,0.0,0.0,0.0,0.0,0.0,0.0,0.0,0.0,0.0,0.0,0.0,0.0,0.0,0.0,0.0,-2.3526,-2.4337,0.0,0.0,0.0,0.0,-2.1072,-2.154,-2.1844,-2.1699,-2.1294,-2.1645,-2.2895,-2.2293,-2.2944,-2.4887,-2.5548,-2.6473,-2.7669,-2.8008,-2.7596,-2.6463,-2.5281,-2.4525,-2.4039,-2.2522,-2.2307,-2.2877,-2.1504,-2.1186,-2.1453,-2.0447,-1.9541,-1.8874,-1.9434,-1.8975,-1.8057,0.0,0.0,0.0,0.0,0.0,0.0,0.0,0.0,-2.5141,-2.5644,-2.6597,-2.7674,-2.875,-3.0004,-3.1568,-3.3359,-3.3901,-3.4012,-3.3691,-3.184,-3.0592,-3.0206,-2.8426,-2.7726,-2.829,-2.8394,-2.953,-3.1801,-3.296,-3.4022,-3.4931,-3.573,-3.6182,-3.6405,-3.6533,-3.6672,-3.6641,-3.4364,-3.2538,-3.1177,-2.966,-2.7374,0.0,0.0,0.0,0.0,0.0,0.0,0.0,0.0,0.0,0.0,0.0,0.0,0.0,0.0,0.0,0.0,0.0,0.0,0.0,0.0,0.0,0.0,0.0,0.0,0.0,0.0,0.0,0.0,0.0,0.0,0.0,0.0,0.0,0.0,0.0,0.0,0.0,-2.5545,-2.6628,0.0,-2.503,-2.4838,-2.4682,-2.4446,-2.4107,-2.4253,-2.4977,-2.449,-2.4067,-2.3857,-2.393,-2.4069,-2.4296,-2.4542,-2.5431,-2.6927,-2.7058,-2.6916,-2.6463,-2.5223,-2.4082,-2.2982,-2.168,-2.1418,-2.1892,-2.0659,-2.0618,-2.1131,-1.9749,-1.8875,-1.8527,-1.8993,-1.8563,-1.793,0.0,0.0,0.0,0.0,0.0,0.0,0.0,0.0,-2.5546,-2.6583,-2.7484,-2.8601,-3.0217,-3.1359,-3.2724,-3.4512,-3.5174,-3.5093,-3.4323,-3.2744,-3.1515,-3.0708,-2.9103,-2.8524,-2.9267,-2.973,-3.0878,-3.2767,-3.4098,-3.5102,-3.583,-3.6182,-3.6606,-3.6983,-3.7111,-3.7387,-3.7687,-3.656,-3.4671,-3.2297,-3.1229,-2.9533,-2.7447,0.0,0.0,0.0,0.0,0.0,0.0,0.0,0.0,0.0,0.0,0.0,0.0,0.0,0.0,0.0,0.0,0.0,0.0,0.0,0.0,0.0,0.0,0.0,0.0,0.0,0.0,0.0,0.0,0.0,0.0,0.0,0.0,0.0,0.0,-2.6393,-2.7611,-2.6626,-2.8057,-2.8464,-2.6832,-2.6941,-2.7028,-2.6704,-2.6478,-2.662,-2.7147,-2.6957,-2.6554,-2.5931,-2.5901,-2.5698,-2.5203,-2.4927,-2.5368,-2.6536,-2.6536,-2.6191,-2.5588,-2.4799,-2.3556,-2.2013,-2.0981,-2.0694,-2.094,-1.9894,-1.9851,-2.0326,-1.9841,-1.9576,-1.9482,-1.9891,-1.9677,-1.9261,0.0,0.0,0.0,0.0,0.0,0.0,0.0,-2.5678,-2.5918,-2.7833,-2.7757,-2.8406,-3.0715,-3.0867,-3.2011,-3.5067,-3.3832,-3.3465,-3.4929,-3.2233,-3.0446,-3.0107,-2.9011,-2.8525,-2.8733,-3.0292,-3.2055,-3.3922,-3.4474,-3.5303,-3.6405,-3.6405,-3.6935,-3.7965,-3.7437,-3.7814,-3.8894,-3.8266,-3.7111,-3.5282,-3.165,-3.0756,-3.1211,0.0,0.0,0.0,0.0,0.0,0.0,0.0,0.0,0.0,0.0,0.0,0.0,0.0,0.0,0.0,0.0,0.0,0.0,0.0,0.0,0.0,0.0,0.0,0.0,0.0,0.0,0.0,0.0,0.0,0.0,0.0,0.0,0.0,-2.5105,-2.6926,-2.7954,-2.6889,-2.869,-2.9363,-2.76,-2.8788,-2.9046,-2.7618,-2.8509,-2.8771,-2.805,-2.8597,-2.893,-2.9039,-2.8176,-2.7748,-2.7764,-2.6935,-2.6554,-2.6573,-2.6554,-2.5661,-2.3944,-2.3927,-2.2934,-2.1174,-2.053,-2.0183,-2.0139,-1.9247,-1.8936,-1.9078,-2.0925,-2.1734,-2.1928,-2.2367,-2.2469,-2.2185,0.0,0.0,0.0,0.0,0.0,0.0,0.0,-2.5629,-2.6027,-2.7339,-2.9137,-3.0821,-3.2262,-3.3889,-3.5352,-3.663,-3.5241,-3.4687,-3.5601,-3.226,-3.0202,-3.0096,-2.9522,-2.9968,-3.1621,-3.1811,-3.2732,-3.45,-3.5006,-3.568,-3.6405,-3.6405,-3.6782,-3.7412,-3.7663,-3.8191,-3.8919,-3.8693,-3.8366,-3.7713,-3.5027,-3.3507,-3.255,0.0,0.0,0.0,0.0,0.0,0.0,0.0,0.0,0.0,0.0,0.0,0.0,0.0,0.0,0.0,0.0,0.0,0.0,0.0,0.0,0.0,0.0,0.0,0.0,0.0,0.0,0.0,0.0,0.0,0.0,0.0,-2.8659,-2.9858,-2.8121,-2.8771,-2.9563,-3.0047,-3.0615,-3.0913,-3.0709,-3.0859,-3.084,-3.0762,-3.073,-3.0756,-3.0846,-3.1035,-3.0741,-2.9857,-2.893,-2.7958,-2.6816,-2.5388,-2.4988,-2.5639,-2.6061,-2.5661,-2.4556,-2.4761,-2.376,-2.1801,-2.0932,-2.0402,-2.0154,-1.9477,-1.9084,-1.895,-1.9468,-2.0219,-2.1191,-2.2297,-2.3387,-2.4103,0.0,0.0,0.0,0.0,0.0,0.0,0.0,-2.5843,-2.6391,-2.7642,-2.9951,-3.1982,-3.3254,-3.4772,-3.5954,-3.6508,-3.5317,-3.45,-3.4332,-3.1825,-3.0168,-2.9696,0.0,-3.1045,-3.2168,-3.2693,-3.352,-3.468,-3.5232,-3.583,-3.6405,-3.6656,-3.701,-3.7563,-3.8115,-3.8693,-3.922,-3.922,-3.922,-3.9069,-3.7563,-3.6405,-3.5365,-3.2885,-3.2072,-3.1902,-2.9555,-2.9189,-2.9669,-2.8585,0.0,0.0,0.0,0.0,0.0,0.0,0.0,0.0,0.0,0.0,0.0,0.0,0.0,0.0,0.0,0.0,0.0,0.0,0.0,0.0,0.0,0.0,0.0,0.0,-3.0979,-3.245,-3.2105,-3.1892,-3.1921,-3.2338,-3.2148,-3.2043,-3.2256,-3.2085,-3.2043,-3.2256,-3.2085,-3.2064,-3.2256,-3.2277,-3.1825,-3.0929,-3.0049,-2.8861,-2.7329,-2.5974,-2.5378,-2.5543,-2.587,-2.5565,-2.4699,-2.5003,-2.3917,-2.1831,-2.1354,-2.0733,-2.0018,-1.9377,-1.9094,-1.9092,0.0,0.0,0.0,0.0,-2.4033,-2.4189,0.0,0.0,0.0,0.0,0.0,0.0,0.0,-2.6205,-2.6887,-2.8321,-3.0395,-3.2227,-3.3705,-3.4416,-3.501,-3.5516,-3.4641,-3.3487,-3.2221,-3.1212,-3.0281,-2.9454,-3.0958,-3.1813,-3.1662,-3.3194,-3.4248,-3.4781,-3.5332,-3.5881,-3.6405,-3.6908,-3.7387,-3.7939,-3.8517,-3.9069,-3.9597,-3.9672,-3.9697,-3.9647,-3.917,-3.8919,-3.8542,-3.5244,-3.4948,-3.5799,-3.2562,-3.1398,-3.1195,-3.0055,0.0,0.0,0.0,0.0,0.0,0.0,0.0,0.0,0.0,0.0,0.0,0.0,0.0,0.0,0.0,0.0,0.0,0.0,0.0,0.0,0.0,0.0,0.0,0.0,-3.3098,-3.4365,-3.6345,-3.5611,-3.4668,-3.4151,-3.3394,-3.2898,-3.2898,-3.2898,-3.2841,-3.2727,-3.2841,-3.2841,-3.2727,0.0,0.0,0.0,0.0,-3.0133,-2.8899,-2.784,-2.6907,-2.611,-2.6076,-2.5581,-2.4687,-2.497,-2.3885,-2.1815,-2.1693,-2.0927,-1.9784,-1.917,-1.913,-1.948,-2.0028,-2.0643,-2.1549,-2.4349,-2.4525,-2.3561,0.0,0.0,0.0,0.0,0.0,0.0,0.0,-2.6251,-2.7302,-2.8494,-3.0777,-3.2611,-3.3404,-3.4569,-3.5504,-3.6069,-3.4612,-3.31,-3.1889,-3.087,-3.061,-3.1356,-3.1443,-3.2122,-3.3395,-3.4173,-3.4781,-3.5332,-3.5931,-3.6304,-3.6405,-3.6505,-3.6857,-3.7362,-3.7914,-3.8492,-3.9069,-3.9496,-3.9697,-3.9697,-3.9572,-3.927,-3.8693,-3.7136,-3.6712,-3.6787,-3.5165,-3.5437,-3.6332,-3.4981,-3.4241,-3.3641,-3.2423,0.0,0.0,0.0,0.0,0.0,0.0,0.0,0.0,0.0,0.0,0.0,0.0,0.0,0.0,0.0,0.0,0.0,0.0,0.0,0.0,-3.3318,-3.5538,-3.7369,-3.8266,-3.7737,-3.6867,-3.5885,-3.4792,-3.4155,-3.4155,-3.4155,-3.3762,-3.2784,-3.3614,-3.3706,-3.2727,-3.2669,-3.2685,-3.2545,-3.1361,-3.0712,-3.0797,-2.846,-2.7377,-2.7526,-2.7107,0.0,-2.5649,-2.5623,-2.4758,-2.3162,-2.1828,-2.0798,-2.0051,-1.9257,-1.9428,-2.0308,-2.0987,-2.146,-2.2151,-2.4507,-2.5222,-2.5063,0.0,0.0,0.0,0.0,0.0,0.0,0.0,-2.6483,-2.7656,-2.8732,-3.1124,-3.3073,-3.3966,-3.4542,-3.4882,-3.4945,-3.3437,-3.2356,-3.2081,-3.1689,-3.1729,-3.2277,-3.2269,-3.2767,-3.3872,-3.4449,-3.4956,-3.5508,-3.6081,-3.6405,-3.6405,-3.6681,-3.691,-3.7211,-3.8065,-3.8892,-3.9695,-4.0209,-4.0743,-4.1196,-4.0668,-4.0639,-4.065,-3.9067,-3.8442,-3.8341,-3.7513,-3.7563,-3.7839,-3.6877,-3.6222,-3.5807,-3.5624,-3.3887,-3.1667,0.0,0.0,0.0,0.0,0.0,0.0,0.0,0.0,0.0,0.0,0.0,0.0,0.0,0.0,-2.9059,-2.9977,0.0,-3.4023,-3.5707,-3.7567,-3.8944,-3.9245,-3.9256,-3.8688,-3.7203,-3.6045,-3.5333,-3.5333,-3.5333,-3.5113,-3.4525,-3.5002,-3.4858,-3.3649,-3.3614,-3.3332,-3.2727,-3.2044,-3.1546,-3.1285,-2.9988,-2.918,-2.892,-2.8676,-2.7843,-2.6619,-2.6756,-2.5651,-2.344,-2.2514,-2.1799,-2.1215,-2.0841,-2.1142,-2.1802,-2.1956,-2.2223,-2.2711,-2.4448,-2.4706,-2.4412,0.0,0.0,0.0,0.0,0.0,0.0,0.0,-2.6769,-2.7975,-2.8898,-3.116,-3.3029,-3.3966,-3.3872,-3.3594,-3.3216,-3.249,-3.2205,-3.2698,-3.3156,-3.3365,-3.3252,-3.371,-3.4178,-3.455,-3.4933,-3.5476,-3.6088,-3.6402,-3.6631,-3.6732,-3.7377,-3.7676,-3.7726,-3.8938,-3.9967,-4.0751,-4.1255,-4.2012,-4.2744,-4.1864,-4.1932,-4.2409,-4.0739,-4.0185,-4.0211,-3.9449,-3.8738,-3.8148,-3.784,-3.7392,-3.713,-3.8011,-3.6972,-3.5159,-3.3578,-3.2822,0.0,0.0,0.0,0.0,0.0,0.0,0.0,0.0,0.0,-2.7118,-2.88,-3.0126,-3.1579,-3.3314,-3.4582,-3.5959,-3.789,-3.9019,-3.9697,-3.9697,-4.0174,-3.9932,-3.8445,-3.7233,-3.6511,-3.6511,-3.6511,-3.6457,-3.624,-3.6402,-3.6022,-3.4914,-3.4858,-3.4246,-3.3105,-3.3069,-3.2592,-3.1594,-3.1401,-3.0937,-3.0177,-3.0001,-2.9175,-2.7794,-2.7785,-2.6373,-2.395,-2.3422,-2.2955,-2.2684,-2.2741,-2.3099,-2.353,-2.3113,-2.3249,-2.3716,-2.4427,-2.4035,-2.3407,0.0,0.0,0.0,0.0,0.0,0.0,0.0,0.0,-2.8358,-2.8988,-3.0491,-3.1554,-3.177,-3.18,-3.1808,-3.1743,-3.3063,-3.3901,-3.3923,-3.5013,-3.5515,-3.5291,-3.6454,-3.7045,-3.6999,-3.6806,-3.7241,-3.8241,-3.7492,-3.7337,-3.7814,-3.8862,-3.932,-3.9394,-4.0935,-4.1707,-4.1856,-4.2376,-4.2695,-4.2792,-4.2695,-4.237,-4.1883,-4.1618,-4.192,-4.2226,-4.069,-3.9601,-3.897,-3.9444,-3.8845,-3.7967,-3.8228,-3.7729,-3.6604,-3.4302,0.0,-3.0344,-2.8185,-2.6655,-2.5851,-2.6626,-2.6457,-2.7186,0.0,0.0,-3.1902,-3.3582,-3.4865,-3.5715,-3.5984,-3.6889,-3.7915,-3.8668,-3.9295,-3.9697,-3.9697,-4.0174,-4.0247,-3.9592,-3.8425,-3.7713,-3.7713,-3.7713,-3.7287,-3.6294,-3.7126,-3.7233,-3.6077,-3.6022,-3.5498,-3.4323,-3.4323,-3.3706,-3.2555,-3.171,-3.1227,-3.1111,-3.0295,-2.9768,-2.9538,-2.8056,-2.6893,-2.5978,-2.4122,-2.3614,-2.3966,-2.3738,-2.4227,-2.5112,-2.471,-2.5157,-2.586,-2.4647,-2.3922,-2.3641,0.0,0.0,0.0,0.0,0.0,0.0,0.0,0.0,0.0,-2.9111,-3.0195,-3.1173,-3.2066,-3.1414,-3.0974,-3.1147,-3.2039,0.0,-3.4461,-3.5455,-3.6291,-3.6924,-3.7359,-3.7709,-3.7978,-3.7859,-3.8381,-3.9539,-3.9124,-3.9228,-3.9802,-4.0274,-4.0462,-4.0489,-4.1531,-4.232,-4.2935,-4.3424,-4.4031,-4.4527,-4.3937,-4.3892,-4.4001,-4.2,-4.1975,-4.2581,-4.0079,-3.8573,0.0,0.0,-3.7668,-3.7537,-3.8635,-3.7951,-3.6469,-3.5361,-3.3965,0.0,-3.0556,-2.8841,-2.7667,-2.8003,-2.8913,-3.0204,-3.2136,-3.2887,-3.365,-3.5361,-3.6558,-3.7412,-3.7813,-3.8467,-3.9069,0.0,-3.9823,-4.0074,-3.9747,-4.0174,-4.0199,-3.932,-3.9059,-3.8921,-3.8921,-3.8921,-3.8764,-3.8267,-3.8712,-3.8425,-3.7233,-3.718,-3.6696,-3.5553,-3.4858,-3.4267,-3.3762,-3.2628,-3.2133,-3.2133,-3.171,-3.1108,-3.0315,-2.9372,-2.8033,-2.6459,-2.5991,-2.5931,-2.6074,-2.6135,-2.6511,-2.6923,-2.6218,-2.6168,-2.6278,-2.5369,-2.4559,-2.3998,0.0,0.0,0.0,0.0,0.0,0.0,0.0,0.0,0.0,0.0,-3.0026,-3.0986,-3.2266,-3.124,-3.0628,-3.1016,-3.1528,0.0,0.0,-3.5832,-3.7006,-3.8206,-3.8455,-3.8727,-3.9129,-3.9039,-3.9596,-4.0831,-4.0559,-4.0803,-4.1556,-4.1835,-4.1975,-4.2002,-4.2749,-4.3482,-4.4197,-4.456,-4.5201,-4.5821,-4.5035,-4.4886,-4.4804,-4.2027,-4.1111,-4.1027,-3.8808,-3.7288,0.0,0.0,-3.5777,-3.6076,-3.7486,-3.6948,-3.5762,-3.5272,-3.3954,-3.2415,-3.1239,-3.0062,-2.9245,-2.952,-3.1153,-3.2808,-3.3251,-3.4234,-3.5412,-3.6812,-3.7814,-3.8592,-3.9019,-3.9421,-3.9697,-3.9697,-4.0023,-4.0149,-3.9747,-4.0049,-3.9873,-3.8768,-3.8994,-3.922,-3.922,-3.9521,-3.9697,-3.9697,-3.9697,-3.931,-3.8425,-3.8372,-3.7897,-3.6727,-3.5881,-3.53,-3.4969,-3.3762,-3.3218,-3.3161,-3.2841,-3.2137,-3.1027,-3.0242,-2.8891,-2.7131,-2.7593,-2.7863,-2.8043,-2.8189,-2.8264,-2.8309,-2.7311,-2.6922,-2.6741,-2.5977,-2.5167,-2.451,0.0,0.0,0.0,0.0,0.0,0.0,0.0,0.0,0.0,0.0,0.0,0.0,0.0,-3.0901,-3.0675,-3.1414,0.0,0.0,0.0,-3.6432,-3.8119,-3.9133,-4.0344,-4.0995,-4.1024,-4.0716,-4.1106,-4.2323,-4.1388,-4.1598,-4.2786,-4.374,-4.421,-4.4256,-4.531,-4.5792,-4.5821,-4.5821,-4.5895,-4.5895,-4.5866,-4.4763,-4.2934,-4.1616,-3.939,-3.6996,-3.7075,0.0,0.0,0.0,-3.3649,-3.3543,-3.3817,-3.4381,0.0,-3.3311,-3.0724,-2.8394,-2.8884,-2.8812,-2.9054,-3.0866,-3.2587,-3.4254,-3.5884,-3.7088,-3.8065,-3.8668,-3.9245,-3.9647,-3.9672,-3.9697,-3.9697,-3.9697,-3.9697,-3.9722,-3.9697,-3.9697,-3.9295,-3.8165,-3.804,-3.8065,0.0,-3.9044,-3.9697,-3.9697,-3.9697,-3.9697,-3.9645,-3.9645,-3.9102,-3.7897,-3.7844,-3.7287,-3.6131,-3.5002,-3.4435,-3.4413,-3.3275,-3.2421,-3.189,-3.0218,-2.9124,-2.8635,-2.8368,-2.8761,-2.9501,-2.9197,-2.9039,-2.8978,-2.7819,-2.7637,-2.7855,-2.629,-2.5479,-2.5137,0.0,0.0,0.0,0.0,0.0,0.0,0.0,0.0,0.0,0.0,0.0,0.0,0.0,0.0,0.0,0.0,0.0,0.0,0.0,-3.6836,-3.8341,-3.8417,-4.1322,-4.2734,-4.2271,-4.2415,-4.2942,-4.3784,-4.2826,-4.2761,-4.3584,-4.397,-4.4305,-4.4723,-4.5065,-4.5459,-4.5895,-4.5895,-4.5634,-4.5198,-4.4792,-4.3979,-4.276,-4.0641,-3.8332,-3.5983,0.0,0.0,0.0,-3.0984,-3.082,-3.1039,-3.1561,-3.1792,-3.164,-3.052,-2.9566,-2.8988,-2.9668,-3.0138,-3.0984,-3.3071,-3.4865,-3.6433,-3.7739,-3.8316,-3.8642,-3.8869,-3.819,-3.7536,-3.7536,-3.7536,-3.7662,-3.7965,-3.8668,-3.927,-3.9647,-3.9697,-3.9145,-3.7638,-3.8264,0.0,0.0,0.0,0.0,-3.9647,-3.9697,-3.9697,-3.9697,-3.9697,-3.9517,-3.9102,-3.8319,-3.7737,-3.734,-3.6208,-3.5223,-3.4469,-3.3275,-3.2333,-3.1588,-3.1004,-3.0289,-2.9554,-2.9469,-2.9574,-2.9889,-2.9732,-2.9606,-2.9315,-2.8299,-2.7783,-2.7498,-2.6389,-2.582,-2.5479,0.0,0.0,0.0,0.0,0.0,0.0,0.0,0.0,0.0,0.0,0.0,0.0,0.0,0.0,0.0,0.0,0.0,0.0,0.0,0.0,-3.7033,-3.7372,-3.9787,-4.1155,-4.1252,-4.1301,-4.1849,-4.2924,-4.2375,-4.2653,-4.3696,-4.349,-4.3759,-4.4347,-4.4268,-4.4371,-4.4662,-4.4894,-4.4384,-4.342,-4.2927,-4.1779,-4.0188,-3.7978,-3.569,0.0,0.0,0.0,0.0,-2.8257,-2.8349,-2.875,-2.908,-2.9375,-2.9496,-2.913,-2.9197,-2.972,-3.1255,-3.2138,-3.3244,-3.6006,-3.7309,-3.8225,-3.9216,-3.8994,-3.8442,-3.8114,-3.696,-3.6006,-3.5805,-3.5629,-3.5683,-3.615,-3.6697,-3.7419,-3.8563,-3.8539,-3.8216,-3.7686,-3.8136,-3.8209,0.0,0.0,0.0,-3.9423,-3.9623,-3.9697,-3.9697,-3.9697,-3.9697,-3.9697,-3.8921,-3.8554,-3.8554,-3.7394,-3.6045,-3.4469,-3.2938,-3.194,-3.136,-3.1029,-3.0553,-2.9994,-2.9994,-2.9994,-2.9994,-2.9994,-2.9786,-2.9404,-2.8543,-2.8006,-2.7552,-2.6623,-2.621,-2.6133,0.0,0.0,0.0,0.0,0.0,0.0,0.0,0.0,0.0,0.0,0.0,0.0,0.0,0.0,0.0,0.0,0.0,0.0,0.0,0.0,0.0,-3.6181,-3.6349,-3.7063,-3.8428,-3.7868,-3.8385,-4.0021,-4.0262,-4.1278,-4.2958,-4.2364,-4.2496,-4.3187,-4.2919,-4.2561,-4.2228,-4.2872,-4.2214,-4.0681,-4.0353,-3.837,-3.5541,-3.4014,0.0,0.0,0.0,0.0,0.0,-2.6062,-2.641,-2.6773,-2.6674,-2.7405,-2.8473,-2.9151,-2.9662,-3.0622,-3.3542,-3.4669,-3.5844,-3.9393,-3.9854,-3.9625,-4.0249,-3.9131,-3.7612,-3.6505,-3.573,-3.5082,0.0,0.0,-3.395,-3.4399,-3.4088,-3.4623,-3.6847,-3.6676,-3.6826,0.0,0.0,0.0,0.0,0.0,0.0,-3.917,0.0,-3.9697,-3.9747,-3.9697,-3.9697,-3.9697,-3.9697,-3.9697,-3.9697,-3.8477,-3.6804,-3.4636,-3.2611,-3.1587,-3.1449,-3.0556,-3.0088,-2.9994,-2.9994,-2.9994,-2.9994,-2.9994,-2.9725,-2.9198,-2.8471,-2.8186,-2.8055,-2.6936,-2.6778,-2.6961,0.0,0.0,0.0,0.0,0.0,0.0,0.0,0.0,0.0,0.0,0.0,0.0,0.0,0.0,0.0,0.0,0.0,0.0,0.0,0.0,0.0,0.0,0.0,0.0,0.0,0.0,0.0,-3.9218,-3.9055,-3.9254,-3.968,-3.9511,-3.9811,-4.0419,-4.0355,-4.0414,-4.0594,-4.0775,-3.9847,-3.8221,0.0,-3.6196,-3.4218,0.0,0.0,0.0,0.0,0.0,0.0,0.0,0.0,-2.7152,-2.7776,-2.841,-2.9201,-3.0765,-3.2436,-3.4175,-3.5901,-3.759,-3.9312,-4.1082,-4.1031,-4.0448,-3.9917,-3.8491,-3.6753,-3.4931,-3.3119,-3.1712,0.0,0.0,0.0,-3.3901,-3.5625,0.0,-3.8815,-3.889,0.0,-3.8793,0.0,-3.8614,-3.841,-3.869,0.0,0.0,-3.9524,-3.9873,-4.0275,-3.9923,-3.9697,-3.9697,-3.9697,-3.9697,-3.9697,-3.8477,-3.7607,-3.7019,-3.5608,-3.4139,-3.2652,-3.2415,-3.1444,-2.9994,-2.9994,-2.9994,-2.9994,-2.9994,-2.9725,-2.9249,-2.8693,-2.8202,-2.7746,-2.7403,-2.7033,-2.6697,0.0,0.0,0.0,0.0,0.0,0.0,0.0,0.0,0.0,0.0,0.0,0.0,0.0,0.0,0.0,0.0,0.0,0.0,0.0,0.0,0.0,0.0,0.0,0.0,0.0,0.0,0.0,0.0,0.0,0.0,-3.7133,-3.6806,-3.703,-3.7623,-3.7396,-3.7319,-3.7375,-3.7646,0.0,0.0,0.0,0.0,0.0,0.0,0.0,0.0,0.0,0.0,0.0,0.0,0.0,-2.802,-2.896,-2.9619,-3.0471,-3.2244,-3.4312,-3.6369,-3.8016,-3.9825,-4.1512,-4.2597,-4.2046,-4.0813,-3.9348,-3.7475,-3.5365,-3.281,-3.1149,-2.9896,-2.9189,-2.998,-3.1163,0.0,0.0,0.0,-3.8511,-3.8858,-3.9162,0.0,-3.9928,0.0,-3.95,-3.9424,-3.9525,0.0,-3.975,-3.9823,-4.0149,-3.9848,-3.9697,-3.9697,-3.9697,-3.9697,-3.9697,-3.8477,-3.7897,-3.7873,-3.6284,-3.469,-3.3112,-3.2621,-3.1536,-2.9994,-2.9994,-2.9994,-2.9973,-2.9766,-2.9415,-2.898,-2.8711,-2.8115,-2.7462,-2.7667,-2.7365,-2.6873,0.0,0.0,0.0,0.0,0.0,0.0,0.0,0.0,0.0,0.0,0.0,0.0,0.0,0.0,0.0,0.0,0.0,0.0,0.0,0.0,0.0,0.0,0.0,0.0,0.0,0.0,0.0,0.0,0.0,0.0,0.0,0.0,0.0,0.0,0.0,0.0,0.0,0.0,0.0,0.0,0.0,0.0,0.0,0.0,0.0,0.0,0.0,0.0,0.0,0.0,-2.9194,-2.9434,-3.0429,-3.1255,-3.2206,-3.4022,-3.6018,-3.805,-4.0097,-4.1768,-4.3142,-4.395,-4.2911,-4.1053,-3.863,-3.6375,-3.3886,-3.0714,0.0,-2.8955,-2.8069,-2.8448,-2.9447,-3.1143,0.0,-3.3668,-3.7486,-3.8003,-3.8854,-4.1269,-4.0832,-4.053,-4.079,-4.0154,-3.9898,-4.0375,-3.9973,-3.9722,-3.9798,-3.9747,-3.9697,-3.9697,-3.9697,-3.9697,-3.9697,-3.8659,-3.8161,-3.8108,-3.619,-3.4635,-3.3515,-3.2531,-3.1446,-3.0183,-3.0183,-3.0151,-2.9973,-2.9559,-2.9125,-2.8711,-2.8711,-2.8152,-2.7455,-2.7841,-2.7696,-2.7262,0.0,0.0,0.0,0.0,0.0,0.0,0.0,0.0,0.0,0.0,-3.1451,-3.0702,0.0,0.0,0.0,0.0,0.0,0.0,0.0,0.0,0.0,0.0,0.0,0.0,0.0,0.0,0.0,0.0,0.0,0.0,0.0,0.0,0.0,0.0,0.0,0.0,0.0,0.0,0.0,0.0,0.0,0.0,0.0,0.0,0.0,0.0,0.0,0.0,0.0,0.0,-3.1405,-3.194,-3.3247,-3.3862,-3.4653,-3.7195,-3.913,-4.0767,-4.2443,-4.41,-4.5223,-4.4835,-4.3704,-4.1822,-3.8348,-3.5821,0.0,0.0,-2.8272,-2.75,-2.6876,-2.7946,-2.9765,-3.2364,-3.3595,-3.5444,-3.8917,-3.8992,-3.9218,0.0,-4.0174,-4.0023,-4.0528,-4.0023,0.0,0.0,-3.9747,-3.9898,-4.035,-3.9948,-3.9697,-3.9697,-3.9697,-3.9697,-3.9697,-3.9465,-3.9362,-3.9362,-3.8561,-3.7358,-3.5805,-3.5189,-3.3618,-3.133,-3.133,-3.0836,-2.9994,-2.9911,-2.9601,-2.9187,-2.9187,-2.8628,-2.7862,-2.8317,-2.7966,-2.7351,0.0,0.0,0.0,0.0,0.0,0.0,0.0,-3.2456,-3.321,-3.5364,-3.4742,-3.3842,-3.3149,-3.1484,-3.0714,0.0,0.0,0.0,0.0,0.0,0.0,0.0,0.0,0.0,0.0,0.0,-3.2475,-3.0988,0.0,0.0,0.0,0.0,0.0,0.0,0.0,0.0,0.0,0.0,0.0,0.0,0.0,0.0,0.0,0.0,0.0,0.0,0.0,0.0,0.0,0.0,-3.1757,-3.3441,-3.5356,-3.5669,-3.6,-3.9057,-4.048,-4.1488,-4.3426,-4.4881,-4.5663,-4.4676,-4.3195,-4.1018,-3.718,0.0,0.0,0.0,-2.7575,-2.7009,-2.6584,-2.757,0.0,-3.1436,-3.2466,-3.4349,-3.8266,-3.8341,0.0,-4.0701,-4.045,-4.0224,0.0,-4.0023,-3.9697,-3.9697,-3.9697,-3.9798,-4.0074,-3.9848,-3.9697,-3.9697,-3.9697,-3.9697,-3.9697,-3.9697,-3.9697,-3.9697,-3.9145,-3.8187,-3.6874,-3.598,-3.4578,-3.2808,-3.1929,-3.133,-3.0764,-2.9984,-2.9497,-2.9311,-2.9311,-2.8876,-2.8317,-2.8524,-2.8193,-2.7593,0.0,0.0,0.0,0.0,0.0,0.0,0.0,-3.4031,-3.4889,-3.79,-3.8079,-3.7297,-3.5542,-3.2952,-3.1265,0.0,0.0,0.0,0.0,0.0,0.0,0.0,0.0,0.0,0.0,0.0,0.0,-3.0606,-3.2001,0.0,0.0,0.0,0.0,0.0,0.0,0.0,0.0,0.0,0.0,0.0,0.0,0.0,0.0,0.0,0.0,0.0,0.0,0.0,0.0,0.0,-3.1608,-3.3912,-3.6227,-3.6569,-3.6656,-3.9454,-4.0748,-4.1681,-4.3622,-4.4995,-4.5576,-4.4298,-4.2411,-3.9902,-3.6145,-3.3373,0.0,-2.8039,-2.7085,-2.6663,-2.6543,-2.7067,-2.8247,0.0,-3.0859,-3.2634,-3.7084,-3.7335,-3.7965,0.0,-4.0526,0.0,-4.035,-3.9948,0.0,-3.9697,-3.9697,-3.9697,-3.9697,-3.9697,-3.9697,-3.9697,-3.9697,-3.9697,-3.9697,-3.9697,-3.9697,-3.9697,-3.9145,-3.8438,-3.7621,-3.6475,-3.537,-3.4291,-3.2904,-3.2022,-3.1491,-3.0278,-2.9641,-2.9456,-2.9456,-2.9166,-2.8752,-2.8649,-2.8317,-2.7862,0.0,0.0,0.0,0.0,0.0,0.0,0.0,-3.448,-3.643,-3.9794,-3.9755,-3.9036,-3.814,-3.5591,-3.2899,0.0,0.0,0.0,0.0,0.0,0.0,0.0,0.0,0.0,0.0,0.0,0.0,-3.121,-3.2077,0.0,0.0,0.0,0.0,0.0,0.0,-2.938,0.0,0.0,0.0,0.0,0.0,0.0,0.0,0.0,0.0,0.0,0.0,0.0,0.0,0.0,0.0,-3.2568,-3.4877,-3.5958,-3.6664,-3.7626,0.0,0.0,-4.3255,-4.4698,-4.5576,-4.4298,-4.2063,-3.9353,-3.606,0.0,-2.9971,-2.7926,-2.6575,-2.5904,-2.6399,-2.6147,-2.6866,-3.0105,0.0,-3.1568,-3.616,-3.6625,-3.7232,-3.9171,0.0,0.0,-3.9772,-3.9722,-3.9697,-3.9697,-3.9697,-3.9697,-3.9697,-3.9697,-3.9697,-3.9697,-3.9697,-3.9697,-3.9697,-3.9697,-3.9697,-3.9697,-3.9145,-3.8868,-3.8717,-3.759,-3.648,-3.5445,-3.4747,-3.3377,-3.1564,-3.144,-3.0824,-2.9932,-2.9932,-2.9642,-2.9187,-2.8773,-2.8317,-2.7862,0.0,0.0,0.0,0.0,0.0,0.0,-3.4947,-3.5361,-3.6923,-4.1193,-4.1579,-4.0994,-3.98,-3.7917,-3.5143,-3.102,0.0,0.0,0.0,0.0,0.0,0.0,0.0,0.0,0.0,0.0,-3.2924,-3.1909,-3.2676,0.0,0.0,0.0,0.0,0.0,0.0,-2.9183,-2.8905,0.0,0.0,0.0,0.0,0.0,0.0,0.0,0.0,0.0,0.0,0.0,0.0,0.0,0.0,0.0,-3.1317,-3.2707,0.0,0.0,-3.9633,-4.0845,-4.3564,-4.5104,-4.5576,-4.4298,-4.1621,-3.8533,-3.5872,0.0,-2.8984,-2.7761,-2.6505,-2.5818,-2.6391,-2.6156,-2.657,0.0,0.0,0.0,-3.281,-3.3384,-3.4419,-3.718,-3.819,0.0,0.0,0.0,-3.9697,-3.9697,-3.9697,-3.9697,-3.9697,-3.9697,-3.9697,-3.9697,-3.9697,-3.9697,-3.9697,-3.9697,-3.9697,-3.9697,-3.9471,-3.9371,-3.932,-3.8191,-3.7418,-3.6974,-3.5454,-3.4337,-3.3426,-3.2123,-3.133,-3.0867,-2.9942,-2.9456,-2.9208,-2.8462,-2.809,-2.7862,0.0,0.0,0.0,0.0,0.0,-3.265,-3.5605,-3.5887,-3.7264,-4.148,-4.2228,-4.197,-4.0964,-3.8991,-3.6394,-3.2958,-3.1098,0.0,0.0,0.0,0.0,0.0,0.0,0.0,0.0,0.0,-3.3312,-3.2546,-3.3312,-3.3327,0.0,0.0,-3.1339,-3.0702,0.0,0.0,0.0,0.0,0.0,0.0,0.0,0.0,0.0,0.0,0.0,0.0,0.0,0.0,0.0,0.0,0.0,0.0,0.0,0.0,0.0,0.0,-3.8128,-3.9367,-4.2253,-4.4037,-4.4763,-4.3689,-4.0775,-3.7606,0.0,0.0,-2.8384,-2.7656,-2.6479,-2.5788,-2.6511,-2.623,-2.6319,0.0,0.0,-2.7881,-3.083,-3.1316,-3.2441,0.0,0.0,-3.7664,0.0,-3.9345,-3.9697,-3.9697,-3.9697,-3.9697,-3.9697,-3.9697,-3.9697,-3.9697,-3.9697,-3.9697,-3.9697,-3.9697,-3.9697,-3.9697,-3.9697,-3.9697,-3.9647,-3.8517,-3.8015,-3.789,-3.6087,-3.5066,-3.4678,-3.2828,-3.1891,-3.144,-2.9917,-2.9394,-2.9373,-2.8317,-2.8007,-2.8048,0.0,0.0,0.0,0.0,0.0,0.0,-3.4428,-3.5843,-3.76,-4.0359,-4.1219,-4.1612,-4.1579,-3.844,-3.6303,-3.627,-3.2376,0.0,0.0,0.0,0.0,0.0,0.0,0.0,0.0,0.0,-3.3893,-3.3089,-3.3893,-3.3909,-3.3192,-3.3312,-3.249,-3.0881,0.0,0.0,0.0,0.0,0.0,0.0,0.0,0.0,0.0,0.0,0.0,0.0,0.0,0.0,0.0,0.0,0.0,0.0,0.0,-2.9405,-2.9442,0.0,-3.4453,-3.7794,-3.8577,-4.0853,-4.2876,-4.2266,-3.9448,-3.6396,0.0,0.0,-2.8379,-2.7656,-2.6317,-2.5653,-2.6788,-2.6063,-2.5955,-2.7962,0.0,0.0,-3.1125,-3.1436,-3.1972,0.0,0.0,-3.5818,-3.6578,-3.8516,-3.9697,-3.9697,-3.9697,0.0,-3.9697,-3.9697,-3.9697,-3.9697,-3.9697,-3.9697,-3.9697,-3.9697,-3.9697,-3.9697,-3.9697,-3.9697,-3.9647,-3.8517,-3.8015,-3.7939,-3.6835,-3.5763,-3.4727,-3.3648,-3.2549,-3.144,-2.9917,-2.958,-2.9829,-2.8442,-2.8214,-2.8483,0.0,0.0,0.0,0.0,0.0,0.0,0.0,-3.4032,-3.5324,-3.7416,-3.7853,-3.8343,-3.9314,-3.708,-3.5552,-3.5552,-3.2967,0.0,0.0,0.0,0.0,0.0,0.0,0.0,0.0,0.0,-3.428,-3.4547,-3.4767,-3.5078,-3.5356,-3.4356,-3.3542,-3.2878,-3.1246,0.0,0.0,0.0,0.0,0.0,0.0,0.0,0.0,0.0,0.0,0.0,0.0,0.0,0.0,0.0,0.0,0.0,0.0,0.0,0.0,-3.0166,-3.2506,-3.5432,-3.7261,-3.8543,-3.9254,-3.8611,-3.6305,-3.3872,-3.2982,-3.0284,-2.785,-2.737,-2.6441,-2.5932,-2.659,-2.6327,-2.6632,-2.8586,-2.8608,0.0,0.0,0.0,0.0,-3.3753,-3.6511,-3.8467,0.0,0.0,-3.9697,-3.9697,-3.9697,-3.9697,-3.9697,-3.9697,-3.9697,-3.9697,-3.9697,-3.9697,-3.9697,-3.9697,-3.9697,-3.9697,-3.9697,-3.9697,-3.9647,-3.8742,-3.8163,-3.7939,-3.7026,-3.6332,-3.581,-3.4727,-3.3648,-3.2509,-3.064,-2.974,-2.9352,-2.7966,-2.7759,-2.8048,0.0,0.0,0.0,0.0,0.0,0.0,0.0,-3.2815,-3.3588,-3.4948,-3.5098,-3.5817,-3.7792,-3.5849,-3.4839,-3.5882,-3.4036,0.0,0.0,0.0,0.0,0.0,0.0,0.0,0.0,-3.3608,-3.4558,-3.5979,-3.5979,-3.6362,-3.7124,-3.6167,-3.5111,-3.3903,-3.2473,-3.123,0.0,0.0,0.0,0.0,0.0,0.0,-2.682,0.0,0.0,0.0,0.0,0.0,0.0,0.0,0.0,0.0,0.0,0.0,0.0,0.0,-3.0168,-3.2506,-3.5166,-3.6317,-3.6712,-3.6228,-3.442,-3.2514,-3.1626,0.0,-2.7712,-2.7229,-2.6527,-2.6157,-2.6661,-2.6632,-2.6982,-2.8368,-2.8395,-2.8582,0.0,0.0,0.0,-3.467,0.0,0.0,0.0,-3.9747,-3.9923,-3.9722,-3.9697,-3.9697,-3.9697,-3.9697,-3.9697,-3.9697,-3.9697,-3.9697,-3.9697,-3.9697,-3.9749,-3.9826,-3.9749,-3.98,-3.9955,-3.8892,-3.831,-3.8112,-3.7121,-3.6593,0.0,-3.5016,-3.3882,-3.2712,-3.067,-2.955,-2.8897,-2.7745,-2.7552,-2.7862,0.0,0.0,0.0,0.0,0.0,0.0,0.0,-3.2034,-3.2429,-3.303,-3.304,-3.4036,-3.6724,-3.4683,-3.4133,-3.6761,0.0,0.0,0.0,0.0,0.0,0.0,0.0,0.0,-3.3258,-3.341,-3.4741,-3.7366,-3.7371,-3.776,-3.8501,-3.8472,-3.6983,-3.4327,-3.4027,-3.2499,-3.0069,-2.8442,-2.7695,-2.7534,-2.7,-2.682,0.0,0.0,0.0,0.0,0.0,0.0,0.0,0.0,0.0,0.0,0.0,0.0,0.0,0.0,0.0,0.0,0.0,-3.4018,-3.4871,-3.4495,-3.3293,-3.1926,-3.0637,0.0,0.0,-2.717,-2.6591,-2.6385,-2.6899,-2.6968,-2.707,-2.7516,-2.7814,-2.8376,0.0,-3.039,0.0,0.0,-3.717,0.0,-3.8843,-3.9898,-4.03,-3.9798,-3.9722,-3.9697,-3.9697,-3.9697,-3.9697,-3.9697,-3.9749,-3.9749,-3.9697,-3.9749,-3.9878,-4.0083,-3.9826,-3.9981,-4.0363,-3.9015,-3.836,-3.8258,-3.7143,-3.6568,-3.621,-3.4721,-3.3481,-3.2331,-3.037,-2.9289,-2.8645,-2.7758,-2.76,-2.7903,0.0,0.0,0.0,0.0,0.0,0.0,0.0,0.0,0.0,0.0,-3.2278,-3.274,-3.3939,-3.3485,-3.338,0.0,0.0,0.0,0.0,0.0,0.0,0.0,0.0,0.0,-3.4153,-3.421,-3.5356,-3.7692,-3.8111,-3.8646,-3.939,-3.9275,-3.8278,-3.6502,-3.5376,-3.3123,-3.0156,-2.933,-2.8439,-2.7534,-2.7,-2.682,0.0,0.0,0.0,0.0,-2.6939,-2.7403,0.0,0.0,0.0,0.0,0.0,0.0,0.0,0.0,-2.7369,-2.8189,-2.8931,0.0,-3.0443,-2.9931,-2.9642,-2.9433,0.0,-2.8562,0.0,0.0,0.0,0.0,0.0,-2.7029,-2.7497,-2.8247,-2.9116,-2.9918,-3.0496,-3.2912,0.0,-3.7767,-3.9041,-3.9538,-3.8953,-3.989,-4.045,-4.0325,-3.9923,-3.9697,-3.9697,-3.9697,-3.9697,-3.9697,-3.9878,-3.9929,-3.9697,-4.0108,-4.0236,-4.0083,-4.0032,-3.988,-3.9575,-3.8738,-3.8083,-3.7434,-3.6919,-3.6341,-3.5683,-3.5301,-3.4281,-3.2864,-3.2039,-3.1124,-3.0141,-2.8847,-2.8413,-2.8338,0.0,0.0,0.0,0.0,0.0,0.0,0.0,0.0,0.0,0.0,0.0,0.0,0.0,0.0,0.0,0.0,0.0,0.0,0.0,0.0,0.0,0.0,0.0,-3.2609,-3.3705,-3.4112,-3.5642,-3.8418,-3.8841,-3.9722,-4.0991,-4.0283,-3.9023,-3.7182,-3.5033,-3.3058,-3.1268,-2.9962,-2.8945,-2.8182,-2.7325,0.0,0.0,0.0,0.0,0.0,-2.682,-2.72,0.0,-2.7501,-2.7996,-2.8453,0.0,0.0,0.0,0.0,-2.6322,-2.6648,-2.6373,-2.7571,-2.8805,-2.8315,-2.8326,-2.832,-2.7814,0.0,0.0,0.0,0.0,0.0,0.0,-2.7196,-2.7792,-2.7972,-2.9238,-3.0707,0.0,0.0,-3.6536,-3.9091,-3.9715,-4.0037,-4.038,-4.0467,-4.0526,-4.0526,-3.9998,-3.9697,-3.9697,-3.9697,-3.9697,-3.9697,-4.0083,-4.0134,-3.9878,-4.0287,-4.0363,-4.0056,-4.0109,-3.9803,-3.9212,-3.8659,-3.8007,-3.7354,-3.6915,-3.6218,-3.5483,-3.5232,-3.4209,-3.2755,-3.2226,-3.1413,-3.0396,-2.9149,-2.8675,-2.8534,0.0,0.0,0.0,0.0,0.0,0.0,0.0,0.0,0.0,0.0,0.0,0.0,0.0,0.0,0.0,0.0,0.0,0.0,0.0,0.0,0.0,0.0,0.0,-3.2385,-3.3162,-3.3827,-3.5787,-3.9149,-3.9492,-4.0647,-4.2456,-4.1452,-3.9735,-3.7344,-3.451,-3.3033,-3.2574,-3.0623,-2.95,-2.8921,-2.782,0.0,0.0,0.0,0.0,0.0,0.0,0.0,0.0,-2.7853,-2.8083,-2.811,-2.7275,0.0,0.0,0.0,0.0,0.0,-2.4853,-2.6603,-2.841,-2.7937,-2.7985,-2.7845,-2.7018,0.0,0.0,0.0,0.0,0.0,0.0,-2.7496,0.0,0.0,-2.9303,-3.1591,-3.419,-3.5349,-3.6966,-3.9819,-3.9865,-4.0215,-4.1547,-4.0949,-4.0526,-4.0526,-3.9998,-3.9697,-3.9697,-3.9697,-3.9697,-3.9697,-4.0185,-4.0313,-4.0058,-4.0389,-4.0462,-4.0122,-4.0083,-3.9699,-3.9139,-3.8528,-3.7929,-3.7371,-3.689,-3.6168,-3.5332,-3.4881,-3.3806,-3.245,-3.2015,-3.1318,-3.0376,-2.9347,-2.8861,-2.8647,0.0,0.0,0.0,0.0,0.0,0.0,0.0,0.0,0.0,0.0,0.0,0.0,0.0,0.0,0.0,0.0,0.0,0.0,0.0,0.0,0.0,-3.3212,-3.2433,-3.2915,-3.4872,-3.4541,-3.5828,-3.8878,-4.0032,-4.1048,-4.1927,-4.281,-4.1452,-3.8181,-3.6476,-3.4626,-3.2638,-3.186,-3.0541,-2.8926,-2.8297,0.0,0.0,0.0,0.0,0.0,0.0,0.0,0.0,-2.6849,-2.7457,-2.824,-2.6354,0.0,0.0,0.0,0.0,0.0,-2.5728,-2.6776,-2.7452,-2.6411,-2.6912,-2.7558,-2.7392,0.0,0.0,0.0,0.0,0.0,0.0,-2.8058,-2.8739,-2.8673,-3.1221,-3.3956,-3.6045,-3.8012,-3.9065,-3.8534,-4.0222,-4.088,-3.9547,-4.0062,-4.0526,-4.0526,-3.9998,-3.9697,-3.9697,-3.9697,-3.9697,-3.9697,-3.9981,-4.0007,-3.9674,-4.0663,-4.1071,-4.0741,-4.0079,-3.944,-3.8823,-3.7853,-3.7107,-3.6578,-3.6502,-3.5827,-3.4806,-3.4705,-3.4034,-3.2953,-3.2878,-3.2489,-3.1819,-3.0467,-2.9663,-2.9102,0.0,0.0,0.0,0.0,0.0,0.0,0.0,0.0,0.0,0.0,0.0,0.0,0.0,0.0,0.0,0.0,0.0,0.0,0.0,0.0,0.0,-3.4428,-3.3884,-3.3896,-3.4643,-3.5078,-3.6535,-3.8932,-4.0417,-4.1691,-4.275,-4.1815,-4.0124,-3.7728,-3.5914,-3.4503,-3.3383,-3.2526,-3.1202,-2.9674,0.0,0.0,0.0,0.0,0.0,0.0,0.0,0.0,0.0,0.0,-2.7258,-2.7841,-2.6208,0.0,0.0,0.0,0.0,0.0,-2.4696,-2.5407,-2.5972,-2.5742,-2.7033,-2.8144,0.0,0.0,0.0,0.0,0.0,0.0,0.0,0.0,-3.0341,-3.1994,-3.3655,-3.5339,-3.7079,-3.7995,-3.8662,-3.9119,-3.9825,-4.0201,-4.0209,-4.0117,-4.0199,-4.0501,-3.9998,-3.9697,-3.9697,-3.9697,-3.9697,-3.9697,-3.9981,-3.9956,-3.957,-4.0151,-4.0145,-3.9573,-3.9478,-3.882,-3.7687,-3.7498,-3.7029,-3.6405,-3.6405,-3.5906,-3.5107,-3.4806,-3.4248,-3.3495,-3.3194,-3.2959,-3.2607,-3.1386,-3.0148,-2.8936,0.0,0.0,0.0,0.0,0.0,0.0,0.0,0.0,0.0,0.0,0.0,0.0,0.0,0.0,0.0,0.0,0.0,0.0,0.0,0.0,-3.442,-3.5185,-3.4927,-3.4901,-3.5124,-3.591,-3.7361,-3.9581,-4.0904,-4.2297,-4.3714,-4.1305,-3.925,-3.7469,-3.5493,-3.4424,-3.4043,-3.3042,-3.1897,-3.0634,0.0,0.0,0.0,0.0,0.0,0.0,0.0,0.0,0.0,0.0,0.0,0.0,0.0,0.0,0.0,-2.5405,-2.471,-2.4305,-2.4322,-2.4741,-2.531,-2.5711,0.0,0.0,0.0,0.0,0.0,0.0,0.0,0.0,0.0,-3.0576,-3.2248,-3.4863,-3.5789,-3.6647,-3.8018,-3.8254,-3.874,-3.9931,-3.9728,-3.9903,-4.0933,-4.0251,-3.9873,-4.03,-3.9923,-3.9697,-3.9697,-3.9697,-3.9697,-3.9697,-3.9752,-3.9652,-3.9341,-3.9263,-3.9,-3.8588,-3.8755,-3.8159,-3.6937,-3.7194,-3.695,-3.6405,-3.6279,-3.5855,-3.5257,-3.4705,-3.4198,-3.3671,-3.3244,-3.2939,-3.268,-3.1889,-3.0531,-2.9026,0.0,0.0,0.0,0.0,0.0,0.0,0.0,0.0,0.0,0.0,0.0,0.0,0.0,0.0,0.0,0.0,0.0,0.0,0.0,0.0,-3.4195,-3.4406,-3.4364,-3.5553,-3.8151,-3.7352,-3.8258,-4.0934,-4.163,-4.2709,-4.4122,-4.2977,-4.0966,-3.8246,-3.6788,-3.5396,-3.4075,-3.3732,-3.2907,-3.1696,-3.0405,0.0,0.0,0.0,0.0,0.0,0.0,0.0,0.0,0.0,0.0,0.0,0.0,0.0,-2.6779,-2.6668,-2.5845,-2.5149,-2.6132,-2.6396,-2.6373,-2.6424,-2.6559,0.0,-2.846,-2.8385,0.0,-2.9377,0.0,0.0,0.0,-3.224,-3.4136,-3.5573,-3.7191,-3.841,-3.8993,-4.0491,-4.1106,-4.0236,-4.0772,-4.0952,-4.0235,-3.9877,-3.9722,-3.9747,-3.9722,-3.9697,-3.9697,-3.9697,-3.9697,-3.9697,-3.9246,-3.8793,-3.8485,-3.8026,-3.8216,-3.9136,-3.8165,-3.7645,-3.7495,-3.6776,-3.6455,-3.638,-3.583,-3.5257,-3.4751,-3.4198,-3.3646,-3.3144,-3.3136,-3.2525,-3.1713,-3.1625,-3.0935,-3.0079,0.0,0.0,0.0,0.0,0.0,0.0,0.0,0.0,0.0,0.0,0.0,0.0,0.0,0.0,0.0,0.0,0.0,0.0,0.0,-3.4101,-3.4439,-3.5136,-3.5357,-3.6106,-3.7412,-3.7665,-3.8852,-4.1096,-4.2076,-4.3019,-4.3817,-4.1725,-3.9783,-3.8014,-3.6181,-3.4935,-3.4206,-3.3658,-3.285,-3.1784,-3.0334,-2.9116,0.0,0.0,0.0,0.0,0.0,0.0,0.0,0.0,-2.6722,-2.7168,0.0,-2.6427,-2.7155,-2.6217,-2.5481,-2.5066,-2.5242,-2.5626,-2.5912,-2.5912,-2.6716,0.0,0.0,-2.9578,-2.998,-3.1085,-3.1587,0.0,0.0,0.0,-3.5486,-3.6524,-3.781,-3.8994,-3.9905,-4.044,-4.0619,-4.0364,-4.0645,-4.0441,-3.9424,-3.9727,-3.9752,-3.9271,-3.9496,-3.9697,-3.9697,-3.9697,-3.9546,-3.9195,-3.902,-3.8743,-3.8434,-3.8059,-3.7802,-3.7629,-3.7402,-3.6934,-3.6298,-3.6164,-3.5793,-3.5353,-3.5433,-3.5182,-3.4655,-3.45,-3.4098,-3.3545,-3.3219,-3.2853,-3.2525,-3.2525,-3.1889,-3.1069,0.0,0.0,0.0,0.0,0.0,0.0,0.0,0.0,0.0,0.0,0.0,0.0,0.0,0.0,0.0,0.0,0.0,0.0,-3.4101,-3.4101,-3.4549,-3.5503,-3.5732,-3.6282,-3.7209,-3.8123,-3.9266,-4.0786,-4.2689,-4.342,-4.2984,-4.0795,-3.9156,-3.7933,-3.5639,-3.4718,-3.4848,-3.3773,-3.2894,-3.2061,-3.0508,-2.9337,0.0,0.0,0.0,0.0,0.0,0.0,0.0,0.0,-2.661,0.0,0.0,0.0,0.0,0.0,-2.575,-2.5258,-2.4775,-2.5014,-2.5451,-2.5561,0.0,0.0,-3.0181,-3.0859,-3.1537,-3.2968,-3.3445,-3.3721,-3.4098,0.0,0.0,-3.6832,-3.8064,-3.9222,-4.0109,-4.0084,-3.9956,-4.0109,-4.0081,-3.9725,-3.8843,-3.9247,-3.9373,-3.8944,-3.922,-3.9521,-3.9697,-3.9697,-3.9521,-3.9145,-3.8793,-3.8516,-3.8261,-3.7585,-3.6883,-3.6315,-3.6349,-3.5978,-3.5232,-3.5461,-3.5214,-3.4726,-3.4881,-3.4781,-3.4449,-3.4274,-3.3972,-3.3596,-3.3219,-3.3111,-3.3111,-3.3111,-3.2655,-3.2064,0.0,0.0,0.0,0.0,0.0,0.0,0.0,0.0,0.0,0.0,0.0,0.0,0.0,0.0,0.0,0.0,0.0,0.0,-3.4101,-3.4101,-3.4424,-3.5163,-3.5113,-3.6046,-3.812,-3.8888,-3.954,-4.0128,-4.3506,-4.3914,-4.1564,-4.0683,-3.9556,-3.8159,-3.5493,-3.5002,-3.6043,-3.4141,-3.3138,-3.2758,-3.1142,-2.9965,-2.9011,0.0,0.0,0.0,0.0,0.0,0.0,0.0,-2.6413,-2.6106,0.0,0.0,0.0,-2.7484,-2.693,-2.5942,-2.5179,-2.4978,-2.5095,-2.5519,0.0,0.0,-3.1587,-3.2215,-3.2842,-3.5031,-3.5082,-3.4751,-3.4751,-3.5132,0.0,-3.6329,-3.7813,-3.912,-3.9597,-3.9652,-3.9546,-3.9321,-3.9208,-3.8994,-3.8458,-3.8409,-3.8564,-3.8869,-3.8919,-3.9094,-3.9647,-3.9672,-3.9672,-3.9672,-3.8592,-3.799,-3.799,-3.6335,-3.5508,-3.5483,-3.4931,-3.468,-3.468,-3.468,-3.468,-3.4675,-3.4148,-3.3897,-3.3847,-3.3294,-3.3111,-3.3111,-3.3111,-3.3111,-3.3111,-3.3111,-3.3111,-3.3111,0.0,0.0,0.0,0.0,0.0,0.0,0.0,0.0,0.0,0.0,0.0,0.0,0.0,0.0,0.0,0.0,0.0,0.0,-3.4133,-3.4101,-3.4198,-3.4424,-3.489,-3.5272,-3.5433,-3.6415,-3.825,-4.1012,-4.1542,-4.1116,-3.9734,-3.8747,-3.7654,-3.6585,-3.578,-3.5228,-3.485,-3.3627,-3.3063,-3.2853,-3.1427,-3.0422,-2.9717,0.0,0.0,0.0,0.0,0.0,0.0,0.0,0.0,0.0,0.0,0.0,0.0,-2.6858,-2.6361,-2.5834,-2.5366,-2.5288,-2.5552,-2.6097,0.0,0.0,0.0,-3.2215,0.0,0.0,-3.5981,-3.5881,-3.5881,-3.6332,-3.6759,-3.691,-3.8015,-3.902,-3.9348,-3.9222,-3.9019,-3.8713,-3.9162,-3.9058,-3.7707,-3.8634,-3.8863,-3.7788,-3.804,-3.8341,-3.8492,-3.8492,-3.8341,-3.7939,-3.7588,-3.7437,-3.7437,-3.6558,-3.5931,-3.5483,-3.4931,-3.4525,-3.4148,-3.4148,-3.3922,-3.3571,-3.3796,-3.3671,-3.3363,-3.3316,-3.324,-3.3111,-3.3283,-3.324,-3.3111,-3.3111,-3.3111,-3.3111,0.0,0.0,0.0,0.0,0.0,0.0,0.0,0.0,0.0,0.0,-3.4739,-3.5086,0.0,0.0,0.0,-3.5973,-3.5234,0.0,0.0,-3.4262,-3.4101,-3.4101,-3.4806,-3.5245,-3.5304,-3.6627,-3.8017,-3.9428,-3.9632,-3.9193,-3.8176,-3.8153,-3.754,-3.6465,-3.6465,-3.5974,-3.5067,-3.3988,-3.3267,-3.271,-3.192,-3.1071,-3.0221,0.0,0.0,0.0,0.0,0.0,0.0,0.0,0.0,0.0,0.0,0.0,0.0,-2.69,-2.6417,-2.5892,-2.5741,-2.5858,0.0,-2.6952,-2.9026,-3.1336,-3.2867,0.0,0.0,0.0,-3.7337,-3.6983,-3.6782,-3.6832,-3.6908,-3.6908,-3.7662,-3.839,-3.8717,-3.8639,-3.841,-3.813,-3.8643,-3.8486,-3.7245,-3.8044,-3.8321,-3.7404,-3.7536,-3.7688,-3.7688,-3.7688,-3.7437,-3.6933,-3.6634,-3.6533,-3.6533,-3.578,-3.5228,-3.4831,-3.4324,-3.3897,-3.3571,-3.3571,-3.3395,-3.3136,-3.342,-3.3395,-3.3111,-3.3326,-3.3283,-3.3111,-3.3326,-3.3283,-3.3111,-3.3111,-3.3111,-3.3111,0.0,0.0,-3.4423,-3.4151,0.0,0.0,0.0,0.0,0.0,-3.4667,-3.4787,-3.5291,0.0,0.0,0.0,-3.7048,-3.5364,-3.4457,0.0,0.0,-3.4133,-3.4198,-3.4917,-3.5787,-3.6794,-3.8359,-3.8216,-3.6261,-3.7761,-3.7918,-3.6837,-3.8341,-3.8354,-3.7128,-3.7244,-3.6867,-3.6054,-3.4777,-3.3496,-3.2394,-3.2394,-3.1671,-3.0539,-2.9871,0.0,0.0,0.0,0.0,0.0,0.0,0.0,0.0,-2.6722,-2.658,-2.6461,-2.7307,-2.6791,-2.6021,-2.6228,-2.6492,-2.7025,-2.8008,-2.9955,0.0,-3.4424,-3.6483,-3.8216,-3.9195,0.0,-3.7889,-3.7287,-3.6857,-3.6531,-3.648,-3.6933,-3.7412,-3.7864,-3.7876,-3.7785,-3.7569,-3.7774,-3.7722,-3.718,-3.716,-3.7271,-3.7442,-3.7228,-3.7059,-3.696,-3.696,-3.6734,-3.6279,-3.573,-3.5433,-3.5433,-3.4424,-3.3897,-3.3897,-3.3345,-3.3111,-3.3111,-3.3111,-3.3111,-3.3111,-3.3111,-3.3111,-3.3111,-3.3326,-3.3283,-3.3111,-3.3326,-3.3283,-3.3111,-3.3111,-3.3111,-3.3111,0.0,0.0,-3.4448,-3.43,0.0,0.0,0.0,0.0,-3.4546,-3.4546,-3.4667,-3.5029,-3.5767,-3.5545,0.0,-3.6459,-3.5558,-3.5033,-3.5195,0.0,-3.436,-3.4936,-3.5927,-3.6309,-3.6062,-3.6477,-3.5948,-3.4455,-3.614,-3.6436,-3.5377,-3.6986,-3.704,-3.5857,-3.6838,-3.6373,-3.4748,-3.347,-3.2454,-3.1729,-3.1729,-3.1264,-3.0539,-2.9871,-2.9145,0.0,0.0,0.0,0.0,0.0,0.0,0.0,-2.6944,-2.675,-2.6292,-2.6313,-2.6072,-2.5871,-2.6091,-2.6646,0.0,-2.9051,-3.1411,-3.3947,-3.6157,-3.701,-3.7312,-3.7159,-3.7939,-3.8366,-3.7362,-3.7437,-3.7513,-3.7086,-3.7462,-3.7713,-3.7412,-3.7551,-3.7467,-3.6963,-3.7711,-3.7997,-3.7206,-3.7706,-3.7608,-3.6349,-3.6206,-3.5865,-3.5278,-3.5253,-3.5203,-3.5077,-3.4951,-3.4856,-3.4856,-3.4248,-3.3897,-3.3897,-3.3345,-3.3111,-3.3111,-3.3111,-3.3111,-3.3111,-3.3111,-3.3111,-3.3111,-3.3326,-3.3283,-3.3111,-3.3326,-3.3283,-3.3111,-3.3111,-3.3111,-3.3111,0.0,0.0,0.0,0.0,0.0,0.0,0.0,0.0,-3.489,-3.4562,-3.4618,-3.4939,-3.5538,-3.5233,0.0,0.0,-3.5299,-3.4975,-3.5687,-3.4716,-3.4586,-3.5687,-3.6424,-3.6426,-3.5613,-3.5826,-3.5211,-3.3638,-3.4296,-3.4456,-3.4259,-3.6008,-3.6315,-3.545,-3.6402,-3.5764,-3.3906,-3.3267,-3.2425,-3.1524,-3.1843,-3.1613,-3.0916,-2.9987,-2.9232,-2.8534,-2.7256,0.0,0.0,0.0,0.0,0.0,0.0,0.0,-2.6357,-2.6524,-2.6321,-2.6085,-2.6478,0.0,0.0,-3.0407,0.0,-3.4349,-3.6006,-3.6408,-3.6307,-3.6031,-3.7287,-3.8191,-3.7337,-3.7412,-3.7513,-3.7236,-3.7211,-3.7211,-3.7186,-3.7295,-3.7253,-3.6947,-3.7624,-3.7981,-3.7531,-3.7438,-3.7088,-3.6288,-3.5689,-3.5082,-3.4483,-3.4368,-3.4324,-3.4324,-3.4073,-3.4073,-3.4324,-3.3771,-3.3495,-3.3495,-3.3219,-3.3111,-3.3111,-3.3111,-3.3111,-3.3111,-3.3111,-3.3111,-3.3111,-3.3326,-3.3283,-3.3111,-3.3326,-3.3283,-3.3111,-3.3111,-3.3111,-3.3111,0.0,0.0,0.0,0.0,0.0,0.0,0.0,0.0,0.0,-3.4562,-3.4594,-3.4849,-3.5374,-3.4758,-3.4803,0.0,0.0,0.0,-3.6011,-3.4975,-3.4878,-3.6238,-3.6493,-3.6186,-3.5419,-3.5616,-3.4907,-3.3244,-3.2856,-3.2908,-3.3387,-3.5241,-3.588,-3.5421,-3.5909,-3.5154,-3.3474,-3.3271,-3.2454,-3.138,-3.1814,-3.1669,-3.1031,-2.9755,-2.8971,-2.8389,-2.7227,-2.682,-2.682,-2.682,0.0,0.0,0.0,0.0,-2.6424,-2.6967,-2.6656,-2.6268,-2.6858,0.0,-2.8975,-3.1562,-3.2993,0.0,-3.5107,-3.5357,-3.5357,-3.5357,-3.6511,-3.7412,-3.686,-3.6759,-3.6759,-3.6759,-3.643,-3.6377,-3.6835,-3.6981,-3.7001,-3.6954,-3.7396,-3.7717,-3.7612,-3.6781,-3.6264,-3.6296,-3.5321,-3.4502,-3.4121,-3.3979,-3.3897,-3.3941,-3.3413,-3.3345,-3.3897,-3.3244,-3.2993,-3.3111,-3.3111,-3.3111,-3.3111,-3.3111,-3.3018,-3.2918,-3.2918,-3.2918,-3.2986,-3.3232,-3.324,-3.3111,-3.3283,-3.324,-3.3111,-3.3111,-3.3111,-3.3111,0.0,0.0,0.0,0.0,0.0,0.0,0.0,0.0,0.0,0.0,-3.4521,-3.4554,-3.4628,-3.4439,-3.4576,-3.5292,-3.4586,-3.4457,-3.5292,0.0,0.0,-3.627,-3.5851,-3.5545,-3.5422,-3.4916,-3.4025,-3.2617,-3.3125,-3.3115,-3.2687,-3.4603,-3.5479,-3.5392,-3.5479,-3.4782,-3.3416,-3.2251,-3.1351,-3.0685,-3.019,-2.9929,-2.9697,-2.8449,-2.7898,-2.7724,-2.7055,-2.682,-2.682,-2.682,-2.682,0.0,0.0,0.0,-2.6312,-2.6424,-2.6162,-2.5953,-2.6519,0.0,-2.972,0.0,-3.2692,-3.347,0.0,0.0,-3.4826,0.0,-3.5332,-3.5658,-3.5152,-3.5052,-3.5052,-3.5052,-3.5183,-3.538,-3.568,-3.6279,-3.6593,-3.6436,-3.6845,-3.6907,-3.6384,-3.6235,-3.5843,-3.5176,-3.4794,-3.4356,-3.3811,-3.3839,-3.3985,-3.4135,-3.35,-3.3345,-3.3897,-3.2867,-3.2591,-3.3111,-3.3111,-3.3111,-3.3111,-3.3111,-3.2792,-3.2315,-3.2315,-3.2315,-3.2365,-3.291,-3.3111,-3.3111,-3.3111,-3.3111,-3.3111,-3.3111,-3.3111,-3.3111,0.0,0.0,0.0,0.0,0.0,0.0,0.0,0.0,0.0,0.0,0.0,-3.457,-3.4497,-3.4374,-3.438,-3.4579,-3.4295,-3.423,-3.4554,-3.4968,-3.5331,-3.5655,-3.5095,-3.4794,-3.4762,-3.4175,-3.3447,-3.2497,-3.2407,-3.2612,-3.3064,-3.3939,-3.452,-3.4806,-3.408,-3.347,-3.2832,-3.1555,-3.0626,-3.0016,-2.9697,-2.9668,-2.9609,0.0,0.0,-2.821,-2.7195,-2.682,-2.682,-2.682,-2.682,-2.682,-2.682,0.0,0.0,0.0,-2.6301,-2.651,-2.7375,-2.8024,-2.8926,0.0,-3.1772,-3.2416,-3.3545,-3.3796,-3.3897,-3.4198,-3.4198,-3.4274,-3.4605,-3.468,-3.4781,-3.5082,-3.5017,-3.5062,-3.5663,-3.5825,-3.5936,-3.6006,-3.6293,-3.6384,-3.6123,-3.5679,-3.5262,-3.4943,-3.4418,-3.3982,-3.3725,-3.3462,-3.3547,-3.3913,-3.2887,-3.2584,-3.3096,-3.2206,-3.1888,-3.2139,-3.2139,-3.2139,-3.2114,-3.1838,-3.1888,-3.2215,-3.2215,-3.2039,-3.1788,-3.2365,-3.2591,-3.2616,-3.2943,-3.3111,-3.3111,-3.3111,-3.3111,-3.3111,0.0,0.0,0.0,0.0,0.0,0.0,0.0,0.0,0.0,0.0,0.0,-3.4618,-3.4521,0.0,0.0,0.0,-3.4101,-3.4165,-3.436,-3.4741,-3.4949,-3.5091,-3.4431,-3.4013,-3.3927,-3.3432,-3.2839,-3.2258,-3.1898,-3.2286,-3.3271,-3.3416,-3.379,-3.437,-3.3412,-3.28,-3.2425,-3.1119,-3.0306,-2.9842,-2.9522,-2.9609,0.0,0.0,0.0,0.0,0.0,-2.7193,-2.728,-2.6907,-2.682,-2.682,-2.682,-2.682,0.0,0.0,0.0,0.0,0.0,0.0,-2.8032,-2.9611,-3.0471,-3.1181,0.0,0.0,-3.2641,-3.3319,-3.3144,-3.3144,-3.4123,-3.4299,-3.4449,-3.4896,-3.462,-3.4634,-3.546,-3.5405,-3.5344,-3.5546,-3.5783,-3.5835,-3.5678,-3.5115,-3.4795,-3.4795,-3.404,-3.3604,-3.3688,-3.3178,-3.311,-3.3537,-3.2367,-3.1975,-3.2491,-3.177,-3.1386,-3.1386,-3.1386,-3.1386,-3.1386,-3.0984,-3.1185,-3.1813,-3.1813,-3.1562,-3.126,-3.1938,-3.2215,-3.2265,-3.2842,-3.2993,-3.2867,-3.3018,-3.2935,-3.2692,0.0,0.0,0.0,0.0,0.0,0.0,0.0,0.0,0.0,0.0,0.0,-3.4497,-3.4497,-3.4275,-3.4101,-3.4101,-3.4101,-3.4392,-3.5098,-3.4522,-3.4355,-3.4803,-3.3906,0.0,-3.2971,-3.264,-3.2165,-3.1539,-3.2168,-3.2463,-3.2571,-3.3213,-3.379,-3.4399,-3.4341,-3.3645,-3.2425,0.0,-3.0569,-3.0452,0.0,0.0,0.0,0.0,0.0,0.0,0.0,-2.8318,-2.8583,-2.7251,-2.682,-2.682,-2.682,-2.682,-2.682,0.0,0.0,0.0,0.0,-2.6712,0.0,-2.779,-2.8733,-2.9808,0.0,0.0,-3.1035,-3.2089,-3.229,-3.2441,-3.3043,-3.3169,-3.3255,-3.347,-3.3512,-3.3776,-3.4553,-3.4822,-3.4926,-3.4926,-3.521,-3.5129,-3.4528,-3.445,-3.445,-3.445,-3.368,-3.3327,-3.3599,-3.3163,-3.3014,-3.3245,-3.2245,-3.1975,-3.2491,-3.177,-3.1386,-3.1386,-3.1386,-3.1386,-3.1386,-3.1361,-3.111,-3.0708,-3.0708,-3.0683,-3.0733,-3.1788,-3.2215,-3.2265,-3.2842,-3.2742,-3.2315,-3.2867,-3.239,-3.1637,0.0,0.0,0.0,0.0,0.0,0.0,0.0,0.0,0.0,0.0,0.0,0.0,0.0,-3.43,-3.4201,-3.4101,-3.4101,-3.4198,-3.4457,-3.423,-3.4104,-3.4104,-3.3593,-3.3176,-3.2912,-3.2578,-3.2104,-3.1508,-3.1719,-3.2199,-3.2832,-3.3281,-3.3718,-3.412,-3.3482,-3.2948,-3.2425,-3.1119,0.0,-2.9958,-3.0105,0.0,0.0,0.0,0.0,-3.1605,-2.9609,-2.8911,-2.8816,-2.8322,-2.7569,0.0,0.0,0.0,0.0,0.0,0.0,0.0,0.0,0.0,0.0,-2.8254,-2.8871,-2.939,-2.9806,-3.0586,-3.1238,-3.1191,-3.1461,-3.1738,-3.1964,-3.229,-3.2684,-3.3147,-3.3022,-3.3013,-3.3453,-3.404,-3.4286,-3.4116,-3.446,-3.4633,-3.4424,-3.4272,-3.4189,-3.4189,-3.3586,-3.3234,-3.3342,-3.2616,-3.2227,-3.2306,-3.1344,-3.0851,-3.0777,-3.0522,-3.0357,-3.0357,-3.0357,-3.0357,-3.0357,-3.0357,-3.0256,-3.008,-3.008,-3.008,-3.0156,-3.0884,-3.1185,-3.1286,-3.2164,-3.219,-3.1763,-3.2315,-3.2265,-3.1913,0.0,0.0,0.0,0.0,0.0,0.0,0.0,0.0,0.0,0.0,0.0,0.0,0.0,0.0,-3.4716,-3.4489,-3.423,-3.4101,-3.4101,-3.4101,-3.3949,-3.3565,-3.3414,-3.3123,-3.2746,-3.2523,-3.2104,-3.1508,-3.1508,-3.1842,-3.248,-3.2727,-3.3048,-3.3448,-3.2346,-3.2106,0.0,-3.1351,-3.0539,-2.9987,-3.0631,-3.0983,-3.1098,0.0,-3.1444,-3.2566,-3.0509,-2.987,-2.993,-2.9432,-2.8704,0.0,0.0,0.0,0.0,0.0,0.0,0.0,-2.7272,0.0,0.0,0.0,-2.8511,-2.8597,-2.9538,-3.0085,-3.0381,-3.0407,-3.0659,-3.0925,-3.0849,-3.1025,-3.1533,-3.2575,-3.2507,-3.2418,-3.2787,-3.3245,-3.3446,-3.3326,-3.3613,-3.3822,-3.3822,-3.3699,-3.3617,-3.3617,-3.3057,-3.2745,-3.2745,-3.1954,-3.1472,-3.1434,-3.0765,-3.0216,-2.9895,-3.0019,-2.998,-2.9804,-2.998,-2.998,-2.9804,-2.9804,-2.9804,-2.9804,-2.9804,-2.9804,-2.9829,-3.0382,-3.0608,-3.0708,-3.1587,-3.1612,-3.121,-3.1738,-3.1712,-3.1436,0.0,0.0,0.0,0.0,0.0,0.0,0.0,0.0,0.0,-3.5079,0.0,0.0,0.0,0.0,0.0,-3.5208,-3.4522,-3.4133,-3.4101,-3.4101,-3.3848,-3.3335,-3.3309,-3.3011,-3.2382,-3.2382,-3.2076,-3.148,-3.148,-3.1516,-3.1526,0.0,-3.1845,-3.2425,-3.1148,-3.1264,-3.2365,-3.1698,-3.1119,-3.0657,-3.0955,-3.1156,-3.1363,-3.2317,-3.3144,-3.3527,-3.1341,-3.1257,-3.1945,-3.0455,-3.0221,0.0,0.0,0.0,0.0,0.0,0.0,0.0,0.0,0.0,0.0,0.0,0.0,0.0,-2.9652,-2.9067,-2.8372,-2.9666,-2.9923,-2.9884,-2.9782,-2.9429,-2.9808,-3.1661,-3.1807,-3.1888,-3.2593,-3.254,-3.246,-3.2672,-3.2672,-3.2698,-3.2698,-3.2698,-3.2698,-3.2698,-3.2137,-3.1797,-3.1797,-3.1287,-3.0924,-3.0698,-3.0482,-3.0292,-3.0151,-3.045,-3.0357,-2.9829,-3.0357,-3.0331,-2.9804,-2.9804,-2.9804,-2.9804,-2.9779,-2.9779,-2.9829,-3.0357,-3.0583,-3.0633,-3.116,-3.106,-3.0658,-3.1185,-3.0733,-3.0055,0.0,0.0,0.0,0.0,0.0,0.0,0.0,0.0,0.0,0.0,0.0,0.0,-3.3988,-3.4408,-3.4646,-3.4478,-3.4742,-3.4651,-3.4133,-3.4101,-3.3848,-3.3335,-3.3309,-3.2904,-3.2107,0.0,0.0,0.0,0.0,0.0,0.0,0.0,0.0,-3.2159,-3.1066,-3.051,-3.0364,-2.9755,-3.0161,-3.1237,-3.1131,-3.166,-3.2476,-3.2152,-3.2687,-3.3374,-3.1949,-3.1558,-3.1669,-3.1452,-3.0569,-2.9315,0.0,0.0,0.0,0.0,0.0,0.0,-2.6859,0.0,0.0,0.0,0.0,0.0,-2.7643,-2.806,-2.8261,-2.7816,-2.8265,-2.866,-2.8584,-2.8596,-2.8831,-2.9511,-3.0393,-3.1203,-3.1746,-3.228,-3.2463,-3.2084,-3.2437,-3.2698,-3.2698,-3.2579,-3.254,-3.2698,-3.2019,-3.1643,-3.1797,-3.1287,-3.0924,-3.0698,-3.066,-3.065,-3.0671,-3.0745,-3.0691,-3.0382,-3.0532,-3.0331,-2.9804,-2.9804,-2.9804,-2.9779,-2.9352,-2.9402,-2.9804,-2.9955,-3.003,-3.008,-3.0608,-3.0507,-3.0131,-3.106,-3.121,-3.0959,0.0,0.0,0.0,-3.5461,0.0,0.0,-3.5646,-3.5494,-3.5342,0.0,0.0,0.0,-3.4422,-3.4718,-3.4974,-3.5058,-3.4877,-3.4716,-3.4586,-3.4262,-3.3848,-3.3335,-3.3171,-3.2866,-3.2391,-3.2004,0.0,0.0,0.0,0.0,0.0,0.0,0.0,0.0,-3.0192,-2.9581,-2.9174,-2.8274,-2.9,-3.0742,-3.1278,-3.1953,-3.2645,-3.262,-3.3035,-3.3536,-3.2828,-3.2754,-3.297,-3.2864,-3.1622,0.0,0.0,0.0,0.0,0.0,0.0,0.0,0.0,0.0,0.0,0.0,0.0,0.0,-2.821,-2.835,-2.8312,-2.8066,-2.843,-2.8612,-2.8083,-2.8125,-2.8273,-2.8434,-2.9197,-2.9928,-3.05,-3.1003,-3.1235,-3.1119,-3.138,-3.1627,-3.1627,-3.1512,-3.1408,-3.1287,-3.0861,-3.0745,-3.1066,-3.0779,-3.0701,-3.0823,-3.0736,-3.0739,-3.0842,-3.1105,-3.0947,-3.0399,-3.0773,-3.0532,-2.9804,-3.003,-3.0005,-2.9779,-2.9679,-2.9704,-2.9804,-2.9804,-2.9804,-2.9829,-3.0156,-3.008,-2.988,-3.0482,-3.0733,-3.0708,0.0,0.0,-3.5123,-3.5522,-3.4956,-3.4523,0.0,0.0,0.0,0.0,-3.5027,-3.5207,-3.5872,0.0,0.0,0.0,-3.4977,-3.4433,-3.4961,-3.4311,-3.3694,-3.3176,-3.2935,-3.2777,-3.27,-3.1926,0.0,0.0,0.0,0.0,0.0,0.0,0.0,0.0,-2.8855,-2.8564,-2.8418,-2.743,-2.8041,-2.9755,-3.119,-3.1946,-3.2298,-3.3258,-3.3649,-3.3662,-3.3664,-3.4209,-3.4813,-3.4116,-3.2852,0.0,0.0,0.0,0.0,0.0,-2.8245,0.0,0.0,0.0,0.0,0.0,-2.8396,0.0,-2.9696,-2.9088,-2.8368,-2.9087,-2.9251,-2.8938,-2.7839,-2.7795,-2.7908,-2.785,-2.8134,-2.8551,-2.9231,-2.931,-2.9457,-2.9944,-2.9996,-2.9996,-2.9996,-2.9996,-2.9823,-2.9362,-2.931,-2.951,-2.997,-2.9996,-3.0257,-3.0869,-3.0707,-3.0672,-3.0801,-3.1391,-3.1193,-3.0189,-3.0954,-3.0823,-2.9804,-3.0306,-3.0256,-2.9804,-3.0231,-3.0181,-2.9818,-2.9729,-2.9729,-2.9804,-2.9804,-2.9804,-2.9804,-2.9854,-2.993,-3.003,-3.6032,-3.5668,-3.5415,-3.6023,-3.6001,-3.6107,0.0,0.0,0.0,-3.6817,-3.5955,-3.5522,0.0,0.0,0.0,0.0,0.0,0.0,0.0,-3.3084,-3.2547,-3.2188,-3.2652,-3.2399,-3.1397,-3.1723,-3.1543,0.0,0.0,0.0,0.0,0.0,0.0,0.0,-2.8187,-2.7636,-2.7227,-2.8011,-2.8911,-2.9871,-3.0163,-3.0983,-3.2128,-3.2992,-3.3086,-3.2789,-3.3175,-3.3475,-3.3661,-3.3264,-3.2753,-3.2106,0.0,0.0,0.0,-2.8709,0.0,0.0,0.0,0.0,0.0,0.0,-2.8248,0.0,-2.7363,-2.7475,-2.7623,-2.6996,-2.7081,-2.7102,-2.6623,-2.7013,-2.7227,-2.6532,-2.7242,-2.8215,-2.9153,-2.931,-2.9327,-2.9431,-2.9457,-2.9457,-2.9457,-2.9457,-2.9405,-2.9336,-2.931,-2.9362,-2.9431,-2.9457,-2.9719,-3.0257,-3.022,-3.0551,-3.1332,-3.1487,-3.1291,-3.0747,-3.0936,-3.0565,-2.9804,-2.9905,-2.9905,-2.9779,-2.9428,-2.9529,-2.9999,-2.9353,-2.9377,-2.9804,-2.9804,-2.9804,-2.9854,-3.0281,-3.0708,-3.1035,-3.6724,-3.6151,-3.5864,-3.6718,0.0,0.0,0.0,0.0,0.0,-3.6792,-3.6564,-3.6199,0.0,0.0,0.0,0.0,0.0,0.0,0.0,0.0,-3.2311,-3.1671,-3.2002,-3.2047,-3.1694,-3.1425,-3.1389,-3.1555,0.0,0.0,0.0,0.0,0.0,0.0,0.0,0.0,-2.8354,-2.8244,-2.8682,-2.958,-3.0543,-3.181,-3.3143,-3.3657,-3.3682,-3.349,-3.4004,-3.4136,-3.4064,-3.4114,-3.3628,0.0,-3.1845,-3.1555,-3.1235,0.0,-2.9813,-3.0335,0.0,0.0,0.0,-2.8797,-2.8681,0.0,0.0,-2.7614,-2.7732,-2.7882,-2.7797,-2.7654,-2.7564,-2.7583,-2.7431,-2.6876,-2.7449,-2.8147,-2.8622,-2.8515,-2.8482,-2.8664,-2.8795,-2.8865,-2.8865,-2.8865,-2.8726,-2.8438,-2.8412,-2.8516,-2.8865,-2.8865,-2.9222,-3.0074,-3.01,-3.0481,-3.1227,-3.1397,-3.1242,-3.0804,-3.0851,-3.0581,-2.9934,-3.0237,-3.0172,-2.9779,-2.9669,-2.9618,-2.9606,-2.8936,-2.9,-2.953,-2.9717,-2.9804,-2.9829,-3.0105,-3.0357,-3.0608,-3.7192,-3.6555,-3.6227,-3.6998,0.0,0.0,0.0,0.0,0.0,-3.6286,-3.6932,0.0,0.0,0.0,0.0,0.0,0.0,0.0,0.0,-3.3312,-3.2266,-3.1525,-3.1476,-3.1752,-3.2288,-3.1305,-3.1206,-3.2135,0.0,0.0,0.0,0.0,0.0,0.0,0.0,0.0,0.0,0.0,0.0,-2.9634,-3.1482,-3.2665,-3.3402,-3.391,-3.4071,-3.4093,-3.4879,-3.4931,-3.4718,-3.5078,-3.452,-3.3561,-3.289,-3.2774,0.0,0.0,0.0,0.0,0.0,0.0,0.0,0.0,0.0,-2.8941,0.0,0.0,0.0,-2.9029,-2.8739,0.0,0.0,0.0,-2.7678,-2.7324,-2.7772,-2.8098,-2.7937,-2.7854,-2.7874,-2.8074,-2.8407,-2.8543,-2.8305,-2.8271,-2.8054,-2.7516,-2.7523,-2.7766,-2.8203,-2.8229,-2.8752,-2.9892,-2.9944,-3.0294,-3.0973,-3.1253,-3.1164,-3.0698,-3.0778,-3.0558,-3.0088,-3.0505,-3.0363,-2.9818,-2.9999,-2.9744,-2.9212,-2.8678,-2.8754,-2.9288,-2.9529,-2.9704,-2.9804,-2.9804,-2.993,-3.0156,-3.6786,-3.6584,-3.6291,-3.6099,0.0,0.0,0.0,0.0,0.0,-3.6228,0.0,0.0,-3.7288,-3.7028,-3.7052,0.0,0.0,-3.4177,-3.464,-3.293,0.0,-3.178,-3.1595,-3.1592,-3.1864,-3.1531,-3.1206,-3.083,0.0,0.0,0.0,0.0,0.0,0.0,-2.9229,0.0,0.0,0.0,-3.0631,-3.0984,-3.234,-3.1851,-3.0475,-3.2056,-3.2795,-3.312,-3.4456,-3.4702,-3.4428,-3.4486,-3.4428,-3.4196,0.0,-3.3732,-3.3935,-3.2568,0.0,0.0,0.0,0.0,0.0,0.0,-2.9987,-2.9784,-2.7547,0.0,-2.7753,-2.7898,0.0,-2.712,0.0,0.0,0.0,0.0,-2.736,-2.8127,-2.7418,-2.8239,-2.8697,-2.8159,-2.8853,-2.8986,-2.7967,-2.7894,-2.7768,-2.7523,-2.7656,-2.7716,-2.7628,-2.7594,-2.815,-2.9327,-2.9379,-2.9902,-3.0973,-3.1052,-3.0939,-3.0698,-3.0522,-3.033,-3.0088,-2.9971,-2.9893,-2.9793,-2.9454,-2.9388,-2.9397,-2.8835,-2.8937,-2.9437,-2.9114,-2.9352,-2.9804,-2.9804,-3.0382,-3.116,-3.6094,-3.6137,-3.5921,-3.5398,0.0,0.0,0.0,0.0,0.0,-3.6867,0.0,-3.7936,-3.7936,-3.7777,-3.7682,-3.7739,-3.6207,-3.5086,-3.4735,-3.3397,0.0,0.0,-3.1649,-3.1618,-3.1835,-3.127,-3.1032,-3.1119,-3.0103,0.0,0.0,0.0,0.0,0.0,-2.9636,0.0,-3.025,0.0,-3.1013,-3.025,-3.2034,-3.1295,-2.9533,-3.2897,-3.4116,-3.3908,-3.3184,-3.3555,-3.4332,-3.3859,-3.3997,-3.437,0.0,0.0,0.0,-3.3062,0.0,0.0,0.0,0.0,0.0,0.0,0.0,0.0,-2.7839,-2.7521,-2.7695,-2.7695,0.0,0.0,0.0,0.0,0.0,0.0,-2.7399,-2.7882,-2.7529,0.0,-2.8894,-2.8529,-2.8962,-2.9121,-2.8707,-2.8744,-2.8744,-2.868,-2.8744,-2.8583,-2.8091,-2.8059,-2.8451,-2.9284,-2.931,-2.9859,-3.0973,-3.0973,-3.0962,-3.0887,-3.0698,-3.029,-2.9757,-3.0164,-3.0025,-2.9441,-2.9625,-2.9527,-2.9155,-2.8563,-2.8666,-2.9171,-2.8768,-2.9076,-2.9804,-2.9804,-3.0281,-3.0959,-3.4859,0.0,-3.5303,-3.4819,0.0,0.0,0.0,0.0,-3.6431,-3.6954,-3.7455,-3.7899,-3.8248,-3.8535,-3.8684,-3.8569,-3.7612,-3.661,-3.5726,-3.4443,-3.3351,-3.2547,-3.203,-3.1911,-3.222,-3.1301,-3.0974,-3.1264,0.0,0.0,0.0,0.0,0.0,0.0,0.0,-3.072,-3.1691,0.0,-3.1806,-3.0598,-3.2295,-3.1868,-3.0518,-3.3343,-3.4196,-3.3796,-3.2326,-3.2676,-3.3687,-3.3101,-3.3276,-3.3756,-3.3756,-3.3756,-3.3636,0.0,0.0,0.0,-3.2258,0.0,0.0,-3.0904,-3.0507,-3.0104,-2.813,-2.784,-2.8014,-2.8188,-2.8217,0.0,0.0,0.0,0.0,0.0,0.0,-2.7934,0.0,-2.8254,0.0,-2.8733,-2.9006,-2.9275,-2.956,-2.9532,-2.9504,-2.9504,-2.9535,-2.9345,-2.8807,-2.861,-2.8852,-2.9539,-2.9223,-2.9666,-3.0973,-3.0843,-3.0843,-3.0973,-3.0811,-3.039,-2.9854,-3.0378,-3.0136,-2.9311,-2.9663,-2.9408,-2.8731,-2.8326,-2.8472,-2.8872,-2.8737,-2.9176,-2.9804,-2.9804,-3.0131,-3.0658,-3.3056,-3.381,0.0,0.0,-3.4439,0.0,0.0,-3.3964,-3.4288,-3.6083,-3.6516,-3.709,-3.8347,-3.9424,-4.0307,-4.0931,-3.995,-3.8979,-3.8115,-3.6107,-3.4712,-3.4159,-3.3059,-3.2643,-3.296,-3.1972,-3.1206,0.0,0.0,0.0,0.0,0.0,0.0,0.0,0.0,-3.0866,-3.0953,-3.3075,-3.3615,-3.3238,-3.386,-3.413,-3.397,-3.227,-3.1621,-3.17,-3.2417,-3.2461,-3.2182,-3.2146,-3.2146,-3.2182,-3.2182,-3.2182,-3.2182,0.0,0.0,0.0,-3.2715,-3.3342,-3.3382,-3.0728,-3.0326,-3.0104,-2.813,-2.8216,-2.8826,-2.9407,0.0,0.0,0.0,0.0,0.0,0.0,0.0,0.0,0.0,0.0,0.0,-2.8575,-2.901,-2.956,-3.0205,-2.987,-2.9563,-2.9504,-2.9687,-2.9687,-2.9473,-2.8839,-2.9023,-3.0207,-2.908,-2.9284,-3.0973,-3.0424,-3.0424,-3.0973,-3.0811,-3.0698,-3.0672,-3.0482,-3.0061,-2.946,-2.9166,-2.8705,-2.8135,-2.8317,-2.8481,-2.8666,-2.9255,-2.9618,-2.9804,-2.9804,-3.0131,-3.0608,-3.3367,0.0,0.0,-3.2586,-3.3185,-3.3802,-3.3806,-3.4346,-3.5485,-3.7551,-3.8238,-3.9396,-4.1695,-4.2256,-4.2475,-4.2357,-4.1594,-4.0472,-3.8918,-3.7198,-3.6182,-3.598,-3.4167,-3.3456,-3.4094,-3.2844,-3.1845,0.0,0.0,0.0,0.0,0.0,0.0,0.0,0.0,-3.1541,0.0,0.0,0.0,0.0,0.0,-3.2783,-3.3754,-3.2423,-3.2126,-3.239,-3.1653,-3.1763,-3.2209,-3.17,-3.1746,-3.211,-3.211,-3.2345,-3.2515,-3.188,-3.2359,-3.3001,-3.2562,-3.3252,-3.3539,-3.1247,-3.0987,-3.0792,-2.8699,-2.9281,-2.9979,-2.9175,0.0,0.0,0.0,0.0,0.0,0.0,0.0,0.0,0.0,0.0,-2.7541,-2.7426,0.0,0.0,-2.9521,-3.0251,-3.0572,-3.0192,-3.0632,-3.0688,-3.0208,-2.9894,-2.9926,-3.0303,-2.968,-2.9871,-3.0973,-3.0641,-3.0641,-3.0973,-3.0924,-3.0641,-3.0103,-3.0028,-2.9718,-2.9176,-2.8924,-2.885,-2.8881,-2.8679,-2.8908,-2.9387,-2.9335,-2.958,-2.9972,-2.9856,-3.0357,-3.1276,-3.3823,-3.3236,-3.2644,-3.2109,-3.2643,-3.3313,-3.374,-3.4893,-3.6422,-3.8333,-3.9534,-4.1106,-4.3466,-4.3992,-4.4045,-4.3723,-4.318,-4.187,-3.9594,-3.8572,-3.7641,-3.6694,-3.5419,-3.4765,-3.4872,-3.3612,0.0,0.0,0.0,-3.1148,0.0,0.0,0.0,0.0,0.0,-3.1951,-3.2489,-3.4295,-3.4453,0.0,0.0,-3.2493,-3.339,-3.2164,-3.1981,-3.2216,-3.1089,-3.1086,-3.1505,-3.0985,-3.1022,-3.1294,-3.1294,-3.1521,-3.171,-3.1287,-3.1837,-3.2515,-3.228,-3.3014,-3.3423,-3.1563,-3.1424,-3.126,-2.9458,-3.0053,-3.0829,-3.0111,0.0,0.0,0.0,0.0,0.0,0.0,0.0,0.0,0.0,-2.6885,0.0,-2.6581,0.0,0.0,0.0,0.0,-3.0272,-3.0823,0.0,0.0,0.0,-3.0614,-3.0493,-3.098,-3.0041,-2.9969,-3.0861,-3.0603,-3.0603,-3.0785,-3.0887,-3.0603,-3.0128,-3.0054,-2.9652,-2.8999,-2.9016,-2.8898,-2.8776,-2.8939,-2.9226,-2.956,-2.9541,-2.972,-2.9972,-2.9856,-3.0396,-3.1357,-3.4237,-3.3306,-3.2646,-3.2932,-3.2733,-3.2977,-3.4167,-3.5503,-3.6946,-3.8479,-4.0393,-4.2203,-4.3702,-4.462,-4.5102,-4.5072,-4.4642,-4.319,-4.0464,-4.0226,-3.9066,-3.6629,-3.6813,-3.6453,-3.5439,-3.4339,0.0,0.0,0.0,0.0,0.0,0.0,0.0,0.0,-3.1814,0.0,-3.3079,-3.4375,-3.51,-3.5359,-3.3831,-3.3206,-3.3058,-3.1569,-3.1111,-3.1176,-3.0829,-3.047,-3.0126,-3.0126,-2.9972,-2.9804,-2.9804,-2.9804,-2.993,-3.0457,-3.1009,-3.1518,-3.1924,-3.2673,-3.3088,-3.1686,-3.1575,-3.1495,-3.0314,-3.0599,-3.1349,-3.2131,-3.182,0.0,0.0,0.0,0.0,0.0,0.0,0.0,0.0,0.0,-2.5661,-2.6045,-2.7314,0.0,0.0,0.0,0.0,0.0,0.0,0.0,0.0,-3.1002,-3.0797,-3.219,-3.0228,-2.9684,-3.0748,-3.034,-3.0229,-3.0406,-3.0622,-3.0698,-3.0698,-3.0457,-2.9839,-2.9041,-2.9303,-2.8846,-2.7985,-2.905,-2.9374,-2.9301,-2.9859,-2.9997,-2.9829,-2.9854,-3.0324,-3.1026,-3.3849,-3.3476,-3.3086,-3.2698,-3.2984,-3.3358,-3.3707,-3.5729,-3.7982,-3.9967,-4.211,-4.4198,-4.6152,-4.6552,-4.6506,-4.6028,-4.5382,-4.4515,-4.331,-4.173,-4.0837,-4.0808,-3.8779,-3.7783,-3.808,-3.6163,-3.4878,-3.4204,0.0,0.0,-3.2716,0.0,0.0,0.0,0.0,0.0,-3.3079,-3.4375,-3.51,-3.5359,-3.3831,-3.3325,-3.3373,-3.1665,-3.1187,-3.1397,-3.1031,-3.0773,-3.0508,-3.0368,-3.0177,-3.0011,-2.9856,-3.008,-3.0432,-3.0583,-3.126,-3.1989,-3.2138,-3.2668,-3.298,-3.2158,-3.1906,-3.1746,-3.1287,-3.1929,-3.2503,-3.2046,-3.2218,-3.2162,-3.1254,-3.0262,0.0,0.0,0.0,0.0,0.0,0.0,0.0,-2.5958,0.0,0.0,0.0,0.0,0.0,0.0,0.0,0.0,-3.2407,-3.1404,-3.1504,-3.3025,-3.1795,-3.1296,-3.1736,-3.0817,-3.0429,-3.0622,-3.052,-3.0482,-3.0444,-2.9794,-2.9537,-2.9548,-2.8791,-2.8777,-2.9269,-2.9098,-2.9366,-2.9885,-2.9883,-3.0069,-3.0457,-3.0834,-3.11,-3.1458,-3.4449,-3.4313,-3.4114,-3.347,-3.4675,-3.5618,-3.5355,-3.6551,-3.8267,-4.0515,-4.2613,-4.4436,-4.5776,-4.6728,-4.716,-4.68,-4.5873,-4.4844,-4.3837,-4.2693,-4.1709,-4.0972,-3.9698,-3.8948,-3.8817,-3.6902,0.0,-3.5213,0.0,0.0,-3.289,0.0,0.0,0.0,0.0,-3.2672,-3.3015,-3.4407,-3.5067,-3.5004,-3.4041,-3.3585,0.0,-3.199,-3.1382,-3.1253,-3.1066,-3.0887,-3.0698,-3.0584,-3.0356,-3.0088,-2.9972,-3.0083,-3.0306,-3.0532,-3.121,-3.1913,-3.2139,-3.2641,-3.2993,-3.2667,-3.2533,-3.232,-3.1939,-3.2323,-3.271,-3.2564,-3.2425,-3.231,-3.2162,-3.0802,0.0,0.0,0.0,0.0,0.0,0.0,0.0,0.0,-2.6497,-2.6605,-2.5689,-2.7849,-2.9094,-2.8599,0.0,-3.0132,-3.1604,-3.1426,-3.1854,-3.3153,-3.2415,-3.1941,-3.1846,-3.1107,-3.0625,-3.0318,-3.0279,-3.0254,-3.0254,-2.9808,-2.9566,-2.9497,-2.9149,-2.9137,-2.94,-2.9315,-2.958,-2.9997,-3.0094,-3.0633,-3.1361,-3.1637,-3.1845,-3.2095,-3.5061,-3.5179,-3.5194,-3.4428,-3.6616,-3.8407,-3.8048,-3.8105,-3.894,-4.0967,-4.2957,-4.4223,-4.437,-4.6147,-4.7279,-4.7189,-4.6022,-4.4773,-4.3607,-4.3359,-4.2225,-3.9869,-4.0256,-3.9978,-3.8811,-3.7173,-3.62,0.0,0.0,0.0,0.0,0.0,0.0,0.0,0.0,0.0,0.0,-3.4623,-3.5004,-3.471,-3.4413,-3.3871,-3.3108,-3.2362,-3.1626,-3.0973,-3.0973,-3.0887,-3.0736,-3.0698,-3.047,-3.0164,-3.0164,-3.0011,-2.9943,-3.0572,-3.1035,-3.1537,-3.2164,-3.2692,-3.3111,-3.3111,-3.3111,-3.2943,-3.2441,-3.2315,-3.2525,-3.3286,-3.2498,-3.2228,-3.3939,-3.2031,0.0,0.0,0.0,0.0,0.0,0.0,0.0,0.0,0.0,0.0,-2.5371,-2.698,-2.8148,-2.8251,-2.8421,-2.9174,-3.0716,-3.1234,-3.1984,-3.3006,-3.2581,-3.2123,-3.1659,-3.1266,-3.0712,-2.9957,-3.0036,-3.0049,-3.0049,-3.0049,-2.9809,-2.9352,-2.9859,-2.9694,-2.9114,-2.9578,-2.9829,-2.9955,-3.0507,-3.1336,-3.2215,-3.2215,-3.2391,-3.2751,-3.3397,-3.4497,-3.5151,-3.3852,-3.6078,-3.8531,-4.0014,-4.1755,-4.3089,-4.3456,-4.5376,-4.6506,-4.5938,-4.6728,-4.71,-4.6488,-4.5753,-4.5454,-4.5741,-4.4216,-4.3319,-4.3369,-4.2013,-4.1085,-4.0876,-3.837,-3.6674,0.0,0.0,0.0,0.0,0.0,0.0,0.0,0.0,0.0,-3.4545,-3.5011,0.0,-3.5294,-3.4576,-3.3871,-3.3108,-3.2362,-3.1626,-3.0973,-3.0973,-3.0999,-3.0924,-3.0773,-3.066,-3.0584,-3.0406,-3.0216,-3.0252,-3.1225,-3.1458,-3.1612,-3.2641,-3.2993,-3.3111,-3.3111,-3.3111,-3.3043,-3.2943,-3.2918,-3.3003,-3.3131,-3.26,-3.2086,-3.197,-3.1048,-3.0131,0.0,0.0,0.0,0.0,0.0,0.0,0.0,0.0,-2.9003,-2.6212,-2.7541,-2.8128,-2.7089,-2.736,-2.8799,-3.1662,-3.1213,-3.1777,-3.3715,-3.3143,-3.2691,-3.2487,-3.1047,-3.0508,-3.0943,-3.02,-2.9856,-2.9856,-2.9856,-2.9883,-2.9935,-2.9883,-2.9883,-2.9897,-2.9831,-3.0055,-3.0532,-3.106,-3.1662,-3.2215,-3.2215,-3.2558,-3.3071,-3.4878,-3.5488,-3.6096,-3.612,-3.8348,-4.0609,-4.2248,-4.434,-4.5347,-4.4251,-4.4721,-4.503,-4.4661,-4.5908,-4.6531,-4.5843,-4.5484,-4.5304,-4.5233,-4.4007,-4.329,-4.3299,-4.2073,-4.1235,-4.0876,-3.8531,-3.7045,-3.6473,-3.4074,0.0,0.0,0.0,0.0,0.0,0.0,-3.3336,0.0,0.0,-3.534,-3.5537,-3.5473,-3.4935,-3.4133,-3.3445,-3.2452,-3.1418,-3.1418,-3.1418,-3.138,-3.1329,-3.1189,-3.1112,-3.0997,-3.1048,-3.1173,-3.1388,-3.1711,-3.2146,-3.2702,-3.2995,-3.3111,-3.3111,-3.3111,-3.3111,-3.3111,-3.3111,-3.3111,-3.3111,-3.2842,-3.239,-3.1537,-3.0798,-3.0416,-3.0734,-3.0813,-3.1227,0.0,0.0,-3.1674,0.0,0.0,0.0,0.0,-2.7622,-2.7912,-2.7479,-2.7625,-2.8973,-3.1687,-3.1419,-3.2057,-3.3922,-3.3945,-3.3556,-3.2837,-3.1679,-3.0907,-3.0624,-3.006,-2.9804,-2.9804,-2.9895,-2.9934,-2.9934,-2.9934,-2.9934,-2.9959,-3.0145,-3.0708,-3.1461,-3.1712,-3.2164,-3.2667,-3.2667,-3.2842,-3.3111,-3.7086,-3.7269,-3.7739,-3.8884,-4.1015,-4.2912,-4.3924,-4.5776,-4.6488,-4.481,-4.4232,-4.3905,-4.3607,-4.5221,-4.6052,-4.5364,-4.5155,-4.4855,-4.4347,-4.3648,-4.312,-4.262,-4.1841,-4.1145,-4.0606,-3.8512,-3.7173,-3.6778,-3.4378,-3.2656,-3.1556,0.0,0.0,0.0,0.0,0.0,-3.4366,-3.4935,-3.5418,-3.581,-3.6309,-3.5945,-3.504,-3.457,-3.3383,-3.198,-3.198,-3.198,-3.2006,-3.2098,-3.1889,-3.1604,-3.1734,-3.1875,-3.1949,-3.1703,-3.2107,-3.2682,-3.2742,-3.2929,-3.3154,-3.3111,-3.3111,-3.3111,-3.3111,-3.3111,-3.3111,-3.3111,-3.3111,-3.2742,-3.1587,-3.1124,-3.1074,-3.1569,-3.1361,-3.1627,-3.3114,0.0,0.0,0.0,0.0,0.0,-2.7812,-2.7776,-2.8044,-2.8306,-2.8253,-2.9145,-3.1297,-3.1531,-3.2201,-3.3485,-3.3962,-3.3614,-3.2371,-3.1841,-3.1176,-3.0317,-2.9945,-2.9804,-2.9804,-2.9972,-2.9934,-2.9804,-3.0099,-3.0186,-3.0181,-3.0733,-3.1461,-3.2215,-3.234,-3.2667,-3.3111,-3.3111,-3.3111,-3.3111,-3.875,-3.935,-3.9936,-4.0495,-4.2515,-4.4086,-4.4072,-4.5388,-4.6309,-4.613,-4.6578,-4.6429,-4.5244,-4.5843,-4.6052,-4.5364,-4.4736,-4.4377,-4.4317,-4.3648,-4.326,-4.32,-4.2043,-4.1354,-4.1294,-3.8751,-3.7033,-3.6268,-3.4679,-3.3191,-3.1772,0.0,0.0,0.0,-3.3264,-3.4188,-3.5129,-3.5195,-3.5681,-3.641,-3.6477,-3.5945,-3.5096,-3.504,-3.4001,-3.262,-3.262,-3.262,-3.2659,-3.2979,-3.25,-3.1876,-3.2398,-3.2124,-3.1746,-3.2754,-3.2926,-3.2941,-3.3267,-3.336,-3.3326,-3.3154,-3.3111,-3.3111,-3.3111,-3.3111,-3.3111,-3.3111,-3.3111,-3.2742,-3.1587,-3.2181,-3.2641,-3.1967,-3.2568,-3.3806,-3.578,0.0,-3.3559,-3.2954,0.0,0.0,-2.7888,-2.858,-2.9223,-2.9181,-2.8619,-2.9001,-3.0687,-3.1298,-3.1728,-3.2025,-3.1875,-3.146,-3.0646,-3.0381,-3.056,-3.1072,-3.0225,-2.9804,-2.9804,-2.9818,-2.9818,-2.9829,-3.0306,-3.0809,-3.1286,-3.1838,-3.2114,-3.2265,-3.2792,-3.3061,-3.3111,-3.3111,-3.3111,-3.3111,-4.0248,-4.0515,-4.1139,-4.2495,-4.3617,-4.4695,-4.5848,-4.619,-4.6172,-4.5753,-4.5603,-4.5304,-4.4766,-4.4945,-4.4855,-4.4167,-4.4227,-4.4137,-4.3708,-4.3439,-4.329,-4.329,-4.2073,-4.1422,-4.1422,-3.8781,-3.7182,-3.6807,-3.4949,-3.3456,-3.2386,-3.2324,-3.2708,-3.3544,-3.3876,-3.4653,-3.5792,-3.5955,-3.6619,-3.7614,-3.7614,-3.7054,-3.6136,-3.5836,-3.4667,-3.3221,-3.3221,-3.3221,-3.3326,-3.3751,-3.3331,-3.2668,-3.2942,-3.3057,-3.312,-3.3372,-3.3535,-3.3611,-3.359,-3.3471,-3.3368,-3.3154,-3.3111,-3.3111,-3.3111,-3.3111,-3.3111,-3.3111,-3.3111,-3.2943,-3.2491,-3.2215,-3.2396,-3.3271,-3.3143,-3.3675,-3.5641,0.0,0.0,-3.3706,0.0,-3.2333,-2.9968,-2.941,-2.9261,-2.9421,-2.8886,-2.9175,-3.0629,-3.1054,-3.1397,-3.1729,-3.2437,-3.2409,-3.1558,-3.1668,-3.1487,-3.1018,-3.0867,-3.0583,-3.0281,-3.0281,-3.0281,-3.0306,-3.0507,-3.111,-3.1913,-3.2114,-3.2416,-3.2742,-3.2993,-3.3111,-3.3111,-3.3111,-3.3111,-3.3111,-4.1692,-4.19,-4.2624,-4.4381,-4.4803,-4.5454,-4.707,-4.6411,-4.5633,-4.5334,-4.4556,-4.4107,-4.4287,-4.4317,-4.4137,-4.3618,-4.3828,-4.3838,-4.3319,-4.329,-4.32,-4.306,-4.1983,-4.1294,-4.1085,-3.8871,-3.7545,-3.7262,-3.5518,-3.4142,-3.3218,-3.3187,-3.3574,-3.4354,-3.4453,-3.5261,-3.6548,-3.6533,-3.7225,-3.8392,-3.8392,-3.796,-3.7214,-3.6598,-3.5581,-3.4567,-3.4285,-3.423,-3.4283,-3.4571,-3.4069,-3.3343,-3.3509,-3.369,-3.382,-3.386,-3.3986,-3.4105,-3.381,-3.3598,-3.3428,-3.3154,-3.3111,-3.3111,-3.3111,-3.3111,-3.3111,-3.3111,-3.3111,-3.3111,-3.3111,-3.229,-3.2044,-3.3318,-3.2961,-3.3117,-3.4607,-3.4754,0.0,-3.3257,-3.28,-3.1998,-3.0426,-2.9553,-2.9129,-2.9292,-2.9541,-3.0133,-3.1041,-3.1504,-3.1716,-3.1739,-3.264,-3.2637,-3.1637,-3.2215,-3.2042,-3.1153,-3.1332,-3.121,-3.0834,-3.0834,-3.0934,-3.1085,-3.1085,-3.1612,-3.2466,-3.2466,-3.2717,-3.3111,-3.3111,-3.3111,-3.3111,-3.3111,-3.3111,-3.3111,-4.309,-4.3868,-4.4706,-4.601,-4.6249,-4.6531,-4.7219,-4.5633,-4.4556,-4.5214,-4.4167,-4.3559,-4.4257,-4.4317,-4.4317,-4.4317,-4.3678,-4.329,-4.329,-4.329,-4.303,-4.244,-4.1782,-4.1085,-4.0427,-3.908,-3.8063,-3.7404,-3.6577,-3.5495,-3.4188,-3.4058,-3.4416,-3.5201,-3.5198,-3.6011,-3.7375,-3.6746,-3.7225,-3.8392,-3.8392,-3.8316,-3.8089,-3.7204,-3.6866,-3.6749,-3.5976,-3.5655,-3.5655,-3.5386,-3.4594,-3.3742,-3.4272,-3.384,-3.3364,-3.4158,-3.4397,-3.4314,-3.3852,-3.3725,-3.3598,-3.3197,-3.3111,-3.3111,-3.3111,-3.3111,-3.3111,-3.3111,-3.3111,-3.3111,-3.3111,-3.2591,-3.2014,-3.1527,-3.1863,-3.2428,-3.2962,-3.2275,0.0,-3.1362,-2.9935,-2.8759,-2.8192,-2.8665,-2.8947,-2.8799,-3.0804,-3.2075,-3.2077,-3.2905,-3.2904,-3.1813,-3.1745,-3.1229,-3.0126,-3.1179,-3.1696,-3.1696,-3.1468,-3.1386,-3.1386,-3.1386,-3.1687,-3.219,-3.219,-3.2516,-3.3111,-3.3111,-3.3111,-3.3111,-3.3111,-3.3111,-3.3111,-3.3111,-3.3111,-3.3111,-4.3269,-4.3868,-4.4436,-4.4885,-4.5723,-4.6339,-4.6621,-4.5693,-4.5065,-4.5274,-4.4137,-4.3379,-4.3589,-4.3618,-4.3618,-4.3618,-4.3409,-4.329,-4.329,-4.329,-4.303,-4.244,-4.1782,-4.1085,-4.0397,-3.908,-3.8302,-3.8093,-3.6816,-3.5763,-3.4901,-3.5314,-3.5707,-3.6111,-3.6529,-3.7187,-3.8063,-3.7853,-3.8302,-3.905,-3.8571,-3.8316,-3.8107,-3.7382,-3.7025,-3.6816,-3.5976,-3.5696,-3.5575,-3.4909,-3.4246,-3.381,-3.4272,-3.4017,-3.3663,-3.422,-3.4397,-3.4356,-3.4063,-3.3852,-3.3641,-3.3368,-3.3197,-3.3111,-3.3111,-3.3111,-3.3111,-3.3111,-3.3111,-3.3111,-3.3111,-3.2918,-3.2616,-3.2039,-3.2089,-3.2138,-3.1924,-3.2123,-3.193,-3.0943,-3.1403,-3.14,-3.0314,-3.006,-2.9839,-2.9646,-3.0072,-3.005,-2.9393,-3.1672,-3.2231,-3.0565,-3.1617,-3.2021,-3.1559,-3.2248,-3.2424,-3.2047,-3.2382,-3.234,-3.1964,-3.1964,-3.2039,-3.2215,-3.2215,-3.2541,-3.3111,-3.3111,-3.3111,-3.3111,-3.3111,-3.3111,-3.3111,-3.3111,-3.3111,-3.3111,-4.329,-4.3828,-4.4317,-4.4317,-4.5005,-4.5663,-4.5903,-4.5155,-4.4646,-4.4885,-4.3988,-4.329,-4.329,-4.329,-4.329,-4.329,-4.329,-4.329,-4.329,-4.329,-4.294,-4.2081,-4.1632,-4.0965,-4.0038,-3.92,-3.8661,-3.8392,-3.7242,-3.6428,-3.6041,-3.6458,-3.6854,-3.7195,-3.7345,-3.7913,-3.8751,-3.8512,-3.8631,-3.899,-3.8571,-3.8198,-3.7849,-3.7383,-3.7308,-3.7347,-3.6459,-3.6148,-3.6016,-3.5196,-3.4371,-3.3768,-3.4147,-3.3979,-3.3683,-3.423,-3.4397,-3.4314,-3.4021,-3.3852,-3.3641,-3.3368,-3.3197,-3.3144,-3.3345,-3.3395,-3.3395,-3.3395,-3.3219,-3.3111,-3.3111,-3.2893,-3.2641,-3.2265,-3.2039,-3.1788,-3.1436,-3.1716,-3.1453,-3.0105,-3.0829,-3.1052,-3.0099,-2.9736,-2.9614,-2.9926,-3.0254,-2.996,-2.8926,-3.1155,-3.2051,-3.1026,-3.2118,-3.2567,-3.2215,-3.2792,-3.2893,-3.2541,-3.2893,-3.2893,-3.2541,-3.2541,-3.2541,-3.2541,-3.2541,-3.2742,-3.3111,-3.3111,-3.3111,-3.3111,-3.3111,-3.3111,-3.3111,-3.3111,-3.3111,-3.3111,-4.3439,-4.3958,-4.4377,-4.4317,-4.4347,-4.4556,-4.5125,-4.4197,-4.3589,-4.4227,-4.3708,-4.329,-4.329,-4.329,-4.329,-4.329,-4.329,-4.329,-4.329,-4.329,-4.2761,-4.1542,-4.1414,-4.0786,-3.9529,-3.9403,-3.908,-3.8392,-3.7793,-3.7464,-3.7404,-3.7464,-3.7793,-3.8362,-3.7793,-3.8242,-3.9379,-3.8721,-3.8452,-3.8452,-3.8362,-3.7973,-3.7421,-3.7214,-3.7657,-3.8275,-3.7282,-3.6894,-3.6777,-3.5976,-3.4827,-3.3768,-3.4021,-3.3836,-3.3556,-3.4189,-3.4356,-3.4272,-3.3852,-3.3725,-3.3598,-3.324,-3.3136,-3.3294,-3.3822,-3.3922,-3.3897,-3.3897,-3.347,-3.3111,-3.3111,-3.2641,-3.2265,-3.2215,-3.1763,-3.1386,-3.1377,-3.1109,-3.0441,-2.9214,-2.881,-2.858,-2.8323,-2.8298,-2.8699,-2.9704,-3.1074,-3.1343,-3.0202,-3.1292,-3.22,-3.2686,-3.2969,-3.2817,-3.229,-3.2817,-3.3111,-3.3111,-3.3111,-3.3111,-3.3111,-3.3111,-3.3111,-3.3111,-3.3111,-3.3111,-3.3111,-3.3111,-3.3111,-3.3111,-3.3111,-3.3111,-3.3111,-3.3111,-3.3111,-3.3111,-4.4825,-4.4945,-4.4915,-4.4407,-4.4736,-4.4945,-4.4586,-4.4287,-4.4137,-4.4287,-4.3708,-4.329,-4.329,-4.329,-4.329,-4.329,-4.329,-4.329,-4.329,-4.329,-4.297,-4.2201,-4.1692,-4.0995,-4.0187,-3.9679,-3.908,-3.8392,-3.8242,-3.7913,-3.7434,-3.7913,-3.8242,-3.8392,-3.8781,-3.9074,-3.9373,-3.926,-3.917,-3.908,-3.8063,-3.7853,-3.8053,-3.6856,-3.7246,-3.8275,-3.7282,-3.6894,-3.6777,-3.5976,-3.495,-3.4021,-3.4272,-3.4147,-3.3937,-3.3894,-3.3894,-3.3894,-3.3979,-3.3725,-3.3471,-3.3556,-3.3629,-3.3847,-3.4399,-3.4198,-3.3897,-3.3897,-3.347,-3.3111,-3.3111,-3.2968,-3.2742,-3.229,-3.1763,-3.1342,-3.1034,-3.0961,-3.0759,-3.0466,-3.0773,-3.0911,-3.0647,-3.0256,-2.9955,-2.9804,-3.0112,-3.0353,-3.0486,-3.1189,-3.168,-3.1954,-3.2702,-3.3061,-3.2867,-3.3061,-3.3111,-3.3111,-3.3111,-3.3111,-3.3111,-3.3111,-3.3111,-3.3111,-3.3111,-3.3111,-3.3111,-3.3111,-3.3111,-3.3111,-3.3111,-3.3111,-3.3111,-3.3111,-3.3111,-3.3111,-4.4466,-4.4646,-4.4646,-4.3947,-4.4127,-4.4287,-4.3888,-4.3828,-4.3828,-4.3828,-4.3529,-4.329,-4.329,-4.329,-4.329,-4.329,-4.329,-4.329,-4.329,-4.329,-4.303,-4.244,-4.1782,-4.1085,-4.0397,-3.9738,-3.923,-3.8871,-3.8871,-3.8661,-3.8332,-3.8691,-3.8871,-3.8871,-3.926,-3.9373,-3.9373,-3.9373,-3.923,-3.8835,-3.7736,-3.7187,-3.691,-3.6288,-3.6432,-3.686,-3.6508,-3.6346,-3.6227,-3.5372,-3.4688,-3.4131,-3.423,-3.4105,-3.3894,-3.3768,-3.3852,-3.3979,-3.381,-3.3725,-3.376,-3.3862,-3.4268,-3.4726,-3.4981,-3.4675,-3.4274,-3.4274,-3.3646,-3.3111,-3.3111,-3.3111,-3.2893,-3.2315,-3.1763,-3.1291,-3.0936,-3.0618,-3.0503,-3.0874,-3.1099,-3.1297,-3.1402,-3.1135,-3.0834,-3.0557,-3.0758,-3.0909,-3.0959,-3.1738,-3.2248,-3.2357,-3.2852,-3.3111,-3.3111,-3.3111,-3.3111,-3.3111,-3.3111,-3.3111,-3.3111,-3.3111,-3.3111,-3.3111,-3.3111,-3.3111,-3.3111,-3.3111,-3.3111,-3.3111,-3.3111,-3.3111,-3.3111,-3.3111,-3.3111,-3.3111,-4.3708,-4.4077,-4.4257,-4.3559,-4.3529,-4.3559,-4.3469,-4.3439,-4.3439,-4.3439,-4.3349,-4.329,-4.329,-4.329,-4.329,-4.329,-4.329,-4.329,-4.329,-4.329,-4.309,-4.256,-4.1811,-4.1115,-4.0546,-3.9798,-3.9373,-3.9373,-3.9373,-3.9373,-3.9373,-3.9373,-3.9373,-3.9373,-3.9373,-3.9373,-3.9373,-3.9373,-3.908,-3.8471,-3.7572,-3.6548,-3.5607,-3.5686,-3.5507,-3.5265,-3.5593,-3.5696,-3.5575,-3.4827,-3.4397,-3.4173,-3.4173,-3.3979,-3.381,-3.387,-3.415,-3.4334,-3.3666,-3.3845,-3.4246,-3.4412,-3.4911,-3.5408,-3.5483,-3.5082,-3.47,-3.4625,-3.3847,-3.3212,-3.3093,-3.3111,-3.2893,-3.2315,-3.1804,-3.1332,-3.0936,-3.0363,-3.0223,-3.0936,-3.0929,-3.106,-3.1587,-3.1562,-3.1537,-3.1637,-3.1989,-3.2039,-3.1662,-3.2541,-3.3111,-3.3111,-3.3111,-3.3111,-3.3111,-3.3111,-3.3111,-3.3111,-3.3111,-3.3111,-3.3111,-3.3111,-3.3111,-3.3111,-3.3111,-3.3111,-3.3111,-3.3111,-3.3111,-3.3111,-3.3111,-3.3111,-3.3111,-3.3111,-3.3111,-3.3111,-4.5005,-4.5065,-4.4945,-4.4287,-4.4616,-4.4796,-4.4257,-4.4127,-4.4127,-4.4127,-4.3648,-4.329,-4.329,-4.329,-4.329,-4.329,-4.329,-4.329,-4.329,-4.329,-4.326,-4.314,-4.2013,-4.1324,-4.1235,-4.0038,-3.9373,-3.9373,-3.9373,-3.9373,-3.9373,-3.9373,-3.9373,-3.9373,-3.9373,-3.9373,-3.9373,-3.9373,-3.9313,-3.9128,-3.7777,-3.707,-3.678,-3.5377,-3.525,-3.5787,-3.573,-3.5696,-3.5655,-3.5534,-3.4991,-3.4356,-3.4356,-3.4314,-3.4376,-3.4658,-3.4745,-3.4684,-3.4134,-3.4255,-3.4699,-3.5455,-3.5234,-3.4931,-3.5382,-3.5082,-3.46,-3.4123,-3.3897,-3.3621,-3.3169,-3.3111,-3.2893,-3.2315,-3.1886,-3.1453,-3.1001,-3.0809,-3.0961,-3.1519,-3.1811,-3.219,-3.2767,-3.2365,-3.229,-3.2792,-3.2441,-3.239,-3.2792,-3.2993,-3.3111,-3.3111,-3.3111,-3.3111,-3.3111,-3.3111,-3.3111,-3.3111,-3.3111,-3.3111,-3.3111,-3.3111,-3.3111,-3.3111,-3.3111,-3.3111,-3.3111,-3.3111,-3.3111,-3.3111,-3.3111,-3.3111,-3.3111,-3.3111,-3.3111,-3.3111,-4.4317,-4.4796,-4.5095,-4.4436,-4.4556,-4.4796,-4.4825,-4.4556,-4.4317,-4.4317,-4.4047,-4.3678,-4.3319,-4.329,-4.329,-4.329,-4.329,-4.329,-4.329,-4.329,-4.329,-4.329,-4.2073,-4.1055,-4.0337,-3.9738,-3.9373,-3.9373,-3.9373,-3.9373,-3.9373,-3.9373,-3.9373,-3.9373,-3.9373,-3.9373,-3.9373,-3.9373,-3.9373,-3.9307,-3.8216,-3.7275,-3.6504,-3.5586,-3.4979,-3.4711,-3.4901,-3.4991,-3.4991,-3.4991,-3.4703,-3.445,-3.4763,-3.4868,-3.4956,-3.5271,-3.5321,-3.5123,-3.4641,-3.4709,-3.5009,-3.5494,-3.5173,-3.4831,-3.5382,-3.4831,-3.4299,-3.4324,-3.3872,-3.347,-3.352,-3.3269,-3.2893,-3.2315,-3.1845,-3.1473,-3.1341,-3.0983,-3.1069,-3.201,-3.2147,-3.2441,-3.3061,-3.2842,-3.2792,-3.3068,-3.2817,-3.2792,-3.3111,-3.3197,-3.3197,-3.3111,-3.3111,-3.3111,-3.3111,-3.3111,-3.3111,-3.3111,-3.3111,-3.3111,-3.3111,-3.3111,-3.3111,-3.3111,-3.3111,-3.3111,-3.3111,-3.3111,-3.3111,-3.3111,-3.3111,-3.3111,-3.3111,-3.3111,-3.3111,-3.3111,-4.3409,-4.4137,-4.4736,-4.4377,-4.4436,-4.4706,-4.5214,-4.5005,-4.4736,-4.4556,-4.4407,-4.4107,-4.3589,-4.3379,-4.329,-4.329,-4.329,-4.329,-4.329,-4.329,-4.329,-4.329,-4.2222,-4.0995,-3.9679,-3.9649,-3.9559,-3.9373,-3.9559,-3.9559,-3.9373,-3.9589,-3.9559,-3.9373,-3.9373,-3.9373,-3.9373,-3.9373,-3.9373,-3.9265,-3.8285,-3.7244,-3.6161,-3.5573,-3.4684,-3.3849,-3.4272,-3.4402,-3.4366,-3.4627,-3.4627,-3.4627,-3.5227,-3.5452,-3.5557,-3.5823,-3.5948,-3.5852,-3.52,-3.5065,-3.5181,-3.5507,-3.506,-3.472,-3.5273,-3.4645,-3.4067,-3.4449,-3.3947,-3.3545,-3.3847,-3.3545,-3.3043,-3.2315,-3.1905,-3.166,-3.164,-3.1281,-3.1392,-3.2306,-3.2424,-3.2591,-3.3086,-3.3111,-3.3111,-3.3111,-3.3111,-3.3111,-3.3111,-3.324,-3.3283,-3.3154,-3.3111,-3.3111,-3.3111,-3.3194,-3.3194,-3.3111,-3.3219,-3.3194,-3.3111,-3.3111,-3.3111,-3.3111,-3.3111,-3.3111,-3.3111,-3.3111,-3.3111,-3.3111,-3.3111,-3.3111,-3.3111,-3.3111,-3.2993,-3.2935,-4.3409,-4.3379,-4.3618,-4.4227,-4.4825,-4.5244,-4.5274,-4.5813,-4.5933,-4.5304,-4.4706,-4.4287,-4.4257,-4.3648,-4.329,-4.329,-4.329,-4.329,-4.329,-4.329,-4.329,-4.329,-4.2671,-4.1722,-4.0367,-4.0337,-4.0038,-3.9373,-4.0038,-4.0008,-3.9403,-4.0038,-4.0008,-3.9373,-3.9373,-3.9373,-3.9373,-3.9373,-3.9301,-3.898,-3.7548,-3.6827,-3.6397,-3.4827,-3.4246,-3.4382,-3.453,-3.4401,-3.4286,-3.5331,-3.5331,-3.4969,-3.5564,-3.5895,-3.6061,-3.6212,-3.6779,-3.7097,-3.5807,-3.5283,-3.5257,-3.6038,-3.5239,-3.4407,-3.499,-3.4635,-3.4161,-3.3991,-3.4299,-3.4449,-3.3997,-3.3872,-3.347,-3.239,-3.2315,-3.2196,-3.1502,-3.1978,-3.2306,-3.2256,-3.2692,-3.3043,-3.3111,-3.3111,-3.3111,-3.3111,-3.3111,-3.3111,-3.3111,-3.3111,-3.3197,-3.3368,-3.3197,-3.3111,-3.3111,-3.3596,-3.3571,-3.3136,-3.3596,-3.3571,-3.3111,-3.3111,-3.3111,-3.3111,-3.3111,-3.3111,-3.3111,-3.3111,-3.3111,-3.3111,-3.3111,-3.3111,-3.3111,-3.3111,-3.2742,-3.234,-4.3349,-4.3618,-4.4018,-4.4257,-4.4855,-4.5304,-4.5304,-4.5873,-4.5933,-4.4825,-4.4825,-4.4616,-4.3768,-4.3439,-4.329,-4.329,-4.329,-4.329,-4.329,-4.329,-4.315,-4.2761,-4.253,-4.1961,-4.1025,-4.0995,-4.0876,-4.0636,-4.0876,-4.0666,-4.0038,-4.0277,-4.0038,-3.9373,-3.9373,-3.9373,-3.9373,-3.9373,-3.9265,-3.898,-3.7919,-3.7011,-3.6294,-3.5087,-3.4371,-3.4014,-3.4435,-3.4512,-3.4521,-3.5318,-3.5377,-3.53,-3.591,-3.618,-3.6328,-3.6876,-3.6954,-3.6722,-3.6367,-3.6045,-3.5916,-3.6211,-3.5519,-3.4863,-3.5239,-3.5027,-3.4768,-3.4896,-3.4781,-3.4731,-3.4856,-3.4349,-3.3746,-3.3319,-3.2709,-3.2349,-3.2458,-3.2357,-3.2424,-3.2692,-3.2943,-3.3111,-3.3111,-3.3111,-3.3111,-3.3111,-3.3111,-3.3111,-3.3111,-3.3111,-3.324,-3.3598,-3.3386,-3.3434,-3.3788,-3.3884,-3.3796,-3.3596,-3.3445,-3.3294,-3.3111,-3.3111,-3.3111,-3.3111,-3.3111,-3.3111,-3.3111,-3.3111,-3.3111,-3.3111,-3.3111,-3.3111,-3.3043,-3.2667,-3.2416,-3.219,-4.3319,-4.3648,-4.4077,-4.4287,-4.4676,-4.5065,-4.5274,-4.5873,-4.5861,-4.4766,-4.5005,-4.4885,-4.3738,-4.3409,-4.329,-4.329,-4.329,-4.329,-4.329,-4.329,-4.315,-4.2671,-4.2671,-4.241,-4.1752,-4.1722,-4.1632,-4.1422,-4.1632,-4.1354,-4.0696,-4.0696,-4.0367,-3.9709,-3.9463,-3.9337,-3.9301,-3.9301,-3.9156,-3.8863,-3.8263,-3.7399,-3.6358,-3.5733,-3.4936,-3.4297,-3.4754,-3.4831,-3.4893,-3.5922,-3.5962,-3.5711,-3.6612,-3.661,-3.6458,-3.7052,-3.6875,-3.6518,-3.6647,-3.659,-3.6402,-3.6314,-3.5717,-3.5283,-3.5541,-3.5355,-3.5173,-3.5429,-3.5207,-3.5056,-3.5433,-3.4881,-3.4299,-3.3947,-3.3395,-3.3068,-3.3294,-3.3144,-3.3093,-3.3294,-3.3345,-3.3269,-3.3136,-3.3111,-3.3111,-3.3111,-3.3111,-3.3111,-3.3111,-3.3154,-3.3326,-3.3598,-3.3649,-3.3842,-3.4179,-3.4073,-3.3884,-3.3646,-3.3445,-3.3244,-3.3111,-3.3111,-3.3111,-3.3111,-3.3111,-3.3111,-3.3111,-3.3111,-3.3111,-3.3111,-3.3111,-3.3111,-3.3061,-3.2641,-3.2365,-3.219,-4.3409,-4.329,-4.3499,-4.4197,-4.4317,-4.4526,-4.5185,-4.5873,-4.6082,-4.5364,-4.5304,-4.5035,-4.4377,-4.3678,-4.329,-4.329,-4.329,-4.329,-4.329,-4.329,-4.329,-4.329,-4.329,-4.303,-4.241,-4.241,-4.2081,-4.1384,-4.2081,-4.2081,-4.1384,-4.1422,-4.1025,-4.0367,-3.9709,-3.9301,-3.9119,-3.9119,-3.89,-3.8514,-3.8486,-3.781,-3.677,-3.6593,-3.6009,-3.543,-3.5491,-3.534,-3.5398,-3.7501,-3.7182,-3.6182,-3.771,-3.7387,-3.6452,-3.6615,-3.6709,-3.6709,-3.6709,-3.6709,-3.6629,-3.6371,-3.5853,-3.5507,-3.5816,-3.5491,-3.5173,-3.5454,-3.5508,-3.5508,-3.5508,-3.5508,-3.5157,-3.4098,-3.4374,-3.4525,-3.3972,-3.4374,-3.4525,-3.3972,-3.3897,-3.3696,-3.3144,-3.3093,-3.3093,-3.3093,-3.3136,-3.3093,-3.3111,-3.3283,-3.3386,-3.3386,-3.3944,-3.4179,-3.4179,-3.4179,-3.3839,-3.3093,-3.3646,-3.3596,-3.3111,-3.3111,-3.3111,-3.3111,-3.3111,-3.3111,-3.3111,-3.3111,-3.3111,-3.3111,-3.3111,-3.3111,-3.3111,-3.3111,-3.2692,-3.229,-4.3319,-4.329,-4.3499,-4.4197,-4.4317,-4.4377,-4.4586,-4.5574,-4.5861,-4.4766,-4.5005,-4.5035,-4.4377,-4.3678,-4.329,-4.329,-4.329,-4.329,-4.329,-4.329,-4.329,-4.329,-4.329,-4.32,-4.306,-4.303,-4.294,-4.2761,-4.294,-4.2701,-4.2081,-4.1632,-4.1025,-4.0397,-4.0187,-3.9987,-3.9795,-3.9802,-3.9815,-3.974,-3.8714,-3.8291,-3.8116,-3.6727,-3.607,-3.5841,-3.5603,-3.5454,-3.5541,-3.6574,-3.7073,-3.7312,-3.7769,-3.7222,-3.6452,-3.6615,-3.6593,-3.6546,-3.6875,-3.6849,-3.6684,-3.6599,-3.6447,-3.6324,-3.6269,-3.6261,-3.6185,-3.6128,-3.6107,-3.6107,-3.6107,-3.6107,-3.5881,-3.5132,-3.5157,-3.5056,-3.455,-3.4625,-3.463,-3.45,-3.4474,-3.4399,-3.4248,-3.4223,-3.4223,-3.4223,-3.3872,-3.3495,-3.3093,-3.3154,-3.324,-3.3386,-3.3563,-3.3639,-3.3639,-3.3871,-3.3909,-3.3646,-3.342,-3.3244,-3.3111,-3.3111,-3.3111,-3.3111,-3.3111,-3.3111,-3.3111,-3.3111,-3.3111,-3.3111,-3.3111,-3.3111,-3.3061,-3.2616,-3.2365,-3.219,-4.3349,-4.3499,-4.3798,-4.4257,-4.4526,-4.4706,-4.4706,-4.5633,-4.5843,-4.4496,-4.4885,-4.4945,-4.3977,-4.3529,-4.329,-4.329,-4.329,-4.329,-4.329,-4.329,-4.329,-4.329,-4.329,-4.329,-4.329,-4.329,-4.329,-4.329,-4.329,-4.312,-4.2731,-4.2111,-4.1602,-4.1175,-4.0905,-4.0674,-4.0478,-4.041,-4.0389,-4.0393,-3.9629,-3.928,-3.9116,-3.8215,-3.743,-3.6757,-3.6488,-3.6181,-3.5952,-3.6701,-3.7315,-3.773,-3.7361,-3.6875,-3.6455,-3.6799,-3.6827,-3.683,-3.7343,-3.7346,-3.7177,-3.7177,-3.7121,-3.7017,-3.6779,-3.6827,-3.6799,-3.6455,-3.6405,-3.6405,-3.6405,-3.6405,-3.6182,-3.5583,-3.5683,-3.568,-3.5082,-3.5228,-3.5278,-3.5031,-3.5006,-3.4906,-3.4705,-3.468,-3.468,-3.468,-3.4399,-3.4073,-3.3746,-3.3721,-3.3708,-3.3611,-3.3611,-3.351,-3.3283,-3.3481,-3.3571,-3.3571,-3.3244,-3.3111,-3.3111,-3.3111,-3.3111,-3.3111,-3.3111,-3.3111,-3.3111,-3.3111,-3.3111,-3.3111,-3.3111,-3.3111,-3.3086,-3.2692,-3.2566,-3.2516,-4.3499,-4.3958,-4.4436,-4.4496,-4.4945,-4.5304,-4.5364,-4.5933,-4.5831,-4.4646,-4.5005,-4.4915,-4.3678,-4.3439,-4.3379,-4.3379,-4.3319,-4.329,-4.329,-4.329,-4.329,-4.329,-4.329,-4.329,-4.329,-4.329,-4.329,-4.329,-4.329,-4.329,-4.329,-4.2671,-4.241,-4.2381,-4.1782,-4.136,-4.1169,-4.0976,-4.0812,-4.0695,-4.0964,-4.056,-3.9957,-4.0393,-3.9508,-3.8024,-3.7933,-3.7407,-3.6756,-3.7612,-3.7795,-3.7546,-3.6832,-3.6528,-3.6581,-3.7086,-3.7262,-3.7362,-3.7864,-3.8015,-3.8015,-3.8065,-3.7884,-3.7551,-3.7235,-3.7186,-3.7036,-3.6531,-3.6405,-3.6405,-3.6405,-3.6455,-3.6257,-3.5658,-3.6081,-3.6232,-3.5658,-3.6031,-3.6182,-3.5633,-3.5583,-3.5382,-3.4926,-3.4876,-3.4851,-3.4801,-3.4756,-3.4731,-3.468,-3.468,-3.45,-3.3997,-3.3922,-3.3696,-3.3262,-3.3212,-3.3162,-3.3111,-3.3111,-3.3111,-3.3111,-3.3111,-3.3111,-3.3111,-3.3111,-3.3111,-3.3111,-3.3111,-3.3111,-3.3111,-3.3111,-3.3111,-3.3111,-3.3111,-3.3111,-3.3136,-4.4227,-4.4616,-4.5244,-4.5741,-4.5574,-4.5484,-4.6022,-4.619,-4.619,-4.5891,-4.6022,-4.595,-4.5651,-4.4695,-4.4067,-4.4067,-4.3589,-4.329,-4.329,-4.329,-4.329,-4.329,-4.329,-4.329,-4.329,-4.329,-4.329,-4.329,-4.329,-4.329,-4.329,-4.2671,-4.241,-4.2381,-4.2261,-4.2016,-4.1822,-4.1813,-4.1873,-4.1895,-4.1007,-4.1,-4.1459,-4.0322,-3.9955,-3.9913,-3.9166,-3.8765,-3.863,-3.881,-3.7933,-3.6879,-3.783,-3.7607,-3.7111,-3.7663,-3.7839,-3.7839,-3.7965,-3.8015,-3.8115,-3.8567,-3.8316,-3.7762,-3.7335,-3.7186,-3.7036,-3.6531,-3.6405,-3.6405,-3.6405,-3.6757,-3.6835,-3.6282,-3.6659,-3.681,-3.6257,-3.6329,-3.6355,-3.6207,-3.6182,-3.6132,-3.6053,-3.6053,-3.583,-3.5357,-3.5332,-3.5132,-3.4705,-3.468,-3.4675,-3.455,-3.4123,-3.4048,-3.4349,-3.3947,-3.3495,-3.3111,-3.3111,-3.3111,-3.3111,-3.3111,-3.3111,-3.3111,-3.3111,-3.3111,-3.3111,-3.3111,-3.3111,-3.3111,-3.3111,-3.3111,-3.3111,-3.3111,-3.3111,-3.3144,-4.4855,-4.5065,-4.5514,-4.6202,-4.6292,-4.6262,-4.6322,-4.6279,-4.6082,-4.5454,-4.5364,-4.5203,-4.4904,-4.4556,-4.4317,-4.4317,-4.3678,-4.329,-4.329,-4.329,-4.329,-4.329,-4.329,-4.329,-4.329,-4.329,-4.329,-4.329,-4.329,-4.329,-4.329,-4.3,-4.2821,-4.2821,-4.2821,-4.2742,-4.2624,-4.2545,-4.2594,-4.2629,-4.1861,-4.1858,-4.2281,-4.1328,-4.0927,-4.0717,-4.0087,-3.9299,-3.8541,-3.8541,-3.7748,-3.6905,-3.7683,-3.7772,-3.7688,-3.8241,-3.8417,-3.8492,-3.8743,-3.8818,-3.8894,-3.9195,-3.9044,-3.8592,-3.7764,-3.7362,-3.7036,-3.6531,-3.6405,-3.648,-3.6757,-3.6985,-3.7186,-3.7161,-3.7161,-3.7186,-3.7161,-3.691,-3.6807,-3.6807,-3.6807,-3.6707,-3.643,-3.6405,-3.6279,-3.5956,-3.5931,-3.5805,-3.5529,-3.5504,-3.5378,-3.5082,-3.4781,-3.47,-3.468,-3.4424,-3.4148,-3.3847,-3.3596,-3.347,-3.347,-3.3194,-3.3154,-3.324,-3.3154,-3.3154,-3.324,-3.3154,-3.3111,-3.3111,-3.3111,-3.3111,-3.3111,-3.3111,-3.3244,-3.352,-4.5334,-4.5484,-4.5813,-4.6381,-4.695,-4.713,-4.6561,-4.6339,-4.5963,-4.4945,-4.4736,-4.4456,-4.4007,-4.4407,-4.4616,-4.4496,-4.3858,-4.3469,-4.3469,-4.3349,-4.329,-4.329,-4.329,-4.329,-4.329,-4.329,-4.329,-4.329,-4.329,-4.329,-4.329,-4.329,-4.329,-4.329,-4.329,-4.329,-4.329,-4.313,-4.3021,-4.2981,-4.2731,-4.264,-4.2688,-4.2327,-4.1823,-4.1212,-4.0972,-3.9706,-3.8181,-3.8181,-3.7784,-3.7337,-3.7437,-3.7789,-3.8266,-3.8843,-3.907,-3.912,-3.9572,-3.9697,-3.9697,-3.9697,-3.9622,-3.932,-3.8366,-3.7789,-3.736,-3.6807,-3.6681,-3.6832,-3.7236,-3.7337,-3.7462,-3.7939,-3.7613,-3.7487,-3.7939,-3.7613,-3.7337,-3.7337,-3.7337,-3.7136,-3.6732,-3.6606,-3.6556,-3.6556,-3.6455,-3.6405,-3.6405,-3.6405,-3.6157,-3.5658,-3.5533,-3.5332,-3.5002,-3.4901,-3.4901,-3.5002,-3.4449,-3.4123,-3.4022,-3.3614,-3.3518,-3.369,-3.346,-3.3485,-3.369,-3.3374,-3.3312,-3.3345,-3.3345,-3.3294,-3.3262,-3.3262,-3.3495,-3.3922,-4.5514,-4.6232,-4.707,-4.716,-4.7249,-4.7279,-4.7189,-4.6681,-4.6471,-4.686,-4.6411,-4.6232,-4.6711,-4.6322,-4.5813,-4.5214,-4.4556,-4.4167,-4.4167,-4.3618,-4.329,-4.329,-4.329,-4.329,-4.329,-4.329,-4.329,-4.329,-4.329,-4.329,-4.329,-4.329,-4.329,-4.329,-4.329,-4.329,-4.329,-4.325,-4.317,-4.2951,-4.2416,-4.2416,-4.2629,-4.1829,-4.1825,-4.2187,-4.198,-4.0953,-3.9698,-3.9698,-3.8919,-3.799,-3.8492,-3.8743,-3.8868,-3.9421,-3.9572,-3.9597,-3.9672,-3.9697,-3.9697,-3.9697,-3.932,-3.8994,-3.8793,-3.8743,-3.8467,-3.7914,-3.7789,-3.7814,-3.7889,-3.7889,-3.7914,-3.799,-3.7939,-3.7914,-3.799,-3.7939,-3.7889,-3.7889,-3.7889,-3.7864,-3.7789,-3.7362,-3.7061,-3.7061,-3.6681,-3.6405,-3.6405,-3.6405,-3.638,-3.6304,-3.578,-3.573,-3.6179,-3.568,-3.568,-3.6179,-3.5579,-3.5031,-3.46,-3.4774,-3.4838,-3.4832,-3.4525,-3.4601,-3.4832,-3.428,-3.4224,-3.45,-3.45,-3.4198,-3.3796,-3.3796,-3.3847,-3.4048,-4.6471,-4.6591,-4.686,-4.7249,-4.7309,-4.7309,-4.7309,-4.6741,-4.6441,-4.6711,-4.5843,-4.5454,-4.6112,-4.5933,-4.5783,-4.5873,-4.4915,-4.4317,-4.4317,-4.3648,-4.329,-4.329,-4.329,-4.3469,-4.3828,-4.3469,-4.3469,-4.3858,-4.3469,-4.329,-4.329,-4.329,-4.329,-4.329,-4.329,-4.329,-4.329,-4.329,-4.325,-4.314,-4.2872,-4.2892,-4.2981,-4.2364,-4.2331,-4.2555,-4.2216,-4.1597,-4.078,-4.0169,-3.9706,-3.9287,-3.8969,-3.9094,-3.9371,-3.9622,-3.9697,-3.9697,-3.9697,-3.9697,-3.9697,-3.9697,-3.9521,-3.932,-3.932,-3.932,-3.9069,-3.8191,-3.8015,-3.809,-3.8442,-3.8492,-3.8592,-3.8894,-3.8693,-3.8592,-3.8894,-3.8693,-3.8492,-3.8492,-3.8216,-3.8015,-3.8015,-3.7789,-3.7513,-3.7211,-3.696,-3.6732,-3.643,-3.6405,-3.6405,-3.6405,-3.6132,-3.6107,-3.6405,-3.6132,-3.6132,-3.6405,-3.6107,-3.5705,-3.5132,-3.5102,-3.513,-3.5264,-3.5142,-3.5256,-3.5461,-3.5072,-3.4946,-3.4906,-3.4906,-3.4665,-3.4349,-3.4349,-3.455,-3.4831]},{"header":{"parameterUnit":"m.s-1","parameterCategory":1,"la1":30.6,"la2":28.766,"lo1":-90.7593,"lo2":-88.6598,"dy":0.0162,"dx":0.0183,"nx":116,"ny":114,"refTime":"2024-03-13T18:00:00:Z","depth":0,"parameterNumber":3,"parameterNumberName":"V-component_of_WINDS"},"data":[0.0,0.0,0.0,0.0,0.0,0.0,0.0,0.0,0.0,0.0,0.0,0.0,0.0,0.0,0.0,0.0,0.0,0.0,0.0,0.0,0.0,0.0,0.0,0.0,0.0,0.0,0.0,0.0,0.0,0.0,0.0,0.0,0.0,0.0,0.0,0.0,0.0,0.0,0.0,0.0,0.0,0.0,0.0,0.0,0.0,0.0,0.0,0.0,0.0,0.0,0.0,0.0,0.0,0.0,0.0,0.0,0.0,0.0,0.0,0.0,0.0,0.0,0.0,0.0,0.0,0.0,0.0,0.0,0.0,0.0,0.0,0.0,0.0,0.0,0.0,0.0,0.0,0.0,0.0,0.0,0.0,0.0,0.0,0.0,0.0,0.0,0.0,0.0,0.0,0.0,0.0,0.0,0.0,0.0,0.0,0.0,0.0,0.0,0.0,0.0,0.0,0.0,0.0,0.0,0.0,0.0,0.0,0.0,0.0,0.0,0.0,0.0,0.0,0.0,0.0,0.0,0.0,0.0,0.0,0.0,0.0,0.0,0.0,0.0,0.0,0.0,0.0,0.0,0.0,0.0,0.0,0.0,0.0,0.0,0.0,0.0,0.0,0.0,0.0,0.0,0.0,0.0,0.0,0.0,0.0,0.0,0.0,0.0,0.0,0.0,0.0,0.0,0.0,0.0,0.0,0.0,0.0,0.0,0.0,0.0,0.0,0.0,0.0,0.0,0.0,0.0,0.0,0.0,0.0,0.0,0.0,0.0,0.0,0.0,0.0,0.0,0.0,0.0,0.0,0.0,0.0,0.0,0.0,0.0,0.0,0.0,0.0,0.0,0.0,0.0,0.0,0.0,0.0,0.0,0.0,0.0,0.0,0.0,0.0,0.0,0.0,0.0,0.0,0.0,0.0,0.0,0.0,0.0,0.0,0.0,0.0,0.0,0.0,0.0,0.0,0.0,0.0,0.0,0.0,0.0,0.0,0.0,0.0,0.0,0.0,0.0,0.0,0.0,0.0,0.0,0.0,0.0,0.0,0.0,0.0,0.0,0.0,0.0,0.0,0.0,0.0,0.0,0.0,0.0,0.0,0.0,0.0,0.0,0.0,0.0,0.0,0.0,0.0,0.0,0.0,0.0,0.0,0.0,0.0,0.0,0.0,0.0,0.0,0.0,0.0,0.0,0.0,0.0,0.0,0.0,0.0,0.0,0.0,0.0,0.0,0.0,0.0,0.0,0.0,0.0,0.0,0.0,0.0,0.0,0.0,0.0,0.0,0.0,0.0,0.0,0.0,0.0,0.0,0.0,0.0,0.0,0.0,0.0,0.0,0.0,0.0,0.0,0.0,0.0,0.0,0.0,0.0,0.0,0.0,0.0,0.0,0.0,0.0,0.0,0.0,0.0,0.0,0.0,0.0,0.0,0.0,0.0,0.0,0.0,0.0,0.0,0.0,0.0,0.0,0.0,0.0,0.0,0.0,0.0,0.0,0.0,0.0,0.0,0.0,0.0,0.0,0.0,0.0,0.0,0.0,0.0,0.0,0.0,0.0,0.0,0.0,0.0,0.0,0.0,0.0,0.0,0.0,0.0,0.0,0.0,0.0,0.0,0.0,0.0,0.0,0.0,0.0,0.0,0.0,0.0,0.0,0.0,0.0,0.0,0.0,0.0,0.0,0.0,0.0,0.0,0.0,0.0,0.0,0.0,0.0,0.0,0.0,0.0,0.0,0.0,0.0,0.0,0.0,0.0,0.0,0.0,0.0,0.0,0.0,0.0,0.0,0.0,0.0,0.0,0.0,0.0,0.0,0.0,0.0,0.0,0.0,0.0,0.0,0.0,0.0,0.0,0.0,0.0,0.0,0.0,0.0,0.0,0.0,0.0,0.0,0.0,0.0,0.0,0.0,0.0,0.0,0.0,0.0,0.0,0.0,0.0,0.0,0.0,0.0,0.0,0.0,0.0,0.0,0.0,0.0,0.0,0.0,0.0,0.0,0.0,0.0,0.0,0.0,0.0,0.0,0.0,0.0,0.0,0.0,0.0,0.0,0.0,0.0,0.0,0.0,0.0,0.0,0.0,0.0,0.0,0.0,0.0,0.0,0.0,0.0,0.0,0.0,0.0,0.0,0.0,0.0,0.0,0.0,0.0,0.0,0.0,0.0,0.0,0.0,0.0,0.0,0.0,0.0,0.0,0.0,0.0,0.0,0.0,0.0,0.0,0.0,0.0,0.0,0.0,0.0,0.0,0.0,0.0,0.0,0.0,0.0,0.0,0.0,0.0,0.0,0.0,0.0,0.0,0.0,0.0,0.0,0.0,0.0,0.0,0.0,0.0,0.0,0.0,0.0,0.0,0.0,0.0,0.0,0.0,0.0,0.0,0.0,0.0,0.0,0.0,0.0,0.0,0.0,0.0,0.0,0.0,0.0,0.0,0.0,0.0,0.0,0.0,0.0,0.0,0.0,0.0,0.0,0.0,0.0,0.0,0.0,0.0,0.0,0.0,0.0,0.0,0.0,0.0,0.0,0.0,0.0,0.0,0.0,0.0,0.0,0.0,0.0,0.0,0.0,0.0,0.0,0.0,0.0,0.0,0.0,0.0,0.0,0.0,0.0,0.0,0.0,0.0,0.0,0.0,0.0,0.0,0.0,0.0,0.0,0.0,0.0,0.0,0.0,0.0,0.0,0.0,0.0,0.0,0.0,0.0,0.0,0.0,0.0,0.0,0.0,0.0,0.0,0.0,0.0,0.0,0.0,0.0,0.0,0.0,0.0,0.0,0.0,0.0,0.0,0.0,0.0,0.0,0.0,0.0,0.0,0.0,0.0,0.0,0.0,0.0,0.0,0.0,0.0,0.0,0.0,0.0,0.0,0.0,0.0,0.0,0.0,0.0,0.0,0.0,0.0,0.0,0.0,0.0,0.0,0.0,0.0,0.0,0.0,0.0,0.0,0.0,0.0,0.0,0.0,0.0,0.0,0.0,0.0,0.0,0.0,0.0,0.0,0.0,0.0,0.0,0.0,0.0,0.0,0.0,0.0,0.0,0.0,0.0,0.0,0.0,0.0,0.0,0.0,0.0,0.0,0.0,0.0,0.0,0.0,0.0,0.0,0.0,0.0,0.0,0.0,0.0,0.0,0.0,0.0,0.0,0.0,0.0,0.0,0.0,0.0,0.0,0.0,0.0,0.0,0.0,0.0,0.0,0.0,0.0,0.0,0.0,0.0,0.0,0.0,0.0,0.0,0.0,0.0,0.0,0.0,0.0,0.0,0.0,0.0,0.0,0.0,0.0,0.0,0.0,0.0,0.0,0.0,0.0,0.0,0.0,0.0,0.0,0.0,0.0,0.0,0.0,0.0,0.0,0.0,0.0,0.0,0.0,0.0,0.0,0.0,0.0,0.0,0.0,0.0,0.0,0.0,0.0,0.0,0.0,0.0,0.0,0.0,0.0,0.0,0.0,0.0,0.0,0.0,0.0,0.0,0.0,0.0,0.0,0.0,0.0,0.0,0.0,0.0,0.0,0.0,0.0,0.0,0.0,0.0,0.0,0.0,0.0,0.0,0.0,0.0,0.0,0.0,0.0,0.0,0.0,0.0,0.0,0.0,0.0,0.0,0.0,0.0,0.0,0.0,0.0,0.0,0.0,0.0,0.0,0.0,0.0,0.0,0.0,0.0,0.0,0.0,0.0,0.0,0.0,0.0,0.0,0.0,0.0,0.0,0.0,0.0,0.0,0.0,0.0,0.0,0.0,0.0,0.0,0.0,0.0,0.0,0.0,0.0,0.0,0.0,0.0,0.0,0.0,0.0,0.0,0.0,0.0,0.0,0.0,0.0,0.0,0.0,0.0,0.0,0.0,0.0,0.0,0.0,0.0,0.0,0.0,0.0,0.0,0.0,0.0,0.0,0.0,0.0,0.0,0.0,0.0,0.0,0.0,0.0,0.0,0.0,0.0,0.0,0.0,0.0,0.0,0.0,0.0,0.0,0.0,0.0,0.0,0.0,0.0,0.0,0.0,0.0,0.0,0.0,0.0,0.0,0.0,0.0,0.0,0.0,0.0,0.0,0.0,0.0,0.0,0.0,0.0,0.0,0.0,0.0,0.0,0.0,0.0,0.0,0.0,0.0,0.0,0.0,0.0,0.0,0.0,0.0,0.0,0.0,0.0,0.0,0.0,0.0,0.0,0.0,0.0,0.0,0.0,0.0,0.0,0.0,0.0,0.0,0.0,0.0,0.0,0.0,0.0,0.0,0.0,0.0,0.0,0.0,0.0,0.0,0.0,0.0,0.0,0.0,0.0,0.0,0.0,0.0,0.0,0.0,0.0,0.0,0.0,0.0,0.0,0.0,0.0,0.0,0.0,0.0,0.0,0.0,0.0,0.0,0.0,0.0,0.0,0.0,0.0,0.0,0.0,0.0,0.0,0.0,0.0,0.0,0.0,0.0,0.0,0.0,0.0,0.0,0.0,0.0,0.0,0.0,0.0,0.0,0.0,0.0,0.0,0.0,0.0,0.0,0.0,0.0,0.0,0.0,0.0,0.0,0.0,0.0,0.0,0.0,0.0,0.0,0.0,0.0,0.0,0.0,0.0,0.0,0.0,0.0,0.0,0.0,0.0,0.0,0.0,0.0,0.0,0.0,0.0,0.0,0.0,0.0,0.0,0.0,0.0,0.0,0.0,0.0,0.0,0.0,0.0,0.0,0.0,0.0,0.0,0.0,0.0,0.0,0.0,0.0,0.0,0.0,0.0,0.0,0.0,0.0,0.0,0.0,0.0,0.0,0.0,0.0,0.0,0.0,0.0,0.0,0.0,0.0,0.0,0.0,0.0,0.0,0.0,0.0,0.0,0.0,0.0,0.0,0.0,0.0,0.0,0.0,0.0,0.0,0.0,0.0,0.0,0.0,0.0,0.0,0.0,0.0,0.0,0.0,0.0,0.0,0.0,0.0,0.0,0.0,0.0,0.0,0.0,0.0,0.0,0.0,0.0,0.0,0.0,0.0,0.0,0.0,0.0,0.0,0.0,0.0,0.0,0.0,0.0,0.0,0.0,0.0,0.0,0.0,0.0,0.0,0.0,0.0,0.0,0.0,0.0,0.0,0.0,0.0,0.0,0.0,0.0,0.0,0.0,0.0,0.0,0.0,0.0,0.0,0.0,0.0,0.0,0.0,0.0,0.0,0.0,0.0,0.0,0.0,0.0,0.0,0.0,0.0,0.0,0.0,0.0,0.0,0.0,0.0,0.0,0.0,0.0,0.0,0.0,0.0,0.0,0.0,0.0,0.0,0.0,0.0,0.0,0.0,0.0,0.0,0.0,0.0,0.0,0.0,0.0,0.0,0.0,0.0,0.0,0.0,0.0,0.0,0.0,0.0,0.0,0.0,0.0,0.0,0.0,0.0,0.0,0.0,0.0,0.0,0.0,0.0,0.0,0.0,0.0,0.0,0.0,0.0,0.0,0.0,0.0,0.0,0.0,0.0,0.0,0.0,0.0,0.0,0.0,0.0,0.0,0.0,0.0,0.0,0.0,0.0,0.0,0.0,0.0,0.0,0.0,0.0,0.0,0.0,0.0,0.0,0.0,0.0,0.0,0.0,0.0,0.0,0.0,0.0,0.0,0.0,0.0,0.0,0.0,0.0,0.0,0.0,0.0,0.0,0.0,0.0,0.0,0.0,0.0,0.0,0.0,0.0,0.0,0.0,0.0,0.0,0.0,0.0,0.0,0.0,0.0,0.0,0.0,0.0,0.0,0.0,0.0,0.0,0.0,0.0,0.0,0.0,0.0,0.0,0.0,0.0,0.0,0.0,0.0,0.0,0.0,0.0,0.0,0.0,0.0,0.0,0.0,0.0,0.0,0.0,0.0,0.0,0.0,0.0,0.0,0.0,0.0,0.0,0.0,0.0,0.0,0.0,0.0,0.0,0.0,0.0,0.0,0.0,0.0,0.0,0.0,0.0,0.0,0.0,0.0,0.0,0.0,0.0,0.0,0.0,0.0,0.0,0.0,0.0,0.0,0.0,0.0,0.0,0.0,0.0,0.0,0.0,0.0,0.0,0.0,0.0,0.0,0.0,0.0,0.0,0.0,0.0,0.0,0.0,0.0,0.0,0.0,3.0323,2.9152,0.0,0.0,0.0,0.0,0.0,0.0,0.0,0.0,0.0,0.0,0.0,0.0,0.0,0.0,0.0,0.0,0.0,0.0,0.0,0.0,0.0,0.0,0.0,0.0,0.0,0.0,2.2512,2.2445,2.2481,2.1967,2.1521,2.1272,2.0998,2.0779,2.0639,2.104,2.1852,2.3042,2.3251,2.4281,2.605,2.482,2.36,0.0,0.0,0.0,0.0,0.0,0.0,0.0,0.0,0.0,0.0,0.0,0.0,0.0,0.0,0.0,0.0,0.0,0.0,0.0,0.0,0.0,0.0,0.0,0.0,0.0,0.0,0.0,0.0,0.0,0.0,0.0,0.0,0.0,0.0,0.0,0.0,0.0,0.0,0.0,0.0,0.0,0.0,0.0,0.0,0.0,0.0,0.0,0.0,0.0,0.0,0.0,0.0,0.0,0.0,0.0,0.0,0.0,0.0,0.0,0.0,0.0,0.0,0.0,0.0,0.0,0.0,0.0,0.0,0.0,0.0,0.0,3.2481,3.1345,0.0,0.0,0.0,0.0,0.0,0.0,0.0,0.0,0.0,0.0,0.0,0.0,0.0,0.0,0.0,0.0,0.0,0.0,0.0,0.0,0.0,0.0,0.0,2.1766,2.2332,2.3226,2.2958,2.2958,2.3367,2.2566,2.2188,2.238,2.1958,2.1848,2.2047,2.248,2.3312,2.4528,2.5541,2.6963,2.8759,2.8993,0.0,0.0,0.0,0.0,0.0,0.0,0.0,0.0,0.0,0.0,0.0,0.0,0.0,0.0,0.0,0.0,0.0,0.0,0.0,0.0,0.0,0.0,0.0,0.0,0.0,0.0,0.0,0.0,0.0,0.0,0.0,0.0,0.0,0.0,0.0,0.0,0.0,0.0,0.0,0.0,0.0,0.0,0.0,0.0,0.0,0.0,0.0,0.0,0.0,0.0,0.0,0.0,0.0,0.0,0.0,0.0,0.0,0.0,0.0,0.0,0.0,0.0,0.0,0.0,0.0,0.0,3.7449,3.8193,3.8667,3.8788,3.9103,3.9343,3.5464,3.453,3.5667,3.3523,0.0,0.0,0.0,0.0,0.0,0.0,0.0,0.0,0.0,0.0,0.0,0.0,0.0,0.0,0.0,0.0,0.0,0.0,0.0,0.0,0.0,2.1967,2.2753,2.4024,2.3487,2.3447,2.4416,2.3508,2.2883,2.2751,2.2677,2.2536,2.2347,2.3339,2.4284,2.5081,2.814,3.0357,3.1751,3.2916,3.3599,3.3561,2.8524,0.0,0.0,0.0,0.0,0.0,0.0,0.0,0.0,0.0,0.0,0.0,0.0,0.0,0.0,0.0,0.0,0.0,0.0,0.0,0.0,0.0,0.0,0.0,0.0,0.0,0.0,0.0,0.0,0.0,0.0,0.0,0.0,0.0,0.0,0.0,0.0,0.0,0.0,0.0,0.0,0.0,0.0,0.0,2.9377,3.019,0.0,0.0,0.0,0.0,0.0,0.0,0.0,0.0,0.0,0.0,0.0,0.0,0.0,3.7717,3.8066,4.0032,4.0514,3.9537,4.1576,4.2252,4.1737,4.2243,4.2286,4.1831,4.1067,0.0,3.6558,3.5655,0.0,0.0,0.0,0.0,0.0,0.0,0.0,0.0,0.0,0.0,0.0,0.0,0.0,0.0,0.0,0.0,0.0,0.0,0.0,0.0,0.0,2.359,2.4433,2.5567,2.6063,2.6012,2.5356,2.5326,2.4802,2.3583,2.3531,2.3545,2.3568,2.4747,2.661,2.9056,3.2125,3.4162,3.5204,3.6153,3.695,3.7411,3.4129,3.2233,3.1354,2.8761,0.0,0.0,0.0,0.0,0.0,0.0,0.0,0.0,0.0,0.0,0.0,0.0,0.0,0.0,0.0,0.0,0.0,0.0,0.0,0.0,0.0,0.0,0.0,0.0,0.0,0.0,0.0,0.0,0.0,0.0,0.0,0.0,0.0,0.0,0.0,0.0,0.0,0.0,0.0,3.0238,3.1444,3.1248,3.1826,3.2112,0.0,0.0,0.0,0.0,0.0,0.0,0.0,0.0,0.0,4.0651,4.0898,4.1349,4.2009,4.2954,4.334,4.3267,4.4248,4.4756,4.4852,4.5417,4.531,4.4666,4.4937,4.3256,4.0172,3.8001,3.6298,3.4989,0.0,0.0,0.0,0.0,3.4964,3.5549,0.0,0.0,0.0,0.0,0.0,0.0,0.0,0.0,0.0,0.0,0.0,0.0,2.4435,2.5572,2.6654,2.7841,2.8444,2.8289,2.7066,2.67,2.5967,2.4592,2.4315,2.4471,2.5039,2.6747,2.9433,3.3083,3.5377,3.7088,3.8182,3.902,3.9768,4.036,3.9166,3.7396,3.5049,3.2405,3.0412,0.0,0.0,0.0,0.0,0.0,0.0,0.0,0.0,0.0,0.0,0.0,0.0,0.0,0.0,0.0,0.0,0.0,0.0,0.0,0.0,0.0,0.0,0.0,0.0,0.0,0.0,0.0,0.0,0.0,0.0,0.0,0.0,0.0,0.0,0.0,0.0,0.0,0.0,3.184,3.3048,3.2377,3.3636,3.4212,0.0,0.0,0.0,0.0,0.0,0.0,4.0234,4.1284,4.2546,4.4137,4.4263,4.4636,4.5337,4.5494,4.5814,4.6278,4.6447,4.6908,4.7622,4.8148,4.7981,4.7288,4.7678,4.6435,4.395,4.0905,3.8825,3.7593,3.7269,3.6735,3.6325,3.7922,3.8647,3.9173,0.0,0.0,0.0,0.0,0.0,0.0,0.0,0.0,0.0,0.0,0.0,2.4084,2.5811,2.7553,2.9348,3.1075,2.975,2.9173,3.0121,2.6993,2.5301,2.5688,2.4916,2.5121,2.6468,2.9493,3.2582,3.5803,3.6816,3.8362,4.0277,4.1602,4.2521,4.308,4.2462,4.1222,3.9383,3.5021,3.3701,3.4077,0.0,0.0,0.0,0.0,0.0,0.0,0.0,0.0,0.0,0.0,0.0,0.0,0.0,0.0,0.0,0.0,0.0,0.0,0.0,0.0,0.0,0.0,0.0,0.0,0.0,0.0,0.0,0.0,0.0,0.0,0.0,0.0,0.0,0.0,0.0,0.0,0.0,0.0,0.0,3.3598,3.5743,0.0,0.0,0.0,0.0,3.9319,4.0087,4.1739,4.4612,4.5023,4.5764,4.7071,4.7402,4.7568,4.7553,4.8176,4.8254,4.7804,4.8511,4.915,4.9769,5.0292,5.0144,4.9425,4.9277,4.8387,4.6906,4.4706,4.2033,3.9512,4.0787,4.0969,4.0592,4.1322,4.1878,4.2282,0.0,0.0,0.0,0.0,0.0,0.0,0.0,0.0,2.1807,2.2538,2.4802,2.69,2.8314,3.0867,3.3049,3.4469,3.3827,3.2989,3.2253,2.9432,2.7788,2.7861,2.6507,2.7127,3.0074,3.2094,3.4575,3.7565,3.9194,4.0546,4.1722,4.2581,4.312,4.329,4.3539,4.3319,4.2524,3.8756,3.6616,3.5473,3.2796,3.007,0.0,0.0,0.0,0.0,0.0,0.0,0.0,0.0,0.0,0.0,0.0,0.0,0.0,0.0,0.0,0.0,0.0,0.0,0.0,0.0,0.0,0.0,0.0,0.0,0.0,0.0,0.0,0.0,0.0,0.0,0.0,0.0,0.0,0.0,0.0,0.0,0.0,3.8321,3.9852,0.0,3.9863,3.9846,4.0675,4.2448,4.3045,4.4437,4.6975,4.7934,4.8802,4.96,5.0171,5.0321,4.9952,5.0179,4.991,4.9208,4.9448,4.9703,4.9902,5.0452,5.0488,5.014,5.0462,4.9554,4.7761,4.7371,4.5637,4.3325,4.3714,4.3801,4.378,4.4474,4.5373,4.6256,0.0,0.0,0.0,0.0,0.0,0.0,0.0,0.0,2.2354,2.3364,2.6253,2.8851,3.0549,3.3408,3.5712,3.7091,3.6028,3.4788,3.351,3.0468,2.8689,2.8699,2.8289,2.9473,3.2362,3.4351,3.6555,3.905,4.0636,4.1833,4.2701,4.312,4.3529,4.3977,4.4227,4.4556,4.4814,4.2336,4.0149,3.8067,3.5531,3.3381,3.1366,0.0,0.0,0.0,0.0,0.0,0.0,0.0,0.0,0.0,0.0,0.0,0.0,0.0,0.0,0.0,0.0,0.0,0.0,0.0,0.0,0.0,0.0,0.0,0.0,0.0,0.0,0.0,0.0,0.0,0.0,0.0,0.0,0.0,0.0,3.7694,3.9987,4.1395,4.3307,4.4253,4.3573,4.3643,4.4323,4.579,4.6326,4.7413,4.9355,5.0169,5.0605,5.0619,5.1248,5.1263,5.055,5.0686,5.0467,4.9907,4.9907,5.0045,5.0356,5.0706,5.0951,5.1084,5.0967,5.0114,4.8739,4.8627,4.763,4.6195,4.5767,4.5839,4.6176,4.6298,4.7068,4.8125,0.0,0.0,0.0,0.0,0.0,0.0,0.0,2.1356,2.258,2.4248,2.7039,2.9803,3.2297,3.4965,3.7232,3.8861,3.6122,3.4203,3.3952,2.9927,2.7716,2.8198,3.0305,3.203,3.3199,3.6181,3.8627,4.0427,4.1085,4.2073,4.329,4.329,4.4018,4.5244,4.4616,4.5065,4.6249,4.5603,4.4227,4.2141,3.7386,3.625,3.6786,0.0,0.0,0.0,0.0,0.0,0.0,0.0,0.0,0.0,0.0,0.0,0.0,0.0,0.0,0.0,0.0,0.0,0.0,0.0,0.0,0.0,0.0,0.0,0.0,0.0,0.0,0.0,0.0,0.0,0.0,0.0,0.0,0.0,3.6021,3.9178,4.1738,4.2617,4.5914,4.7335,4.5484,4.7093,4.858,4.9316,4.9755,5.0595,5.1932,5.1722,5.1133,5.0171,5.0571,5.0317,4.9324,4.9737,4.9942,4.9976,4.9942,5.0363,5.1201,5.1166,5.1662,5.2408,5.0814,5.0112,5.0003,4.8551,4.7918,4.7819,4.6998,4.7145,4.7701,4.6632,4.6843,4.7711,0.0,0.0,0.0,0.0,0.0,0.0,0.0,2.08,2.2034,2.3505,2.729,3.0553,3.2262,3.5478,3.791,3.8854,3.6018,3.431,3.4605,3.0413,2.8723,3.0559,3.2288,3.4247,3.6537,3.766,3.9182,4.1115,4.1811,4.2521,4.329,4.329,4.3738,4.4586,4.4885,4.5514,4.6279,4.6112,4.5723,4.4945,4.1743,3.9755,3.8365,0.0,0.0,0.0,0.0,0.0,0.0,0.0,0.0,0.0,0.0,0.0,0.0,0.0,0.0,0.0,0.0,0.0,0.0,0.0,0.0,0.0,0.0,0.0,0.0,0.0,0.0,0.0,0.0,0.0,0.0,0.0,3.6847,3.9177,4.0442,4.2554,4.4983,4.7737,4.8995,4.9591,4.9626,4.9625,4.9959,5.0693,5.0393,5.056,5.1464,5.1396,5.1162,5.0688,5.1133,5.1493,5.1789,5.1199,5.1092,5.1424,5.0465,5.0363,5.091,5.0768,5.1244,5.215,5.1325,5.0655,5.0039,4.9132,4.8447,4.7954,4.8336,4.8365,4.8161,4.809,4.8352,4.8741,0.0,0.0,0.0,0.0,0.0,0.0,0.0,2.0282,2.1659,2.3452,2.7505,3.0818,3.2536,3.5384,3.7394,3.8054,3.5394,3.3608,3.3445,3.0868,3.0102,3.1915,0.0,3.595,3.7664,3.8704,3.9948,4.1422,4.2081,4.2701,4.329,4.3589,4.4107,4.4766,4.5424,4.6112,4.6741,4.6741,4.6741,4.6561,4.4766,4.329,4.1867,3.9104,3.8053,3.7685,3.4912,3.4403,3.4815,3.281,0.0,0.0,0.0,0.0,0.0,0.0,0.0,0.0,0.0,0.0,0.0,0.0,0.0,0.0,0.0,0.0,0.0,0.0,0.0,0.0,0.0,0.0,0.0,0.0,3.9296,4.1815,4.3885,4.5336,4.7214,4.9796,5.0707,5.128,5.1746,5.1347,5.128,5.1746,5.1347,5.1313,5.1746,5.1779,5.1554,5.1095,5.1526,5.1933,5.2359,5.1955,5.2032,5.2516,5.1745,5.1417,5.1492,5.1692,5.1731,5.1586,5.1236,5.052,4.9546,4.8877,4.8317,4.7855,0.0,0.0,0.0,0.0,4.8601,4.8916,0.0,0.0,0.0,0.0,0.0,0.0,0.0,1.9747,2.1292,2.3554,2.7248,3.0449,3.2407,3.4416,3.5861,3.6459,3.419,3.2409,3.1525,3.1212,3.1632,3.2928,3.5613,3.7248,3.7734,3.9559,4.0816,4.1542,4.2201,4.2761,4.329,4.3888,4.4556,4.5214,4.5903,4.6561,4.7189,4.7279,4.7309,4.7249,4.6681,4.6381,4.5933,4.2376,4.2114,4.3235,3.9677,3.8004,3.7259,3.5818,0.0,0.0,0.0,0.0,0.0,0.0,0.0,0.0,0.0,0.0,0.0,0.0,0.0,0.0,0.0,0.0,0.0,0.0,0.0,0.0,0.0,0.0,0.0,0.0,4.1704,4.369,4.6208,4.7364,4.8491,4.9807,5.1299,5.2266,5.2266,5.2266,5.2302,5.2373,5.2302,5.2302,5.2373,0.0,0.0,0.0,0.0,5.193,5.1867,5.2222,5.2665,5.3239,5.3169,5.2888,5.2492,5.3093,5.2562,5.1084,5.0796,5.0059,4.8967,4.8203,4.7798,4.7615,4.7471,4.7761,4.8259,4.7787,4.8004,4.8441,0.0,0.0,0.0,0.0,0.0,0.0,0.0,1.9028,2.0434,2.1963,2.5427,2.8099,2.8974,3.1194,3.2892,3.3488,3.1785,3.1002,3.175,3.1551,3.2825,3.5991,3.6896,3.8112,3.9798,4.0726,4.1542,4.2201,4.2821,4.317,4.329,4.3409,4.3828,4.4526,4.5185,4.5873,4.6561,4.707,4.7309,4.7309,4.716,4.68,4.6112,4.4257,4.3848,4.3938,4.2188,4.2419,4.3299,4.1322,4.0003,3.887,3.7134,0.0,0.0,0.0,0.0,0.0,0.0,0.0,0.0,0.0,0.0,0.0,0.0,0.0,0.0,0.0,0.0,0.0,0.0,0.0,0.0,4.1328,4.34,4.5131,4.6214,4.7548,4.8814,4.9733,5.0741,5.1359,5.1359,5.1359,5.1619,5.2338,5.1762,5.1655,5.2373,5.2409,5.2307,5.221,5.2065,5.227,5.2809,5.2554,5.2731,5.3445,5.2914,0.0,5.3029,5.239,5.2199,5.233,5.0653,4.9902,4.9785,4.8421,4.7636,4.7267,4.7696,4.8341,4.8888,4.7969,4.7686,4.7637,0.0,0.0,0.0,0.0,0.0,0.0,0.0,1.85,1.9818,2.126,2.399,2.619,2.7139,2.8474,2.953,3.0177,2.9647,2.991,3.1389,3.2388,3.4025,3.6482,3.7783,3.905,4.0367,4.1055,4.1752,4.241,4.3,4.329,4.329,4.3618,4.3988,4.4347,4.5364,4.5739,4.5563,4.6255,4.6255,4.5853,4.6373,4.6035,4.5345,4.5641,4.5813,4.5693,4.4706,4.4766,4.5095,4.3658,4.2317,4.092,3.9305,3.6339,3.3224,0.0,0.0,0.0,0.0,0.0,0.0,0.0,0.0,0.0,0.0,0.0,0.0,0.0,0.0,3.7277,3.8196,0.0,4.2014,4.3413,4.5169,4.6411,4.677,4.7727,4.8638,4.9147,4.9955,5.0461,5.0461,5.0461,5.0615,5.1065,5.0691,5.0838,5.1692,5.1762,5.1944,5.2373,5.2291,5.2501,5.3111,5.2869,5.3051,5.3682,5.3369,5.306,5.2811,5.2654,5.2159,5.1434,5.0865,4.9985,4.879,4.7504,4.7071,4.7157,4.7085,4.7521,4.8155,4.7341,4.7207,4.7272,0.0,0.0,0.0,0.0,0.0,0.0,0.0,1.8013,1.9227,2.0565,2.2639,2.4384,2.548,2.5991,2.6602,2.7442,2.8119,2.9381,3.137,3.3301,3.5006,3.6288,3.8187,3.949,4.0098,4.0901,4.1722,4.2535,4.319,4.3559,4.3678,4.4054,4.421,4.4269,4.5289,4.5273,4.4569,4.5219,4.5052,4.4359,4.519,4.4967,4.4301,4.5946,4.6637,4.6667,4.6189,4.5357,4.4371,4.3915,4.2544,4.0787,3.9967,3.8203,3.5934,3.3652,3.2751,0.0,0.0,0.0,0.0,0.0,0.0,0.0,0.0,0.0,3.5421,3.6288,3.8129,3.9968,4.1231,4.2516,4.3914,4.5256,4.6501,4.7309,4.7309,4.7878,4.8334,4.8332,4.9075,4.9567,4.9567,4.9567,4.9607,4.9765,4.9647,4.9923,5.08,5.0838,5.1252,5.2089,5.2158,5.2412,5.2973,5.3043,5.3315,5.3748,5.3847,5.3455,5.2689,5.3091,5.2323,5.0637,5.1099,4.9937,4.7692,4.6885,4.684,4.7194,4.6485,4.6504,4.6925,4.6427,4.6543,4.6819,0.0,0.0,0.0,0.0,0.0,0.0,0.0,0.0,1.8372,1.9051,2.1152,2.2559,2.2661,2.3746,2.5019,2.6342,2.8052,3.0125,3.2688,3.4034,3.5361,3.6785,3.7997,3.8783,3.8989,4.0343,4.1634,4.294,4.3801,4.4496,4.5065,4.4216,4.3862,4.3848,4.3706,4.3567,4.3533,4.417,4.4406,4.4312,4.4406,4.4068,4.3561,4.376,4.4174,4.4691,4.4993,4.3502,4.1426,4.1838,4.1114,4.0009,3.9759,3.9155,3.807,3.5677,0.0,3.2539,3.0758,2.993,3.0268,3.3175,3.356,3.4178,0.0,0.0,3.966,4.0558,4.1828,4.2848,4.298,4.4158,4.5286,4.6082,4.683,4.7309,4.7309,4.7878,4.8071,4.7499,4.8198,4.8708,4.8708,4.8708,4.9035,4.9726,4.9157,4.9075,4.9884,4.9923,5.0345,5.1247,5.1247,5.1655,5.248,5.2904,5.3145,5.3213,5.3682,5.3842,5.3701,5.2904,5.2497,5.2389,5.0858,4.937,4.8068,4.8137,4.7936,4.7479,4.6719,4.6213,4.5824,4.5512,4.5589,4.5779,0.0,0.0,0.0,0.0,0.0,0.0,0.0,0.0,0.0,1.8501,1.9703,2.0633,2.1124,2.1945,2.3024,2.428,2.6352,0.0,3.1371,3.3572,3.5353,3.6603,3.7934,3.8794,3.9241,3.9896,4.08,4.2124,4.251,4.2997,4.3531,4.3094,4.2918,4.2947,4.3195,4.2972,4.2469,4.3141,4.3081,4.2625,4.3177,4.2944,4.2214,4.2739,4.2159,4.121,4.242,4.1636,0.0,0.0,4.013,3.9555,3.9144,3.8283,3.7111,3.5515,3.4039,0.0,3.234,3.3105,3.4243,3.5126,3.6348,3.7717,3.942,4.0521,4.1462,4.2329,4.3569,4.4586,4.4964,4.5843,4.6561,0.0,4.7459,4.7758,4.7369,4.7878,4.7908,4.686,4.7382,4.7849,4.7849,4.7849,4.7976,4.8324,4.8019,4.8198,4.9075,4.9116,4.9479,5.0306,5.0838,5.1285,5.1619,5.2343,5.2694,5.2694,5.2904,5.2943,5.2772,5.1915,5.1363,5.0963,4.94,4.8769,4.8781,4.7638,4.734,4.7466,4.634,4.5784,4.563,4.5069,4.5115,4.5372,0.0,0.0,0.0,0.0,0.0,0.0,0.0,0.0,0.0,0.0,1.8808,1.9409,2.0162,2.0531,2.1297,2.2638,2.4743,0.0,0.0,3.2476,3.466,3.555,3.7217,3.8391,3.8873,3.9295,4.0118,4.1369,4.1635,4.216,4.2845,4.2572,4.2435,4.2463,4.2656,4.2358,4.1668,4.2194,4.1967,4.1348,4.2088,4.1674,4.0608,4.0941,3.9528,3.7677,3.9578,3.9037,0.0,0.0,3.7455,3.7276,3.6757,3.6468,3.5997,3.4662,3.344,3.277,3.3573,3.5198,3.6683,3.6863,3.8557,4.0334,4.0879,4.1994,4.315,4.3968,4.5065,4.5992,4.6501,4.698,4.7309,4.7309,4.7698,4.7848,4.7369,4.7728,4.7519,4.6202,4.6471,4.6741,4.6741,4.71,4.7309,4.7309,4.7309,4.7581,4.8198,4.824,4.8615,4.9407,5.0073,5.0531,5.0761,5.1619,5.2017,5.2053,5.2302,5.2187,5.1765,5.0959,5.0166,4.9453,4.8523,4.8504,4.8941,4.7499,4.7273,4.7701,4.6249,4.5934,4.6085,4.4993,4.4824,4.5142,0.0,0.0,0.0,0.0,0.0,0.0,0.0,0.0,0.0,0.0,0.0,0.0,0.0,1.9544,2.0111,2.1945,0.0,0.0,0.0,3.0842,3.3136,3.3275,3.5693,3.7075,3.7101,3.847,3.987,4.114,4.2025,4.3076,4.421,4.3266,4.2786,4.2738,4.1792,4.1322,4.1348,4.1348,4.1324,4.1324,4.1298,4.0305,3.8658,3.7553,3.5937,3.4499,3.6673,0.0,0.0,0.0,3.2071,3.2181,3.1951,3.3786,0.0,3.3311,3.2235,3.2094,3.3893,3.4566,3.5481,3.8287,3.9707,4.0913,4.286,4.4297,4.5364,4.6082,4.677,4.7249,4.7279,4.7309,4.7309,4.7309,4.7309,4.7339,4.7309,4.7309,4.683,4.5484,4.5334,4.5364,0.0,4.6531,4.7309,4.7309,4.7309,4.7309,4.7352,4.7352,4.7752,4.8615,4.8656,4.9035,4.9844,5.0691,5.1172,5.114,5.198,5.2011,5.1284,5.0291,4.9443,4.8733,4.8889,4.8704,4.826,4.8353,4.8448,4.8348,4.6992,4.6918,4.7289,4.5307,4.4692,4.4886,0.0,0.0,0.0,0.0,0.0,0.0,0.0,0.0,0.0,0.0,0.0,0.0,0.0,0.0,0.0,0.0,0.0,0.0,0.0,2.9366,3.1048,3.1388,3.3388,3.4375,3.4078,3.5987,3.7411,3.8229,3.9415,4.0401,4.1179,4.0824,4.0865,4.1161,4.0844,4.0932,4.1324,4.1324,4.1089,4.0697,4.0331,3.9599,3.8501,3.6593,3.4895,3.3409,0.0,0.0,0.0,3.0052,2.9828,2.9713,3.0015,3.0902,3.1778,3.1673,3.2407,3.3495,3.4507,3.6157,3.8091,4.0118,4.1828,4.3419,4.4975,4.5663,4.6052,4.6219,4.5412,4.4635,4.4635,4.4635,4.4784,4.5244,4.6082,4.68,4.7249,4.7309,4.6651,4.4855,4.5299,0.0,0.0,0.0,0.0,4.7249,4.7309,4.7309,4.7309,4.7309,4.7409,4.7752,4.8282,4.8738,4.8994,4.9837,5.0538,5.1102,5.198,5.1744,5.0551,5.0224,4.9426,4.8227,4.8325,4.8261,4.8066,4.8164,4.8195,4.819,4.675,4.6468,4.6683,4.5024,4.4497,4.4692,0.0,0.0,0.0,0.0,0.0,0.0,0.0,0.0,0.0,0.0,0.0,0.0,0.0,0.0,0.0,0.0,0.0,0.0,0.0,0.0,2.8481,2.9001,3.0668,3.1579,3.1582,3.2852,3.404,3.5071,3.5793,3.6671,3.7734,3.7972,3.8376,3.8891,3.9511,3.9864,3.995,4.0158,3.9615,3.8584,3.8314,3.7371,3.5869,3.4121,3.2632,0.0,0.0,0.0,0.0,2.8257,2.8164,2.8314,2.8702,2.9568,3.0544,3.1375,3.3001,3.472,3.5405,3.7381,3.9619,4.1057,4.2824,4.446,4.5513,4.5858,4.5813,4.5323,4.4047,4.291,4.2671,4.2462,4.262,4.3756,4.4419,4.5292,4.6677,4.6647,4.6052,4.4713,4.5049,4.4935,0.0,0.0,0.0,4.6774,4.7116,4.7309,4.7309,4.7309,4.7309,4.7309,4.7849,4.8145,4.8145,4.8953,4.9955,5.1102,5.1454,5.1115,5.0187,4.9657,4.8895,4.8001,4.8001,4.8001,4.8001,4.8001,4.79,4.7632,4.6464,4.6152,4.6197,4.4749,4.4495,4.4811,0.0,0.0,0.0,0.0,0.0,0.0,0.0,0.0,0.0,0.0,0.0,0.0,0.0,0.0,0.0,0.0,0.0,0.0,0.0,0.0,0.0,2.6227,2.764,2.8762,2.9487,2.9254,2.9989,3.1763,3.1456,3.225,3.4094,3.4768,3.5344,3.5918,3.7556,3.7904,3.7278,3.7847,3.6939,3.513,3.5388,3.3798,3.11,3.0292,0.0,0.0,0.0,0.0,0.0,2.6637,2.717,2.7906,2.8108,2.9777,3.1762,3.2518,3.4047,3.5696,3.6605,3.8167,3.9896,4.124,4.2738,4.4008,4.4603,4.4916,4.4725,4.3409,4.2581,4.1901,0.0,0.0,4.0912,4.2765,4.2663,4.3236,4.5808,4.5595,4.5173,0.0,0.0,0.0,0.0,0.0,0.0,4.5964,0.0,4.7309,4.7369,4.7309,4.7309,4.7309,4.7309,4.7309,4.7309,4.8157,4.9399,5.0989,5.0457,5.0183,5.0085,4.8663,4.8034,4.8001,4.8001,4.8001,4.8001,4.8001,4.757,4.684,4.6234,4.5996,4.5893,4.4608,4.4566,4.5094,0.0,0.0,0.0,0.0,0.0,0.0,0.0,0.0,0.0,0.0,0.0,0.0,0.0,0.0,0.0,0.0,0.0,0.0,0.0,0.0,0.0,0.0,0.0,0.0,0.0,0.0,0.0,2.8428,2.9631,3.0462,3.0932,3.1148,3.1525,3.2079,3.2533,3.3019,3.3538,3.3687,3.3214,3.2357,0.0,3.112,2.9942,0.0,0.0,0.0,0.0,0.0,0.0,0.0,0.0,2.9053,3.0179,3.1346,3.2788,3.5159,3.6341,3.7296,3.9265,4.031,4.1155,4.2542,4.2862,4.3092,4.3849,4.3031,4.1909,4.1262,3.9469,3.7793,0.0,0.0,0.0,4.0852,4.3025,0.0,4.6773,4.6864,0.0,4.6028,0.0,4.5412,4.5072,4.5501,0.0,0.0,4.6791,4.7519,4.7997,4.7578,4.7309,4.7309,4.7309,4.7309,4.7309,4.8157,4.879,4.9237,4.9691,4.9673,4.9216,4.8858,4.842,4.8001,4.8001,4.8001,4.8001,4.8001,4.757,4.6808,4.6142,4.5573,4.5166,4.4827,4.4549,4.4432,0.0,0.0,0.0,0.0,0.0,0.0,0.0,0.0,0.0,0.0,0.0,0.0,0.0,0.0,0.0,0.0,0.0,0.0,0.0,0.0,0.0,0.0,0.0,0.0,0.0,0.0,0.0,0.0,0.0,0.0,2.6978,2.7422,2.7904,2.848,2.9414,2.9951,3.0131,3.0417,0.0,0.0,0.0,0.0,0.0,0.0,0.0,0.0,0.0,0.0,0.0,0.0,0.0,3.0379,3.2375,3.3774,3.5208,3.7753,3.8698,3.9258,4.0767,4.115,4.1241,4.1587,4.159,4.1441,4.1283,4.0363,3.9276,3.8246,3.6633,3.5237,3.4709,3.5729,3.7387,0.0,0.0,0.0,4.6822,4.7244,4.7297,0.0,4.7165,0.0,4.6351,4.6466,4.6688,0.0,4.7163,4.7459,4.7848,4.7489,4.7309,4.7309,4.7309,4.7309,4.7309,4.8157,4.8615,4.8584,4.8812,4.8859,4.886,4.8249,4.7987,4.8001,4.8001,4.8001,4.7968,4.7636,4.7073,4.6378,4.5947,4.5213,4.4378,4.471,4.4437,4.396,0.0,0.0,0.0,0.0,0.0,0.0,0.0,0.0,0.0,0.0,0.0,0.0,0.0,0.0,0.0,0.0,0.0,0.0,0.0,0.0,0.0,0.0,0.0,0.0,0.0,0.0,0.0,0.0,0.0,0.0,0.0,0.0,0.0,0.0,0.0,0.0,0.0,0.0,0.0,0.0,0.0,0.0,0.0,0.0,0.0,0.0,0.0,0.0,0.0,0.0,3.0563,3.2051,3.4622,3.6594,3.8297,4.0189,4.0891,4.1162,4.1431,4.1315,4.0851,3.9922,3.9841,3.9644,3.8211,3.7585,3.6819,3.51,0.0,3.3678,3.3304,3.3903,3.5563,3.8716,0.0,4.1949,4.6498,4.7034,4.745,4.8641,4.8447,4.8089,4.7971,4.7537,4.7549,4.8117,4.7638,4.7339,4.7429,4.7369,4.7309,4.7309,4.7309,4.7309,4.7309,4.8061,4.8407,4.8449,4.7808,4.789,4.8537,4.7223,4.7062,4.7836,4.7836,4.7902,4.7968,4.7305,4.6609,4.5947,4.5947,4.5052,4.383,4.4556,4.4324,4.3628,0.0,0.0,0.0,0.0,0.0,0.0,0.0,0.0,0.0,0.0,2.0133,1.9419,0.0,0.0,0.0,0.0,0.0,0.0,0.0,0.0,0.0,0.0,0.0,0.0,0.0,0.0,0.0,0.0,0.0,0.0,0.0,0.0,0.0,0.0,0.0,0.0,0.0,0.0,0.0,0.0,0.0,0.0,0.0,0.0,0.0,0.0,0.0,0.0,0.0,0.0,3.2664,3.4628,3.6925,3.904,4.0934,4.2041,4.2238,4.2032,4.18,4.1486,4.1077,4.0458,3.9611,3.866,3.7439,3.6214,0.0,0.0,3.3029,3.2557,3.1959,3.3305,3.5552,3.8827,4.0394,4.2617,4.6689,4.6779,4.6946,0.0,4.7878,4.7698,4.8193,4.7698,0.0,0.0,4.7369,4.7549,4.8087,4.7608,4.7309,4.7309,4.7309,4.7309,4.7309,4.7452,4.7538,4.7538,4.6882,4.6651,4.6874,4.6066,4.6166,4.6999,4.6999,4.7371,4.8001,4.7868,4.7371,4.6709,4.6709,4.5814,4.4589,4.5317,4.4754,4.3664,0.0,0.0,0.0,0.0,0.0,0.0,0.0,2.1027,2.1515,2.3075,2.267,2.1977,2.1322,2.0009,1.9473,0.0,0.0,0.0,0.0,0.0,0.0,0.0,0.0,0.0,0.0,0.0,2.0342,1.9552,0.0,0.0,0.0,0.0,0.0,0.0,0.0,0.0,0.0,0.0,0.0,0.0,0.0,0.0,0.0,0.0,0.0,0.0,0.0,0.0,0.0,0.0,3.1827,3.4554,3.7585,3.9528,4.0959,4.2252,4.2471,4.2311,4.2303,4.1852,4.1115,4.0226,3.8893,3.734,3.567,0.0,0.0,0.0,3.1721,3.1693,3.1541,3.2856,0.0,3.7464,3.8691,4.0935,4.5603,4.5693,0.0,4.8506,4.8207,4.7938,0.0,4.7698,4.7309,4.7309,4.7309,4.7429,4.7758,4.7489,4.7309,4.7309,4.7309,4.7309,4.7309,4.7309,4.7309,4.7309,4.6651,4.6531,4.6985,4.5948,4.599,4.6745,4.6784,4.6999,4.7372,4.7407,4.7206,4.6908,4.6908,4.6212,4.5317,4.5649,4.5119,4.4158,0.0,0.0,0.0,0.0,0.0,0.0,0.0,2.2259,2.2874,2.4907,2.5204,2.4686,2.3302,2.1195,1.9918,0.0,0.0,0.0,0.0,0.0,0.0,0.0,0.0,0.0,0.0,0.0,0.0,1.9498,2.0142,0.0,0.0,0.0,0.0,0.0,0.0,0.0,0.0,0.0,0.0,0.0,0.0,0.0,0.0,0.0,0.0,0.0,0.0,0.0,0.0,0.0,3.0192,3.3036,3.6306,3.8535,4.0267,4.1667,4.2104,4.223,4.2494,4.1959,4.1036,3.9886,3.8187,3.6245,3.4151,3.2582,0.0,3.0733,3.0749,3.1012,3.1423,3.2258,3.3664,0.0,3.6776,3.8805,4.4097,4.4396,4.5244,0.0,4.8297,0.0,4.8087,4.7608,0.0,4.7309,4.7309,4.7309,4.7309,4.7309,4.7309,4.7309,4.7309,4.7309,4.7309,4.7309,4.7309,4.7309,4.6651,4.6629,4.7191,4.5856,4.5681,4.6448,4.6343,4.6483,4.6797,4.6848,4.6977,4.7139,4.7139,4.6676,4.6013,4.5847,4.5317,4.4589,0.0,0.0,0.0,0.0,0.0,0.0,0.0,2.2714,2.4227,2.6715,2.6563,2.6021,2.5605,2.3725,2.1776,0.0,0.0,0.0,0.0,0.0,0.0,0.0,0.0,0.0,0.0,0.0,0.0,2.022,2.0534,0.0,0.0,0.0,0.0,0.0,0.0,2.0764,0.0,0.0,0.0,0.0,0.0,0.0,0.0,0.0,0.0,0.0,0.0,0.0,0.0,0.0,0.0,3.037,3.1959,3.5802,3.9837,4.0437,0.0,0.0,4.1862,4.159,4.1036,3.9886,3.7874,3.5746,3.407,0.0,3.1171,3.0677,3.0572,3.0735,3.1391,3.1092,3.2018,3.5878,0.0,3.7455,4.2525,4.3359,4.4176,4.6066,0.0,0.0,4.7399,4.7339,4.7309,4.7309,4.7309,4.7309,4.7309,4.7309,4.7309,4.7309,4.7309,4.7309,4.7309,4.7309,4.7309,4.7309,4.6651,4.6322,4.6346,4.4997,4.4849,4.5573,4.4977,4.552,4.6795,4.6831,4.7239,4.7901,4.7901,4.7438,4.6709,4.6046,4.5317,4.4589,0.0,0.0,0.0,0.0,0.0,0.0,2.2641,2.3294,2.4613,2.7785,2.798,2.7521,2.6846,2.5515,2.3481,2.0581,0.0,0.0,0.0,0.0,0.0,0.0,0.0,0.0,0.0,0.0,2.1381,2.0722,2.1119,0.0,0.0,0.0,0.0,0.0,0.0,2.1106,2.1486,0.0,0.0,0.0,0.0,0.0,0.0,0.0,0.0,0.0,0.0,0.0,0.0,0.0,0.0,0.0,2.9076,3.1585,0.0,0.0,3.8863,4.0138,4.0802,4.115,4.1036,3.9886,3.7723,3.5542,3.4041,0.0,3.0277,3.0563,2.9958,2.9832,3.1244,3.0829,3.1041,0.0,0.0,0.0,3.8246,3.9348,4.0928,4.4016,4.5412,0.0,0.0,0.0,4.7309,4.7309,4.7309,4.7309,4.7309,4.7309,4.7309,4.7309,4.7309,4.7309,4.7309,4.7309,4.7309,4.7309,4.704,4.692,4.686,4.5514,4.509,4.5354,4.4772,4.4849,4.5483,4.6413,4.6999,4.7304,4.7341,4.7139,4.6742,4.5549,4.4953,4.4589,0.0,0.0,0.0,0.0,0.0,1.991,2.2847,2.3417,2.4665,2.7847,2.8416,2.8309,2.7565,2.6299,2.449,2.197,2.0534,0.0,0.0,0.0,0.0,0.0,0.0,0.0,0.0,0.0,2.1788,2.1389,2.1788,2.1694,0.0,0.0,2.1088,2.1052,0.0,0.0,0.0,0.0,0.0,0.0,0.0,0.0,0.0,0.0,0.0,0.0,0.0,0.0,0.0,0.0,0.0,0.0,0.0,0.0,0.0,0.0,3.6261,3.8016,3.9229,4.0,4.0305,3.9337,3.72,3.4991,0.0,0.0,2.9716,3.0447,2.9667,2.9341,3.104,3.0509,3.0277,0.0,0.0,3.2644,3.5465,3.6747,3.8661,0.0,0.0,4.4986,0.0,4.6993,4.7309,4.7309,4.7309,4.7309,4.7309,4.7309,4.7309,4.7309,4.7309,4.7309,4.7309,4.7309,4.7309,4.7309,4.7309,4.7309,4.7249,4.5903,4.5304,4.5256,4.4464,4.4282,4.4586,4.5917,4.662,4.6831,4.6848,4.704,4.7007,4.5317,4.4821,4.4887,0.0,0.0,0.0,0.0,0.0,0.0,2.1565,2.3055,2.4652,2.6713,2.7606,2.8002,2.798,2.5928,2.4486,2.4465,2.1786,0.0,0.0,0.0,0.0,0.0,0.0,0.0,0.0,0.0,2.254,2.2266,2.254,2.2444,2.197,2.1788,2.1403,2.0928,0.0,0.0,0.0,0.0,0.0,0.0,0.0,0.0,0.0,0.0,0.0,0.0,0.0,0.0,0.0,0.0,0.0,0.0,0.0,2.6944,2.7878,0.0,3.3489,3.5476,3.7091,3.8096,3.8606,3.8057,3.5989,3.394,0.0,0.0,2.9775,3.0447,2.9811,2.951,3.0749,2.9982,2.9661,3.1329,0.0,0.0,3.5258,3.6645,3.8187,0.0,0.0,4.3067,4.4669,4.6311,4.7309,4.7309,4.7309,0.0,4.7309,4.7309,4.7309,4.7309,4.7309,4.7309,4.7309,4.7309,4.7309,4.7309,4.7309,4.7309,4.7249,4.5903,4.5304,4.5214,4.3898,4.3771,4.4548,4.5369,4.6163,4.6831,4.6848,4.7338,4.7736,4.5516,4.5152,4.5582,0.0,0.0,0.0,0.0,0.0,0.0,0.0,2.1681,2.2994,2.5001,2.5472,2.5863,2.6518,2.5011,2.3923,2.3923,2.2237,0.0,0.0,0.0,0.0,0.0,0.0,0.0,0.0,0.0,2.3014,2.3247,2.334,2.3438,2.3513,2.2901,2.2571,2.2438,2.1777,0.0,0.0,0.0,0.0,0.0,0.0,0.0,0.0,0.0,0.0,0.0,0.0,0.0,0.0,0.0,0.0,0.0,0.0,0.0,0.0,2.8192,3.0379,3.2969,3.4444,3.5473,3.597,3.5458,3.4152,3.2853,3.22,3.0483,2.9092,2.9544,2.8541,2.8053,2.9726,2.9175,2.932,3.1818,3.2478,0.0,0.0,0.0,0.0,4.0314,4.3609,4.5945,0.0,0.0,4.7309,4.7309,4.7309,4.7309,4.7309,4.7309,4.7309,4.7309,4.7309,4.7309,4.7309,4.7309,4.7309,4.7309,4.7309,4.7309,4.7249,4.5764,4.518,4.5214,4.3737,4.3299,4.3732,4.4548,4.5369,4.6,4.5533,4.6126,4.6974,4.4754,4.4423,4.4887,0.0,0.0,0.0,0.0,0.0,0.0,0.0,2.0755,2.1865,2.3351,2.3618,2.4159,2.5491,2.4181,2.3444,2.4203,2.2957,0.0,0.0,0.0,0.0,0.0,0.0,0.0,0.0,2.2403,2.3091,2.4268,2.4268,2.4469,2.4805,2.4338,2.3738,2.3084,2.2475,2.2071,0.0,0.0,0.0,0.0,0.0,0.0,2.4096,0.0,0.0,0.0,0.0,0.0,0.0,0.0,0.0,0.0,0.0,0.0,0.0,0.0,2.8132,3.0379,3.1873,3.2988,3.3714,3.3489,3.2734,3.1952,3.1626,0.0,2.933,2.978,2.8886,2.8483,2.9871,2.932,2.9317,3.1437,3.1884,3.2449,0.0,0.0,0.0,4.1227,0.0,0.0,0.0,4.7369,4.7578,4.7339,4.7309,4.7309,4.7309,4.7309,4.7309,4.7309,4.7309,4.7309,4.7309,4.7309,4.7266,4.7149,4.7266,4.7222,4.6989,4.5637,4.5054,4.512,4.3656,4.313,0.0,4.3922,4.4557,4.5231,4.4521,4.5179,4.6245,4.4293,4.4092,4.4589,0.0,0.0,0.0,0.0,0.0,0.0,0.0,2.0163,2.1211,2.1862,2.2129,2.2957,2.477,2.3394,2.3023,2.4854,0.0,0.0,0.0,0.0,0.0,0.0,0.0,0.0,2.2013,2.1852,2.2886,2.5145,2.5207,2.5469,2.5908,2.595,2.4945,2.3154,2.3386,2.2915,2.1947,2.2725,2.3085,2.3155,2.3835,2.4096,0.0,0.0,0.0,0.0,0.0,0.0,0.0,0.0,0.0,0.0,0.0,0.0,0.0,0.0,0.0,0.0,0.0,3.0697,3.1675,3.2027,3.1594,3.1101,3.1177,0.0,0.0,3.0778,3.0455,3.0219,3.0808,3.0016,2.9607,3.0627,3.0621,3.1377,0.0,3.574,0.0,0.0,4.4991,0.0,4.6394,4.7549,4.8027,4.7429,4.7339,4.7309,4.7309,4.7309,4.7309,4.7309,4.7266,4.7266,4.7309,4.7266,4.7106,4.6931,4.7149,4.7019,4.6535,4.548,4.5013,4.4894,4.3586,4.3101,4.3249,4.3358,4.3831,4.4397,4.3778,4.4462,4.5619,4.4101,4.4062,4.4655,0.0,0.0,0.0,0.0,0.0,0.0,0.0,0.0,0.0,0.0,2.1721,2.2084,2.2892,2.2586,2.2462,0.0,0.0,0.0,0.0,0.0,0.0,0.0,0.0,0.0,2.2286,2.227,2.3015,2.4653,2.5225,2.5761,2.6195,2.6367,2.5819,2.4679,2.3974,2.2978,2.196,2.2607,2.2978,2.3155,2.3835,2.4096,0.0,0.0,0.0,0.0,2.4256,2.4674,0.0,0.0,0.0,0.0,0.0,0.0,0.0,0.0,2.6373,2.6985,2.7395,0.0,2.9656,2.9285,2.9578,2.9951,0.0,3.0032,0.0,0.0,0.0,0.0,0.0,2.9433,2.9746,3.2068,3.255,3.33,3.5392,3.862,0.0,4.541,4.6941,4.7645,4.757,4.7962,4.8207,4.8057,4.7578,4.7309,4.7309,4.7309,4.7309,4.7309,4.7106,4.7062,4.7309,4.6961,4.68,4.6931,4.6975,4.6694,4.6132,4.5357,4.4787,4.4415,4.3418,4.2832,4.262,4.2634,4.2809,4.2926,4.2229,4.3534,4.5538,4.3583,4.3961,4.5351,0.0,0.0,0.0,0.0,0.0,0.0,0.0,0.0,0.0,0.0,0.0,0.0,0.0,0.0,0.0,0.0,0.0,0.0,0.0,0.0,0.0,0.0,0.0,2.1789,2.2468,2.2632,2.3647,2.561,2.5891,2.6541,2.7454,2.7107,2.6321,2.5139,2.3853,2.2933,2.2355,2.268,2.2972,2.3232,2.3701,0.0,0.0,0.0,0.0,0.0,2.4096,2.4491,0.0,2.509,2.5879,2.6649,0.0,0.0,0.0,0.0,2.6379,2.6882,2.6604,2.7451,2.8369,2.8253,2.8574,2.9072,2.9503,0.0,0.0,0.0,0.0,0.0,0.0,3.0337,3.0799,3.2463,3.312,3.448,0.0,0.0,4.3638,4.7001,4.7752,4.8246,4.8876,4.8549,4.8297,4.8297,4.7668,4.7309,4.7309,4.7309,4.7309,4.7309,4.6931,4.6887,4.7106,4.6756,4.6432,4.6181,4.6652,4.6296,4.5207,4.5065,4.4697,4.4124,4.3318,4.2783,4.2381,4.2081,4.1963,4.1925,4.1247,4.2163,4.3713,4.2911,4.3323,4.4255,0.0,0.0,0.0,0.0,0.0,0.0,0.0,0.0,0.0,0.0,0.0,0.0,0.0,0.0,0.0,0.0,0.0,0.0,0.0,0.0,0.0,0.0,0.0,2.205,2.3059,2.3195,2.4481,2.6969,2.6952,2.7546,2.8637,2.796,2.6802,2.5248,2.3718,2.2969,2.2809,2.2971,2.3152,2.3315,2.3604,0.0,0.0,0.0,0.0,0.0,0.0,0.0,0.0,2.5804,2.6245,2.6559,2.6861,0.0,0.0,0.0,0.0,0.0,2.671,2.7309,2.8102,2.8244,2.8416,2.8771,2.9549,0.0,0.0,0.0,0.0,0.0,0.0,3.1841,0.0,0.0,3.3635,3.5785,3.9943,4.2034,4.4348,4.7665,4.7932,4.8353,4.9734,4.891,4.8297,4.8297,4.7668,4.7309,4.7309,4.7309,4.7309,4.7309,4.6844,4.6682,4.6695,4.6565,4.6138,4.5449,4.6313,4.587,4.4336,4.4714,4.4507,4.3853,4.3288,4.2723,4.2201,4.1662,4.1284,4.1071,4.0519,4.0814,4.1617,4.2206,4.2587,4.2873,0.0,0.0,0.0,0.0,0.0,0.0,0.0,0.0,0.0,0.0,0.0,0.0,0.0,0.0,0.0,0.0,0.0,0.0,0.0,0.0,0.0,2.38,2.2395,2.2728,2.5104,2.4695,2.5379,2.7222,2.8161,2.8343,2.7882,2.874,2.796,2.5753,2.4719,2.3687,2.2853,2.3468,2.3594,2.3371,2.4008,0.0,0.0,0.0,0.0,0.0,0.0,0.0,0.0,2.4819,2.5998,2.7271,2.6125,0.0,0.0,0.0,0.0,0.0,2.771,2.9029,2.9893,2.8886,2.9434,3.0273,3.0422,0.0,0.0,0.0,0.0,0.0,0.0,3.2491,3.2987,3.402,3.6314,3.9062,4.211,4.3921,4.5437,4.6954,4.8041,4.8611,4.8296,4.8276,4.8297,4.8297,4.7668,4.7309,4.7309,4.7309,4.7309,4.7309,4.7019,4.6533,4.5841,4.5961,4.6016,4.6049,4.5903,4.5371,4.4562,4.4418,4.4026,4.3399,4.331,4.2602,4.1572,4.1452,4.074,3.9709,3.9619,4.0391,4.1562,4.1647,4.2462,4.3555,0.0,0.0,0.0,0.0,0.0,0.0,0.0,0.0,0.0,0.0,0.0,0.0,0.0,0.0,0.0,0.0,0.0,0.0,0.0,0.0,0.0,2.4785,2.4337,2.4853,2.6463,2.6795,2.7782,2.947,2.9635,2.9806,2.9864,2.8538,2.7064,2.5448,2.4224,2.3382,2.2944,2.3416,2.3566,2.3498,0.0,0.0,0.0,0.0,0.0,0.0,0.0,0.0,0.0,0.0,2.6151,2.7121,2.6438,0.0,0.0,0.0,0.0,0.0,2.7488,2.8843,3.0009,2.9743,3.069,3.1533,0.0,0.0,0.0,0.0,0.0,0.0,0.0,0.0,3.5525,3.7709,3.9579,4.1377,4.3127,4.4193,4.5268,4.6723,4.7252,4.7804,4.8561,4.8129,4.7908,4.8267,4.7668,4.7309,4.7309,4.7309,4.7309,4.7309,4.7019,4.6474,4.562,4.5683,4.5376,4.4631,4.4819,4.4461,4.3737,4.4002,4.3837,4.329,4.329,4.2791,4.1931,4.1572,4.0816,3.9918,3.9559,3.9805,4.0446,4.0811,4.1878,4.3102,0.0,0.0,0.0,0.0,0.0,0.0,0.0,0.0,0.0,0.0,0.0,0.0,0.0,0.0,0.0,0.0,0.0,0.0,0.0,0.0,2.3712,2.5271,2.6022,2.7024,2.8379,2.9209,3.0458,3.2124,3.1458,3.1298,3.1542,2.8521,2.6474,2.5273,2.394,2.322,2.3016,2.3298,2.3549,2.3666,0.0,0.0,0.0,0.0,0.0,0.0,0.0,0.0,0.0,0.0,0.0,0.0,0.0,0.0,0.0,2.6889,2.679,2.7053,2.7612,2.8904,3.0163,3.0642,0.0,0.0,0.0,0.0,0.0,0.0,0.0,0.0,0.0,3.6197,3.8262,4.091,4.2276,4.3289,4.4122,4.4691,4.5459,4.6753,4.6721,4.7135,4.8566,4.7864,4.7519,4.8027,4.7578,4.7309,4.7309,4.7309,4.7309,4.7309,4.6957,4.6324,4.5457,4.5266,4.4667,4.352,4.3998,4.3897,4.3248,4.3645,4.3647,4.329,4.314,4.2731,4.2111,4.1452,4.0756,4.0127,3.9619,3.9517,3.9732,4.027,4.126,4.2332,0.0,0.0,0.0,0.0,0.0,0.0,0.0,0.0,0.0,0.0,0.0,0.0,0.0,0.0,0.0,0.0,0.0,0.0,0.0,0.0,2.3556,2.4883,2.6249,2.8407,3.1589,3.1691,3.2675,3.4653,3.3938,3.2698,3.1038,2.9399,2.7632,2.5797,2.4814,2.3875,2.3038,2.3401,2.3689,2.3884,2.4023,0.0,0.0,0.0,0.0,0.0,0.0,0.0,0.0,0.0,0.0,0.0,0.0,0.0,2.7791,2.7736,2.7655,2.7869,2.9087,3.0365,3.1361,3.1421,3.1511,0.0,3.3842,3.3753,0.0,3.5011,0.0,0.0,0.0,3.8422,4.0502,4.1742,4.3545,4.5072,4.5756,4.6477,4.6976,4.6903,4.7214,4.7318,4.7109,4.7209,4.7339,4.7369,4.7339,4.7309,4.7309,4.7309,4.7309,4.7309,4.6668,4.5926,4.506,4.4424,4.4157,4.4235,4.4098,4.3979,4.3901,4.3538,4.3349,4.326,4.2701,4.2111,4.1414,4.0756,4.0098,3.9499,3.9403,3.9809,4.0409,4.0478,4.0959,4.1591,0.0,0.0,0.0,0.0,0.0,0.0,0.0,0.0,0.0,0.0,0.0,0.0,0.0,0.0,0.0,0.0,0.0,0.0,0.0,2.3001,2.3614,2.5004,2.6163,2.802,3.0704,3.2526,3.4373,3.6199,3.4994,3.3384,3.1399,2.9557,2.8311,2.7492,2.6227,2.5616,2.5485,2.5305,2.5206,2.5113,2.4674,2.4431,0.0,0.0,0.0,0.0,0.0,0.0,0.0,0.0,2.5862,2.6524,0.0,2.7426,2.8243,2.7626,2.7566,2.7839,2.8468,2.974,3.0881,3.0881,3.1839,0.0,0.0,3.525,3.5729,3.7045,3.7644,0.0,0.0,0.0,4.1918,4.324,4.4762,4.596,4.6312,4.6727,4.6934,4.6741,4.686,4.683,4.6569,4.6824,4.6957,4.6698,4.707,4.7309,4.7309,4.7309,4.713,4.6711,4.6399,4.5866,4.5,4.4858,4.4359,4.3478,4.3312,4.3148,4.2971,4.2624,4.2375,4.2132,4.2321,4.2021,4.1392,4.1115,4.0636,3.9978,3.9589,3.9589,3.9809,3.9809,4.027,4.0857,0.0,0.0,0.0,0.0,0.0,0.0,0.0,0.0,0.0,0.0,0.0,0.0,0.0,0.0,0.0,0.0,0.0,0.0,2.3001,2.3001,2.3523,2.4687,2.5782,2.734,2.9399,3.1989,3.4435,3.6724,3.5662,3.4076,3.1879,2.9912,2.904,2.9041,2.7347,2.6942,2.7472,2.6565,2.6165,2.6079,2.5261,2.4835,0.0,0.0,0.0,0.0,0.0,0.0,0.0,0.0,2.5753,0.0,0.0,0.0,0.0,0.0,2.7796,2.7929,2.7942,2.903,3.0197,3.0462,0.0,0.0,3.5968,3.6776,3.7584,3.929,3.9858,4.0187,4.0636,0.0,0.0,4.3798,4.5263,4.6433,4.6755,4.6622,4.6474,4.6446,4.6108,4.59,4.5883,4.6156,4.6304,4.6309,4.6741,4.71,4.7309,4.7309,4.71,4.6651,4.6232,4.5699,4.5096,4.4594,4.3858,4.2803,4.2466,4.2218,4.2081,4.1888,4.1688,4.1384,4.1662,4.1542,4.1055,4.0846,4.0487,4.0038,3.9589,3.9373,3.9373,3.9373,3.9702,4.013,0.0,0.0,0.0,0.0,0.0,0.0,0.0,0.0,0.0,0.0,0.0,0.0,0.0,0.0,0.0,0.0,0.0,0.0,2.3001,2.3001,2.322,2.3662,2.5104,2.6611,2.8143,3.0042,3.2667,3.6053,3.6023,3.4775,3.2328,3.0587,2.9875,3.015,2.798,2.7656,2.8606,2.6855,2.636,2.6646,2.5843,2.5423,2.5274,0.0,0.0,0.0,0.0,0.0,0.0,0.0,2.5507,2.5431,0.0,0.0,0.0,2.8523,2.8565,2.831,2.7842,2.8544,2.9578,3.0345,0.0,0.0,3.7644,3.8392,3.914,4.1841,4.1901,4.1414,4.1414,4.1961,0.0,4.32,4.4964,4.6518,4.7189,4.6324,4.5693,4.5938,4.5004,4.4464,4.4929,4.4971,4.5352,4.6219,4.6279,4.6591,4.7249,4.7279,4.7279,4.7279,4.5992,4.5274,4.5274,4.3399,4.241,4.2381,4.1722,4.1422,4.1422,4.1422,4.1422,4.1324,4.0696,4.0397,4.0337,3.9679,3.9373,3.9373,3.9373,3.9373,3.9373,3.9373,3.9373,3.9373,0.0,0.0,0.0,0.0,0.0,0.0,0.0,0.0,0.0,0.0,0.0,0.0,0.0,0.0,0.0,0.0,0.0,0.0,2.3023,2.3001,2.3067,2.322,2.3924,2.4812,2.5862,2.8386,3.0974,3.3583,3.4169,3.3518,3.1747,3.1167,3.0902,3.0903,3.0223,3.0088,3.0228,2.8594,2.799,2.7997,2.696,2.6271,2.5832,0.0,0.0,0.0,0.0,0.0,0.0,0.0,0.0,0.0,0.0,0.0,0.0,2.8364,2.8455,2.8566,2.8671,2.9413,3.0317,3.1032,0.0,0.0,0.0,3.8392,0.0,0.0,4.288,4.2761,4.2761,4.3299,4.3808,4.3988,4.5304,4.6296,4.6377,4.6228,4.5888,4.5327,4.525,4.503,4.4542,4.5035,4.5302,4.4934,4.5334,4.5693,4.5873,4.5873,4.5693,4.5214,4.4796,4.4616,4.4616,4.3569,4.2821,4.2381,4.1722,4.1145,4.0696,4.0696,4.0427,4.0008,4.0277,4.0127,3.9672,3.9354,3.9265,3.9373,3.9228,3.9265,3.9373,3.9373,3.9373,3.9373,0.0,0.0,0.0,0.0,0.0,0.0,0.0,0.0,0.0,0.0,2.2025,2.2352,0.0,0.0,0.0,2.4207,2.3766,0.0,0.0,2.311,2.3001,2.3001,2.3422,2.4167,2.524,2.7726,2.9635,3.0874,3.2309,3.2596,3.168,3.2014,3.2133,3.212,3.212,3.1967,3.1575,3.0203,2.9367,2.8876,2.8178,2.7429,2.662,0.0,0.0,0.0,0.0,0.0,0.0,0.0,0.0,0.0,0.0,0.0,0.0,2.7674,2.8082,2.8567,2.8651,2.9746,0.0,3.2049,3.4592,3.7345,3.917,0.0,0.0,0.0,4.4496,4.3977,4.3738,4.3798,4.3888,4.3888,4.4784,4.555,4.5734,4.5441,4.5072,4.4644,4.4356,4.4078,4.3704,4.4152,4.4376,4.4184,4.4635,4.4915,4.4915,4.4915,4.4616,4.3917,4.3658,4.3539,4.3539,4.2641,4.1983,4.1602,4.0905,4.0397,4.0008,4.0008,3.9798,3.9403,3.9828,3.9798,3.9373,3.9192,3.9228,3.9373,3.9192,3.9228,3.9373,3.9373,3.9373,3.9373,0.0,0.0,2.2515,2.2927,0.0,0.0,0.0,0.0,0.0,2.2138,2.1949,2.2321,0.0,0.0,0.0,2.4989,2.3853,2.3241,0.0,0.0,2.3023,2.3067,2.3607,2.4481,2.5704,2.7615,2.8472,2.833,3.0647,3.1746,3.1811,3.2819,3.3341,3.343,3.3535,3.3195,3.2463,3.1313,3.0226,2.9231,2.9231,2.8516,2.7438,2.6896,0.0,0.0,0.0,0.0,0.0,0.0,0.0,0.0,2.5581,2.612,2.6461,2.6717,2.7562,2.8397,2.8312,2.9813,3.1782,3.3304,3.5699,0.0,4.1025,4.3479,4.5544,4.6711,0.0,4.5155,4.4436,4.3828,4.3439,4.3379,4.3917,4.4586,4.5125,4.4347,4.3755,4.389,4.2884,4.2357,4.2677,4.2747,4.3064,4.3742,4.3975,4.4067,4.4047,4.4047,4.3778,4.314,4.2581,4.2321,4.2321,4.1025,4.0397,4.0397,3.9738,3.9373,3.9373,3.9373,3.9373,3.9373,3.9373,3.9373,3.9373,3.9192,3.9228,3.9373,3.9192,3.9228,3.9373,3.9373,3.9373,3.9373,0.0,0.0,2.2478,2.2703,0.0,0.0,0.0,0.0,2.2327,2.2327,2.2138,2.237,2.3172,2.3083,0.0,2.4534,2.3984,2.3575,2.3684,0.0,2.3176,2.3509,2.4692,2.5306,2.5251,2.6685,2.7521,2.7715,2.9791,3.0777,3.0753,3.2651,3.306,3.2215,3.3169,3.2751,3.1287,3.0137,2.9222,2.8569,2.8569,2.815,2.7438,2.6896,2.6242,0.0,0.0,0.0,0.0,0.0,0.0,0.0,2.5346,2.5945,2.6465,2.6718,2.7655,2.8796,2.949,3.0924,0.0,3.4622,3.7434,4.0457,4.309,4.4107,4.4466,4.4186,4.5214,4.5723,4.4526,4.4616,4.4706,4.4197,4.4646,4.4945,4.4586,4.4162,4.3772,4.3278,4.3096,4.2948,4.2707,4.2996,4.2978,4.2466,4.2486,4.2365,4.2043,4.2013,4.1953,4.1803,4.1654,4.1632,4.1632,4.0816,4.0397,4.0397,3.9738,3.9373,3.9373,3.9373,3.9373,3.9373,3.9373,3.9373,3.9373,3.9192,3.9228,3.9373,3.9192,3.9228,3.9373,3.9373,3.9373,3.9373,0.0,0.0,0.0,0.0,0.0,0.0,0.0,0.0,2.2658,2.2445,2.2214,2.2366,2.3023,2.299,0.0,0.0,2.3809,2.3591,2.4071,2.3416,2.3329,2.4071,2.5209,2.5684,2.5344,2.6449,2.7325,2.7852,2.8587,2.9428,3.031,3.228,3.2698,3.185,3.2777,3.2202,3.0529,2.9954,2.9196,2.8446,2.8734,2.8464,2.7837,2.7,2.6321,2.5636,2.4488,0.0,0.0,0.0,0.0,0.0,0.0,0.0,2.5564,2.6009,2.7256,2.8655,2.9406,0.0,0.0,3.6237,0.0,4.0935,4.291,4.3389,4.3269,4.294,4.4436,4.5514,4.4496,4.4586,4.4706,4.4377,4.4347,4.4347,4.4317,4.3764,4.3234,4.2879,4.2808,4.2648,4.2421,4.2503,4.2291,4.1745,4.1694,4.1441,4.0823,4.0868,4.0905,4.0905,4.0606,4.0606,4.0905,4.0247,3.9918,3.9918,3.9589,3.9373,3.9373,3.9373,3.9373,3.9373,3.9373,3.9373,3.9373,3.9192,3.9228,3.9373,3.9192,3.9228,3.9373,3.9373,3.9373,3.9373,0.0,0.0,0.0,0.0,0.0,0.0,0.0,0.0,0.0,2.2445,2.2252,2.2362,2.2917,2.2788,2.3145,0.0,0.0,0.0,2.429,2.3591,2.3525,2.4443,2.5316,2.5752,2.5615,2.6535,2.7334,2.8019,2.763,2.8293,2.9996,3.1731,3.2306,3.1823,3.2333,3.1653,3.0074,2.9892,2.9222,2.8255,2.8708,2.8577,2.8001,2.685,2.6086,2.5506,2.4461,2.4096,2.4096,2.4096,0.0,0.0,0.0,0.0,2.4587,2.5093,2.6598,2.8168,2.8739,0.0,3.4379,3.7614,3.932,0.0,4.1931,4.2231,4.2231,4.2231,4.3609,4.4586,4.3928,4.3808,4.3808,4.3808,4.3319,4.316,4.3898,4.3108,4.2471,4.2511,4.2176,4.1889,4.1773,4.1573,4.1351,4.1115,4.1083,4.0755,3.9951,4.0226,4.0397,4.036,3.9732,3.9738,4.0397,3.9619,3.932,3.9373,3.9373,3.9373,3.9373,3.9373,3.9349,3.923,3.923,3.923,3.9224,3.9169,3.9265,3.9373,3.9228,3.9265,3.9373,3.9373,3.9373,3.9373,0.0,0.0,0.0,0.0,0.0,0.0,0.0,0.0,0.0,0.0,2.2365,2.2386,2.2488,2.2633,2.2994,2.3749,2.3329,2.3241,2.3749,0.0,0.0,2.4465,2.5279,2.5707,2.5677,2.6491,2.7065,2.7308,2.7795,2.8471,2.9431,3.1156,3.1876,3.1797,3.1876,3.1249,3.0022,2.9039,2.8229,2.7568,2.7183,2.7007,2.6798,2.5672,2.5175,2.5018,2.436,2.4096,2.4096,2.4096,2.4096,0.0,0.0,0.0,2.4536,2.4587,2.5765,2.723,2.7824,0.0,3.472,0.0,3.896,3.9888,0.0,0.0,4.1504,0.0,4.2201,4.259,4.1893,4.1773,4.1773,4.1773,4.156,4.1701,4.2521,4.2011,4.1634,4.1823,4.1463,4.0989,4.0408,4.0332,4.0159,3.9759,3.9938,3.9697,3.8981,3.9884,4.0323,4.0144,3.9659,3.9738,4.0397,3.917,3.8841,3.9373,3.9373,3.9373,3.9373,3.9373,3.908,3.8512,3.8512,3.8512,3.8571,3.9134,3.9373,3.9373,3.9373,3.9373,3.9373,3.9373,3.9373,3.9373,0.0,0.0,0.0,0.0,0.0,0.0,0.0,0.0,0.0,0.0,0.0,2.2289,2.2402,2.259,2.2864,2.3269,2.3132,2.3088,2.3307,2.3531,2.3831,2.405,2.486,2.5279,2.5256,2.6046,2.6724,2.7268,2.7193,2.8038,2.9771,3.0492,3.1014,3.1339,3.0686,3.0137,2.9562,2.8412,2.7575,2.7027,2.6798,2.6654,2.6427,0.0,0.0,2.5179,2.438,2.4096,2.4096,2.4096,2.4096,2.4096,2.4096,0.0,0.0,0.0,2.5398,2.6743,2.841,3.0852,3.3497,0.0,3.7283,3.8631,3.9978,4.0277,4.0397,4.0756,4.0756,4.0846,4.1332,4.1422,4.1542,4.1901,4.1547,4.1509,4.2127,4.1577,4.1067,4.1057,4.0752,4.0408,4.0118,3.9887,3.9682,3.9496,3.9333,3.9092,3.8797,3.8921,3.9106,3.9358,3.8591,3.8489,3.9182,3.8297,3.8003,3.8302,3.8302,3.8302,3.8272,3.7943,3.8003,3.8392,3.8392,3.8182,3.7883,3.8571,3.8841,3.8871,3.926,3.9373,3.9373,3.9373,3.9373,3.9373,0.0,0.0,0.0,0.0,0.0,0.0,0.0,0.0,0.0,0.0,0.0,2.2214,2.2365,0.0,0.0,0.0,2.3001,2.3045,2.3176,2.3378,2.3629,2.3837,2.4446,2.4825,2.4877,2.5538,2.6297,2.7067,2.6766,2.7758,2.9892,3.0022,3.0424,3.0947,3.0085,2.9598,2.9196,2.802,2.7288,2.687,2.6524,2.6427,0.0,0.0,0.0,0.0,0.0,2.4324,2.4402,2.4174,2.4096,2.4096,2.4096,2.4096,0.0,0.0,0.0,0.0,0.0,0.0,3.1684,3.3469,3.5208,3.6914,0.0,0.0,3.8901,3.9709,3.9499,3.9499,4.0666,4.0876,4.1055,4.1496,4.1167,4.1002,4.1427,4.0908,4.0391,4.0266,4.0003,3.9799,3.9625,3.9343,3.9156,3.9156,3.873,3.8488,3.8414,3.8082,3.8089,3.8495,3.7647,3.752,3.821,3.7694,3.7404,3.7404,3.7404,3.7404,3.7404,3.6926,3.7165,3.7913,3.7913,3.7614,3.7255,3.8063,3.8392,3.8452,3.914,3.932,3.917,3.9349,3.9164,3.896,0.0,0.0,0.0,0.0,0.0,0.0,0.0,0.0,0.0,0.0,0.0,2.2402,2.2402,2.274,2.3001,2.3001,2.3001,2.3198,2.3618,2.3285,2.3392,2.4256,2.424,0.0,2.4789,2.5159,2.57,2.6465,2.6992,2.7972,2.9327,2.9839,3.0424,3.0973,3.0921,3.0294,2.9196,0.0,2.7464,2.7359,0.0,0.0,0.0,0.0,0.0,0.0,0.0,2.4999,2.5288,2.4376,2.4096,2.4096,2.4096,2.4096,2.4096,0.0,0.0,0.0,0.0,2.7964,0.0,3.1689,3.3199,3.4593,0.0,0.0,3.6985,3.8242,3.8482,3.8661,3.9379,3.9529,3.9457,3.9275,3.9238,3.9372,3.9837,3.9706,3.9563,3.9563,3.9363,3.9015,3.8347,3.826,3.826,3.826,3.7901,3.7587,3.7397,3.7732,3.7811,3.766,3.734,3.752,3.821,3.7694,3.7404,3.7404,3.7404,3.7404,3.7404,3.7375,3.7075,3.6596,3.6596,3.6567,3.6626,3.7883,3.8392,3.8452,3.914,3.902,3.8512,3.917,3.8601,3.7704,0.0,0.0,0.0,0.0,0.0,0.0,0.0,0.0,0.0,0.0,0.0,0.0,0.0,2.2703,2.2852,2.3001,2.3001,2.3067,2.3241,2.3088,2.3275,2.3824,2.4073,2.4381,2.4801,2.5111,2.5652,2.638,2.6615,2.744,2.8856,2.9704,3.0095,3.0054,2.9949,2.9666,2.9196,2.802,0.0,2.6974,2.6693,0.0,0.0,0.0,0.0,2.7172,2.6369,2.586,2.5438,2.5112,2.4606,0.0,0.0,0.0,0.0,0.0,0.0,0.0,0.0,0.0,0.0,2.9839,3.1028,3.2356,3.444,3.5418,3.6094,3.7007,3.7494,3.7823,3.8093,3.8482,3.8865,3.9241,3.8835,3.8483,3.8568,3.873,3.8668,3.814,3.8356,3.8463,3.8231,3.8315,3.8389,3.8389,3.7879,3.7565,3.7521,3.6704,3.6266,3.6195,3.5898,3.5963,3.6436,3.6294,3.6178,3.6178,3.6178,3.6178,3.6178,3.6178,3.6058,3.5848,3.5848,3.5848,3.5938,3.6806,3.7165,3.7285,3.8332,3.8362,3.7853,3.8512,3.8452,3.8033,0.0,0.0,0.0,0.0,0.0,0.0,0.0,0.0,0.0,0.0,0.0,0.0,0.0,0.0,2.3416,2.3263,2.3088,2.3001,2.3001,2.3001,2.3224,2.3776,2.4055,2.4454,2.4957,2.5182,2.5652,2.638,2.638,2.7135,2.8547,2.921,2.9496,2.9398,2.8933,2.8908,0.0,2.8229,2.7497,2.7,2.71,2.7291,2.7574,0.0,2.8126,2.8686,2.753,2.7013,2.6713,2.6039,2.5563,0.0,0.0,0.0,0.0,0.0,0.0,0.0,2.4935,0.0,0.0,0.0,2.9268,3.0267,3.259,3.3412,3.4039,3.5211,3.5818,3.6208,3.6683,3.6892,3.7331,3.8394,3.8145,3.7706,3.7386,3.766,3.7638,3.7012,3.7331,3.7564,3.7564,3.7674,3.7747,3.7747,3.72,3.685,3.685,3.5723,3.5107,3.5141,3.5003,3.5067,3.5392,3.5696,3.5729,3.5519,3.5729,3.5729,3.5519,3.5519,3.5519,3.5519,3.5519,3.5519,3.5549,3.6207,3.6477,3.6596,3.7644,3.7674,3.7195,3.7823,3.7793,3.7464,0.0,0.0,0.0,0.0,0.0,0.0,0.0,0.0,0.0,2.3717,0.0,0.0,0.0,0.0,0.0,2.3804,2.3285,2.3023,2.3001,2.3001,2.3372,2.4164,2.42,2.4539,2.53,2.53,2.5687,2.6414,2.6414,2.7096,2.8386,0.0,2.8673,2.9196,2.8046,2.815,2.9205,2.8603,2.802,2.7482,2.7146,2.7686,2.8739,2.8907,2.9974,3.106,2.8531,2.8392,2.9144,2.7122,2.6914,0.0,0.0,0.0,0.0,0.0,0.0,0.0,0.0,0.0,0.0,0.0,0.0,0.0,3.0773,3.063,3.0692,3.2948,3.3452,3.3853,3.518,3.4763,3.4747,3.6502,3.6996,3.6926,3.6357,3.6458,3.6529,3.6286,3.6286,3.6315,3.6315,3.6315,3.6315,3.6315,3.577,3.5392,3.5392,3.4748,3.4496,3.4698,3.4835,3.5001,3.5225,3.6048,3.6178,3.5549,3.6178,3.6148,3.5519,3.5519,3.5519,3.5519,3.5489,3.5489,3.5549,3.6178,3.6447,3.6507,3.7135,3.7015,3.6537,3.7165,3.6626,3.5818,0.0,0.0,0.0,0.0,0.0,0.0,0.0,0.0,0.0,0.0,0.0,0.0,2.5904,2.5344,2.4884,2.4649,2.3933,2.3372,2.3023,2.3001,2.3372,2.4164,2.42,2.4683,2.5711,0.0,0.0,0.0,0.0,0.0,0.0,0.0,0.0,2.8202,2.7728,2.7471,2.7399,2.6791,2.7157,2.8064,2.7301,2.7704,2.8669,2.8446,2.8666,2.8948,2.8204,2.8291,2.8577,2.7704,2.7404,2.7099,0.0,0.0,0.0,0.0,0.0,0.0,2.4344,0.0,0.0,0.0,0.0,0.0,2.8314,2.8616,2.9075,3.1302,3.1948,3.2537,3.384,3.3779,3.3682,3.4024,3.481,3.5502,3.5804,3.6166,3.6212,3.5712,3.6025,3.6315,3.6315,3.6422,3.6458,3.6315,3.5875,3.553,3.5392,3.4748,3.4496,3.4698,3.4731,3.5104,3.5911,3.6157,3.6253,3.6207,3.6387,3.6148,3.5519,3.5519,3.5519,3.5489,3.4981,3.504,3.5519,3.5699,3.5789,3.5848,3.6477,3.6357,3.5908,3.7015,3.7195,3.6896,0.0,0.0,0.0,2.3919,0.0,0.0,2.4959,2.5376,2.5854,0.0,0.0,0.0,2.7319,2.6942,2.6415,2.5647,2.4763,2.3971,2.3329,2.311,2.3372,2.4164,2.4322,2.4992,2.623,2.6148,0.0,0.0,0.0,0.0,0.0,0.0,0.0,0.0,2.6947,2.6634,2.6269,2.5458,2.6112,2.768,2.743,2.8022,2.9009,2.886,2.9099,2.9475,2.898,2.9298,2.9817,2.8821,2.8161,0.0,0.0,0.0,0.0,0.0,0.0,0.0,0.0,0.0,0.0,0.0,0.0,0.0,2.7301,2.7437,2.7701,2.9641,3.0156,3.0683,3.1952,3.2071,3.2097,3.2423,3.3001,3.3605,3.4247,3.4583,3.469,3.4637,3.4927,3.5125,3.5125,3.5228,3.5112,3.4748,3.4501,3.4447,3.4578,3.4259,3.4172,3.4534,3.4664,3.4974,3.5558,3.6259,3.6395,3.5989,3.6593,3.6387,3.5519,3.5789,3.5759,3.5489,3.537,3.54,3.5519,3.5519,3.5519,3.5549,3.5938,3.5848,3.5609,3.6327,3.6626,3.6596,0.0,0.0,2.448,2.5338,2.5455,2.5779,0.0,0.0,0.0,0.0,2.8746,2.8958,2.944,0.0,0.0,0.0,2.5823,2.4845,2.4028,2.3526,2.3593,2.4381,2.4706,2.5493,2.6717,2.6611,0.0,0.0,0.0,0.0,0.0,0.0,0.0,0.0,2.5981,2.5662,2.5532,2.4644,2.5192,2.6733,2.7352,2.8326,2.9337,2.9554,3.0231,3.0913,2.998,3.06,3.1622,3.0117,2.9129,0.0,0.0,0.0,0.0,0.0,2.5432,0.0,0.0,0.0,0.0,0.0,2.5963,0.0,2.6915,2.6654,2.6569,2.7967,2.8248,2.8624,2.9854,3.0002,3.0323,3.1271,3.1384,3.164,3.2394,3.2481,3.2716,3.3329,3.3387,3.3387,3.3387,3.3387,3.3122,3.2539,3.2481,3.2774,3.3358,3.3387,3.3678,3.4283,3.448,3.4668,3.4815,3.6271,3.6442,3.5347,3.6645,3.6653,3.5519,3.6118,3.6058,3.5519,3.6028,3.5968,3.5457,3.5429,3.5429,3.5519,3.5519,3.5519,3.5519,3.5579,3.5669,3.5789,2.4189,2.4859,2.5554,2.6113,2.7129,2.8083,0.0,0.0,0.0,3.0688,3.0981,3.1358,0.0,0.0,0.0,0.0,0.0,0.0,0.0,2.5157,2.5087,2.5546,2.603,2.653,2.6934,2.7334,2.7541,0.0,0.0,0.0,0.0,0.0,0.0,0.0,2.538,2.4883,2.4461,2.5166,2.586,2.6486,2.6627,2.7291,2.8237,2.8554,2.8446,2.8191,2.8522,2.9486,3.0509,3.0481,2.9881,2.8908,0.0,0.0,0.0,2.5793,0.0,0.0,0.0,0.0,0.0,0.0,2.5546,0.0,2.5183,2.5176,2.5535,2.6587,2.6613,2.6925,2.8425,2.8968,2.9197,2.9146,2.9926,3.0995,3.2307,3.2481,3.2571,3.2687,3.2716,3.2716,3.2716,3.2716,3.2658,3.251,3.2481,3.2539,3.2687,3.2716,3.3006,3.3678,3.3711,3.4305,3.5492,3.5825,3.5996,3.6,3.6301,3.6104,3.5519,3.5639,3.5639,3.5489,3.507,3.5036,3.5201,3.4827,3.5011,3.5519,3.5519,3.5519,3.5579,3.6088,3.6596,3.6985,2.477,2.5667,2.6659,2.7669,0.0,0.0,0.0,0.0,0.0,3.1983,3.242,3.2594,0.0,0.0,0.0,0.0,0.0,0.0,0.0,0.0,2.5074,2.5192,2.6089,2.6771,2.7189,2.7499,2.7893,2.8412,0.0,0.0,0.0,0.0,0.0,0.0,0.0,0.0,2.5252,2.5375,2.5939,2.681,2.7022,2.7652,2.8558,2.8619,2.8831,2.9113,2.9235,2.9739,3.047,3.1055,3.0545,0.0,2.8673,2.8412,2.8124,0.0,2.6844,2.7373,0.0,0.0,0.0,2.5986,2.5824,0.0,0.0,2.5082,2.5301,2.6344,2.6206,2.6301,2.7624,2.7825,2.7975,2.8508,2.8988,2.9726,3.1099,3.1461,3.1702,3.2115,3.205,3.1988,3.1988,3.1988,3.1903,3.1584,3.1555,3.1671,3.1988,3.1988,3.2454,3.3474,3.3503,3.4002,3.5064,3.5488,3.5624,3.5436,3.5963,3.5885,3.5359,3.5717,3.572,3.5489,3.4969,3.4755,3.4664,3.4105,3.4256,3.4882,3.5337,3.5519,3.5549,3.5878,3.6178,3.6477,2.5264,2.6377,2.7735,2.9036,0.0,0.0,0.0,0.0,0.0,3.2672,3.3181,0.0,0.0,0.0,0.0,0.0,0.0,0.0,0.0,2.6203,2.5322,2.5188,2.6236,2.7,2.7516,2.7635,2.8098,2.8935,0.0,0.0,0.0,0.0,0.0,0.0,0.0,0.0,0.0,0.0,0.0,2.7214,2.773,2.8395,2.9036,2.9284,2.9814,3.0496,3.0253,3.0432,3.0851,3.1446,3.1014,3.0153,2.9614,2.951,0.0,0.0,0.0,0.0,0.0,0.0,0.0,0.0,0.0,2.6002,0.0,0.0,0.0,2.6196,2.5876,0.0,0.0,0.0,2.6728,2.7806,2.8077,2.8469,2.944,3.0001,3.0619,3.1385,3.1137,3.1013,3.123,3.1261,3.1089,3.0627,3.0568,3.077,3.1322,3.1351,3.1932,3.3271,3.3329,3.3645,3.4399,3.5093,3.5224,3.4698,3.5562,3.57,3.5228,3.5796,3.5866,3.5457,3.5047,3.4596,3.4127,3.3504,3.3593,3.4216,3.5036,3.54,3.5519,3.5519,3.5669,3.5938,2.5579,2.7132,2.8481,2.9037,0.0,0.0,0.0,0.0,0.0,3.262,0.0,0.0,3.3135,3.2544,3.228,0.0,0.0,2.9513,3.0112,2.8626,0.0,2.7686,2.8015,2.8135,2.8005,2.8204,2.8098,2.7699,0.0,0.0,0.0,0.0,0.0,0.0,2.5973,0.0,0.0,0.0,2.6982,2.7113,2.8113,2.8491,2.8605,3.0288,3.0183,2.9238,3.0085,3.0634,3.0999,3.1052,3.0999,3.079,0.0,3.0372,3.0555,2.9388,0.0,0.0,0.0,0.0,0.0,0.0,2.7,2.6759,2.4749,0.0,2.5044,2.5175,0.0,2.458,0.0,0.0,0.0,0.0,2.6886,2.7944,2.7658,2.8549,2.9523,3.0197,2.9425,2.924,3.0321,3.0441,3.0504,3.0568,3.0447,3.0446,3.0684,3.0714,3.1264,3.2571,3.2629,3.3209,3.4399,3.4486,3.4588,3.4698,3.4957,3.5123,3.5228,3.5481,3.5547,3.5427,3.4639,3.4182,3.3967,3.3317,3.3435,3.4088,3.4467,3.4981,3.5519,3.5519,3.6207,3.7135,2.5273,2.6618,2.7876,2.8537,0.0,0.0,0.0,0.0,0.0,3.3195,0.0,3.3934,3.3934,3.3643,3.3338,3.3096,3.1405,3.0433,3.0596,2.916,0.0,0.0,2.8248,2.8282,2.798,2.791,2.7941,2.802,2.7105,0.0,0.0,0.0,0.0,0.0,2.622,0.0,2.6646,0.0,2.7317,2.7058,2.8403,2.8929,2.9022,3.0013,3.0117,2.9999,3.1766,3.1773,3.1048,3.1505,3.1357,3.0947,0.0,0.0,0.0,3.0296,0.0,0.0,0.0,0.0,0.0,0.0,0.0,0.0,2.5066,2.4835,2.4992,2.4992,0.0,0.0,0.0,0.0,0.0,0.0,2.5831,2.6459,2.6993,0.0,2.766,2.9414,2.9153,2.8994,2.9404,2.9314,2.9314,2.9376,2.9314,2.947,2.9993,3.0023,3.0778,3.2452,3.2481,3.309,3.4399,3.4399,3.4462,3.453,3.4698,3.4692,3.4534,3.4853,3.4922,3.4701,3.408,3.3595,3.3245,3.257,3.2687,3.3336,3.3684,3.4498,3.5519,3.5519,3.6088,3.6896,2.4922,0.0,2.7334,2.8322,0.0,0.0,0.0,0.0,3.2803,3.3273,3.3651,3.3975,3.4288,3.4318,3.415,3.3749,3.2408,3.1476,3.1125,2.9743,2.8737,2.8292,2.8525,2.8482,2.8132,2.7876,2.7889,2.815,0.0,0.0,0.0,0.0,0.0,0.0,0.0,2.7,2.767,0.0,2.7893,2.743,2.8698,2.9459,2.9859,3.022,3.079,3.1516,3.2967,3.2676,3.169,3.2245,3.2064,3.1616,3.1616,3.1616,3.1573,0.0,0.0,0.0,3.0813,0.0,0.0,2.8257,2.759,2.7046,2.5384,2.5123,2.528,2.5437,2.5463,0.0,0.0,0.0,0.0,0.0,0.0,2.5485,0.0,2.6003,0.0,2.8608,2.8943,2.8894,2.8546,2.8519,2.8492,2.8492,2.846,2.8712,2.9251,2.9498,3.0403,3.2166,3.2243,3.2948,3.4399,3.4254,3.4254,3.4399,3.4597,3.4501,3.4192,3.4563,3.4515,3.4093,3.3527,3.3022,3.2474,3.1946,3.2182,3.2922,3.3351,3.4312,3.5519,3.5519,3.5908,3.6537,2.474,2.5944,0.0,0.0,2.9026,0.0,0.0,3.0581,3.0805,3.2489,3.2592,3.2887,3.4001,3.4195,3.4426,3.4958,3.382,3.2852,3.2482,3.1043,2.991,2.9174,2.9248,2.9071,2.8651,2.8473,2.8098,0.0,0.0,0.0,0.0,0.0,0.0,0.0,0.0,2.7188,2.7325,2.8815,2.9028,2.8388,2.8983,2.9865,3.0924,3.1643,3.2673,3.3624,3.2988,3.2889,3.3108,3.3143,3.3143,3.3108,3.3108,3.3108,3.3108,0.0,0.0,0.0,3.2858,3.2837,3.2236,2.8906,2.7789,2.7046,2.5384,2.5406,2.5955,2.6536,0.0,0.0,0.0,0.0,0.0,0.0,0.0,0.0,0.0,0.0,0.0,2.7655,2.8384,2.8546,2.7921,2.8222,2.8487,2.8492,2.8357,2.8357,2.8524,2.9219,3.0186,3.1486,3.1527,3.2452,3.4399,3.379,3.379,3.4399,3.4597,3.4698,3.4668,3.4835,3.4581,3.3965,3.3184,3.2445,3.1801,3.1587,3.2121,3.305,3.3728,3.4602,3.5519,3.5519,3.5908,3.6477,2.543,0.0,0.0,2.7222,2.7907,2.887,3.0173,3.0857,3.1811,3.3368,3.383,3.4702,3.6405,3.6652,3.6518,3.6176,3.5446,3.4414,3.3166,3.2051,3.1315,3.1071,3.0295,2.9861,2.9965,2.9314,2.8673,0.0,0.0,0.0,0.0,0.0,0.0,0.0,0.0,2.7722,0.0,0.0,0.0,0.0,0.0,3.111,3.2525,3.2707,3.2835,3.296,3.3722,3.3618,3.3136,3.3624,3.3526,3.3178,3.3178,3.3494,3.3818,3.3668,3.4398,3.5081,3.4314,3.4735,3.4731,3.1728,3.0718,2.9801,2.7413,2.7365,2.7531,2.6327,0.0,0.0,0.0,0.0,0.0,0.0,0.0,0.0,0.0,0.0,2.5908,2.6427,0.0,0.0,2.6233,2.6822,2.7108,2.6594,2.6922,2.733,2.7802,2.8931,3.0122,3.1448,3.2461,3.3394,3.4399,3.433,3.433,3.4399,3.4496,3.433,3.4025,3.409,3.3739,3.3123,3.2981,3.2681,3.2288,3.2416,3.2891,3.351,3.397,3.4634,3.5326,3.5424,3.6178,3.7191,2.6247,2.6675,2.697,2.7183,2.7942,2.8959,3.0246,3.1418,3.2579,3.384,3.49,3.6129,3.7702,3.799,3.7868,3.7343,3.6716,3.5603,3.3817,3.3089,3.2434,3.1618,3.1061,3.0622,3.0381,2.9803,0.0,0.0,0.0,2.8046,0.0,0.0,0.0,0.0,0.0,2.8143,2.818,2.9616,2.9491,0.0,0.0,3.1861,3.2955,3.3452,3.3627,3.3727,3.4453,3.4298,3.3859,3.4337,3.4303,3.4002,3.4002,3.4324,3.4681,3.4748,3.5514,3.627,3.5693,3.6187,3.6236,3.3699,3.2754,3.188,2.9651,2.9663,2.9706,2.8079,0.0,0.0,0.0,0.0,0.0,0.0,0.0,0.0,0.0,2.5181,0.0,2.5501,0.0,0.0,0.0,0.0,2.6026,2.5921,0.0,0.0,0.0,2.8799,3.0162,3.1388,3.2713,3.3725,3.4501,3.4364,3.4364,3.4568,3.453,3.4364,3.4054,3.412,3.3589,3.2706,3.316,3.2952,3.2382,3.3071,3.3547,3.393,3.4359,3.4874,3.5326,3.5424,3.6144,3.7122,2.7112,2.7333,2.7698,2.8564,2.9087,2.9693,3.0764,3.1967,3.3048,3.3969,3.5579,3.7011,3.7906,3.8278,3.8436,3.841,3.7709,3.6402,3.4483,3.428,3.3292,3.1215,3.172,3.1479,3.0201,2.9982,0.0,0.0,0.0,0.0,0.0,0.0,0.0,0.0,2.8708,0.0,2.8692,2.9881,3.0177,2.9934,3.1479,3.2137,3.2345,3.3854,3.501,3.5785,3.4999,3.4898,3.5195,3.5195,3.5326,3.5519,3.5519,3.5519,3.5669,3.6297,3.6956,3.7396,3.705,3.7174,3.691,3.4808,3.4008,3.3334,3.2085,3.2245,3.2392,3.1506,3.093,0.0,0.0,0.0,0.0,0.0,0.0,0.0,0.0,0.0,2.5382,2.4932,2.5694,0.0,0.0,0.0,0.0,0.0,0.0,0.0,0.0,2.8784,3.0132,3.1221,3.2274,3.3404,3.4601,3.3918,3.4017,3.4902,3.4765,3.4698,3.4698,3.4806,3.41,3.2825,3.3635,3.3256,3.2193,3.3492,3.409,3.4307,3.4961,3.5356,3.5549,3.5579,3.5899,3.6327,2.7533,2.8591,2.9336,2.9184,2.9568,2.997,3.0283,3.1889,3.353,3.482,3.6284,3.7749,3.907,3.9322,3.9196,3.8793,3.8165,3.7436,3.6502,3.5406,3.4647,3.4318,3.3267,3.2628,3.2523,3.1575,3.0789,3.0195,0.0,0.0,2.9457,0.0,0.0,0.0,0.0,0.0,2.8692,2.9881,3.0177,2.9934,3.1479,3.2464,3.3083,3.4031,3.4942,3.5644,3.4767,3.4631,3.4865,3.4935,3.51,3.5294,3.5424,3.5848,3.6267,3.6447,3.7255,3.8123,3.8048,3.8418,3.8614,3.7569,3.6704,3.5804,3.4748,3.4692,3.4477,3.3185,3.3073,3.28,3.1391,3.0394,0.0,0.0,0.0,0.0,0.0,0.0,0.0,2.63,0.0,0.0,0.0,0.0,0.0,0.0,0.0,0.0,2.7253,2.8462,2.9507,3.0394,3.2284,3.3414,3.3589,3.4225,3.4622,3.4765,3.4802,3.4835,3.4868,3.4502,3.4053,3.3472,3.3561,3.3471,3.3302,3.407,3.4612,3.499,3.5299,3.5756,3.6297,3.6746,3.6982,3.7242,2.8587,2.9893,3.0649,3.0137,3.1017,3.1721,3.1487,3.2552,3.3856,3.5142,3.6718,3.7952,3.8667,3.9296,3.9572,3.927,3.8492,3.7712,3.7029,3.6142,3.531,3.4609,3.3756,3.3191,3.2861,3.1796,0.0,3.0881,0.0,0.0,2.9614,0.0,0.0,0.0,0.0,2.9097,2.8826,2.9844,3.0216,3.0228,3.1193,3.2081,0.0,3.3564,3.4398,3.5093,3.4578,3.453,3.4698,3.4798,3.4997,3.5228,3.5326,3.5693,3.6118,3.6387,3.7195,3.8033,3.8302,3.8901,3.932,3.8931,3.843,3.7842,3.6985,3.6858,3.6568,3.5382,3.4924,3.4497,3.367,3.2106,0.0,0.0,0.0,0.0,0.0,0.0,0.0,0.0,2.5869,2.5137,2.354,2.4585,2.5179,2.4915,0.0,2.6367,2.7352,2.867,2.9704,3.0313,3.277,3.388,3.3485,3.47,3.523,3.503,3.5063,3.5034,3.5034,3.4747,3.4389,3.3932,3.4129,3.4191,3.412,3.4705,3.5096,3.5356,3.5786,3.6507,3.7375,3.7704,3.7784,3.7828,2.9681,3.0919,3.155,3.0999,3.2538,3.3756,3.3514,3.3861,3.4451,3.5456,3.7096,3.8021,3.7728,3.8894,3.9672,3.9597,3.8617,3.7736,3.6998,3.6625,3.5667,3.3976,3.4004,3.3545,3.2566,3.1539,3.1055,0.0,0.0,0.0,0.0,0.0,0.0,0.0,0.0,0.0,0.0,2.9833,3.0228,3.0507,3.0782,3.1378,3.2182,3.2932,3.3693,3.4399,3.4399,3.453,3.4664,3.4698,3.4898,3.5162,3.5162,3.5294,3.5606,3.6354,3.6985,3.7584,3.8332,3.896,3.9373,3.9373,3.9373,3.926,3.8661,3.8512,3.8335,3.7623,3.6652,3.595,3.6237,3.3902,0.0,0.0,0.0,0.0,0.0,0.0,0.0,0.0,0.0,0.0,2.4393,2.456,2.5013,2.5717,2.5703,2.6211,2.7475,2.8936,3.0022,3.0645,3.3155,3.4298,3.3876,3.5185,3.5722,3.5544,3.5323,3.5261,3.5261,3.5261,3.4901,3.4367,3.4961,3.4999,3.462,3.525,3.5549,3.5699,3.6357,3.7345,3.8392,3.8392,3.8346,3.8347,2.916,3.0453,3.1305,3.0414,3.1849,3.3495,3.4707,3.5978,3.6883,3.7115,3.8414,3.9196,3.8718,3.9296,3.9521,3.9095,3.8391,3.814,3.8466,3.7184,3.643,3.6553,3.5253,3.4474,3.4299,3.2483,3.1462,0.0,0.0,0.0,0.0,0.0,0.0,0.0,0.0,0.0,3.0162,3.0101,0.0,3.0011,3.0658,3.1378,3.2182,3.2932,3.3693,3.4399,3.4399,3.4428,3.4496,3.4631,3.4731,3.4798,3.4902,3.5067,3.5499,3.6722,3.7242,3.7674,3.8901,3.932,3.9373,3.9373,3.9373,3.9379,3.926,3.923,3.9158,3.905,3.8424,3.7734,3.7267,3.5638,3.3685,0.0,0.0,0.0,0.0,0.0,0.0,0.0,0.0,2.7886,2.6269,2.5795,2.5271,2.4498,2.5071,2.6102,2.7584,2.7798,2.8864,3.1029,3.2146,3.3266,3.4384,3.5015,3.5485,3.5832,3.5594,3.5424,3.5424,3.5424,3.5299,3.505,3.5299,3.5299,3.5083,3.5394,3.5818,3.6387,3.7015,3.7734,3.8392,3.8392,3.8715,3.9152,3.0789,3.1397,3.2006,3.2097,3.3409,3.4914,3.6243,3.7703,3.8389,3.7627,3.7859,3.8037,3.7808,3.8693,3.9044,3.8467,3.8165,3.8015,3.8039,3.7008,3.6405,3.6332,3.5303,3.46,3.4299,3.2475,3.1569,3.1636,2.9751,0.0,0.0,0.0,0.0,0.0,0.0,2.9819,0.0,0.0,3.0317,3.0688,3.0701,3.1663,3.3033,3.301,3.3825,3.4893,3.4893,3.4893,3.4927,3.5025,3.5098,3.5166,3.5267,3.5638,3.6098,3.6428,3.7129,3.7888,3.8543,3.9062,3.9373,3.9373,3.9373,3.9373,3.9373,3.9373,3.9373,3.9373,3.914,3.8601,3.7584,3.606,3.453,3.303,3.2258,3.1638,0.0,0.0,3.0123,0.0,0.0,0.0,0.0,2.6616,2.6142,2.5345,2.5648,2.6491,2.7911,2.7919,2.8612,3.0277,3.1585,3.2618,3.3342,3.4496,3.5242,3.554,3.5508,3.5519,3.5519,3.5392,3.5359,3.5359,3.5359,3.5359,3.5389,3.5845,3.6596,3.7494,3.7793,3.8332,3.8931,3.8931,3.914,3.9373,3.2596,3.2684,3.3096,3.41,3.5341,3.6489,3.7349,3.8667,3.9095,3.7934,3.7528,3.725,3.6998,3.8114,3.8642,3.8065,3.7889,3.7638,3.7211,3.6707,3.6182,3.5683,3.5031,3.4525,3.4073,3.2315,3.1539,3.176,2.9818,2.8702,2.8351,0.0,0.0,0.0,0.0,0.0,3.1011,3.0368,3.0586,3.1267,3.0806,3.1941,3.3837,3.3311,3.4119,3.5595,3.5595,3.5595,3.5625,3.5805,3.5729,3.5565,3.5711,3.6107,3.6511,3.631,3.7098,3.8098,3.8252,3.8811,3.9337,3.9373,3.9373,3.9373,3.9373,3.9373,3.9373,3.9373,3.9373,3.902,3.7644,3.6603,3.5511,3.4226,3.3192,3.2395,3.1839,0.0,0.0,0.0,0.0,0.0,2.7873,2.7355,2.7023,2.692,2.652,2.6823,2.8056,2.8204,2.8803,2.9887,3.1394,3.239,3.2869,3.4295,3.5161,3.534,3.5451,3.5519,3.5519,3.5326,3.5359,3.5519,3.5475,3.5657,3.5968,3.6626,3.7494,3.8392,3.8542,3.8931,3.9373,3.9373,3.9373,3.9373,3.3242,3.3682,3.4259,3.5047,3.6231,3.7157,3.7475,3.8339,3.8944,3.8793,3.917,3.9045,3.7965,3.8467,3.8642,3.8065,3.7538,3.7236,3.7186,3.6707,3.638,3.6329,3.5278,3.47,3.465,3.2516,3.1281,3.0976,2.9947,2.898,2.811,0.0,0.0,0.0,2.943,2.9917,3.0203,3.0126,3.034,3.0687,3.0608,3.1941,3.3892,3.3837,3.4827,3.6228,3.6228,3.6228,3.6351,3.7113,3.6493,3.5479,3.606,3.5991,3.5961,3.7103,3.7628,3.7978,3.8779,3.906,3.9192,3.9337,3.9373,3.9373,3.9373,3.9373,3.9373,3.9373,3.9373,3.902,3.7644,3.8267,3.8133,3.5503,3.6012,3.6094,3.4251,0.0,3.4001,3.2172,0.0,0.0,3.0235,2.8208,2.737,2.8489,2.71,2.6575,2.7449,2.7996,2.9265,3.1334,3.1875,3.2936,3.4639,3.5027,3.5389,3.5824,3.5624,3.5519,3.5519,3.5457,3.5457,3.5549,3.6118,3.6716,3.7285,3.7943,3.8272,3.8452,3.908,3.9313,3.9373,3.9373,3.9373,3.9373,3.4375,3.4603,3.5136,3.6375,3.6925,3.7586,3.8642,3.8844,3.8743,3.8391,3.8266,3.8015,3.7563,3.7713,3.7638,3.7061,3.7111,3.7036,3.6757,3.6531,3.6405,3.6405,3.5303,3.468,3.468,3.2541,3.1407,3.1367,3.0114,2.9211,2.8653,2.8724,2.8938,2.9288,2.9383,2.9859,3.057,3.0438,3.0863,3.1562,3.1562,3.2927,3.4896,3.4531,3.5432,3.6896,3.6896,3.6896,3.7012,3.7732,3.7427,3.6762,3.6989,3.72,3.7353,3.739,3.7821,3.8326,3.8811,3.9017,3.9156,3.9337,3.9373,3.9373,3.9373,3.9373,3.9373,3.9373,3.9373,3.926,3.8721,3.8392,3.7931,3.7114,3.6809,3.6429,3.5953,0.0,0.0,3.4076,0.0,3.1913,3.0629,2.9091,2.8012,2.7616,2.6527,2.6327,2.7338,2.8208,2.9278,3.0574,3.2085,3.3487,3.4819,3.5403,3.5825,3.6077,3.6462,3.6447,3.6088,3.6088,3.6088,3.6118,3.6357,3.7075,3.8033,3.8272,3.8631,3.902,3.932,3.9373,3.9373,3.9373,3.9373,3.9373,3.5451,3.5628,3.6164,3.7655,3.7761,3.814,3.9496,3.8944,3.8291,3.804,3.7387,3.701,3.7161,3.7186,3.7036,3.6681,3.6857,3.6784,3.643,3.6405,3.6329,3.6132,3.5228,3.465,3.4474,3.2616,3.1644,3.1615,3.047,2.9613,2.9068,2.9104,2.9314,2.9667,2.9491,3.0049,3.1008,3.0723,3.1235,3.2215,3.2215,3.3436,3.5238,3.5035,3.5737,3.6826,3.7089,3.7192,3.725,3.7728,3.792,3.7937,3.7791,3.7996,3.8142,3.7688,3.7994,3.8464,3.8723,3.8907,3.9053,3.9337,3.9373,3.9373,3.9373,3.9373,3.9373,3.9373,3.9373,3.9373,3.9373,3.8482,3.7769,3.7908,3.7337,3.678,3.6628,3.6703,0.0,3.4893,3.3378,3.2138,3.1438,2.9942,2.8876,2.8598,2.7487,2.7013,2.7462,2.8932,2.9966,3.045,3.2712,3.4242,3.4906,3.5857,3.6377,3.6476,3.7093,3.7195,3.6746,3.6746,3.6866,3.7045,3.7045,3.7674,3.8691,3.8691,3.899,3.9373,3.9373,3.9373,3.9373,3.9373,3.9373,3.9373,3.6157,3.681,3.7513,3.8693,3.8894,3.9044,3.9622,3.8291,3.7387,3.7939,3.7061,3.6631,3.7136,3.7186,3.7186,3.7186,3.6732,3.6405,3.6405,3.6405,3.6107,3.5533,3.4981,3.4474,3.3922,3.2792,3.1938,3.1386,3.1034,3.0316,2.92,2.9411,2.9655,2.9999,3.0062,3.0553,3.1361,3.0834,3.1235,3.2215,3.2215,3.3088,3.4522,3.5305,3.5601,3.5722,3.661,3.6922,3.6922,3.7127,3.7919,3.873,3.8315,3.7915,3.7711,3.8103,3.8202,3.8277,3.8686,3.8797,3.8907,3.9301,3.9373,3.9373,3.9373,3.9373,3.9373,3.9373,3.9373,3.9373,3.9373,3.8841,3.8153,3.749,3.7973,3.7801,3.6129,3.6641,0.0,3.4151,3.2172,3.1662,3.3302,3.074,3.0041,3.2623,3.0737,2.8943,2.7761,3.0351,3.1775,3.1605,3.4117,3.5375,3.5195,3.6505,3.7193,3.7193,3.7336,3.7404,3.7404,3.7404,3.7764,3.8362,3.8362,3.8751,3.9373,3.9373,3.9373,3.9373,3.9373,3.9373,3.9373,3.9373,3.9373,3.9373,3.6307,3.681,3.7287,3.7663,3.8366,3.8969,3.912,3.8341,3.7814,3.799,3.7036,3.648,3.6656,3.6681,3.6681,3.6681,3.6505,3.6405,3.6405,3.6405,3.6107,3.5533,3.4981,3.4474,3.3897,3.2792,3.2139,3.1964,3.1236,3.0544,2.9809,3.0228,3.0429,3.0435,3.0788,3.1342,3.1938,3.1763,3.2139,3.2767,3.2365,3.3088,3.4387,3.4254,3.4754,3.5709,3.661,3.6883,3.7,3.7682,3.8285,3.8723,3.8315,3.8281,3.8385,3.8256,3.8202,3.824,3.8501,3.8686,3.887,3.9156,3.9301,3.9373,3.9373,3.9373,3.9373,3.9373,3.9373,3.9373,3.9373,3.923,3.8871,3.8182,3.8242,3.8048,3.705,3.7445,3.7302,3.5832,3.4801,3.4117,3.3889,3.259,3.1513,3.0833,3.1073,3.0713,2.9329,3.1192,3.2513,3.292,3.5815,3.7327,3.7361,3.8262,3.8471,3.8023,3.8506,3.8542,3.8093,3.8093,3.8182,3.8392,3.8392,3.8781,3.9373,3.9373,3.9373,3.9373,3.9373,3.9373,3.9373,3.9373,3.9373,3.9373,3.6405,3.6857,3.7186,3.7186,3.7764,3.8316,3.8517,3.7889,3.7462,3.7663,3.691,3.6405,3.6405,3.6405,3.6405,3.6405,3.6405,3.6405,3.6405,3.6405,3.6031,3.5232,3.4856,3.4374,3.3596,3.2893,3.2441,3.2215,3.1458,3.0907,3.0579,3.0933,3.113,3.121,3.1336,3.1813,3.2516,3.2315,3.2416,3.2717,3.2365,3.2625,3.3266,3.3439,3.3814,3.4523,3.5907,3.6385,3.657,3.7414,3.8173,3.876,3.8427,3.8575,3.8833,3.8352,3.8202,3.8277,3.8538,3.8686,3.887,3.9156,3.9301,3.9499,3.9738,3.9798,3.9798,3.9798,3.9589,3.9373,3.9373,3.92,3.8901,3.8452,3.8182,3.7883,3.7464,3.7382,3.699,3.5878,3.5154,3.4486,3.3871,3.3463,3.289,3.2021,3.2729,3.284,3.1985,3.2902,3.3775,3.4457,3.7192,3.8555,3.8392,3.908,3.92,3.8781,3.92,3.92,3.8781,3.8781,3.8781,3.8781,3.8781,3.902,3.9373,3.9373,3.9373,3.9373,3.9373,3.9373,3.9373,3.9373,3.9373,3.9373,3.6531,3.6885,3.7236,3.7186,3.7211,3.7387,3.7864,3.7086,3.6656,3.7111,3.6757,3.6405,3.6405,3.6405,3.6405,3.6405,3.6405,3.6405,3.6405,3.6405,3.5881,3.4781,3.4751,3.4223,3.3169,3.3136,3.2792,3.2215,3.1712,3.1436,3.1386,3.1436,3.1712,3.219,3.1712,3.2089,3.3043,3.2491,3.2265,3.2265,3.219,3.1863,3.1609,3.2924,3.2952,3.2474,3.4766,3.5628,3.5749,3.661,3.7758,3.876,3.8538,3.8752,3.8943,3.8389,3.824,3.8315,3.8686,3.8797,3.8907,3.9265,3.9403,3.9679,4.0307,4.0427,4.0397,4.0397,3.9888,3.9373,3.9373,3.8901,3.8452,3.8392,3.7853,3.7404,3.731,3.6667,3.58,3.4739,3.3956,3.3537,3.3754,3.3724,3.4203,3.54,3.52,3.5117,3.5284,3.5215,3.5449,3.6063,3.8263,3.911,3.8482,3.911,3.9373,3.9373,3.9373,3.9373,3.9373,3.9373,3.9373,3.9373,3.9373,3.9373,3.9373,3.9373,3.9373,3.9373,3.9373,3.9373,3.9373,3.9373,3.9373,3.9373,3.7613,3.7713,3.7688,3.7262,3.7538,3.7713,3.7412,3.7161,3.7036,3.7161,3.6757,3.6405,3.6405,3.6405,3.6405,3.6405,3.6405,3.6405,3.6405,3.6405,3.6056,3.5332,3.4906,3.4399,3.3721,3.3294,3.2792,3.2215,3.2089,3.1813,3.1411,3.1813,3.2089,3.2215,3.2541,3.286,3.3111,3.2943,3.2867,3.2792,3.1938,3.1763,3.2072,3.2679,3.2592,3.2474,3.4766,3.5628,3.5749,3.661,3.7644,3.8538,3.8315,3.8427,3.8612,3.8649,3.8649,3.8649,3.8575,3.8797,3.9017,3.8943,3.9549,4.0337,4.0995,4.0756,4.0397,4.0397,3.9888,3.9373,3.9373,3.929,3.902,3.8482,3.7853,3.7187,3.6577,3.6331,3.6093,3.5829,3.603,3.6272,3.6443,3.6058,3.5699,3.5519,3.5413,3.5618,3.6171,3.6599,3.6847,3.6921,3.8543,3.9313,3.917,3.9313,3.9373,3.9373,3.9373,3.9373,3.9373,3.9373,3.9373,3.9373,3.9373,3.9373,3.9373,3.9373,3.9373,3.9373,3.9373,3.9373,3.9373,3.9373,3.9373,3.9373,3.7312,3.7462,3.7462,3.6958,3.7109,3.7161,3.6908,3.6857,3.6857,3.6857,3.6606,3.6405,3.6405,3.6405,3.6405,3.6405,3.6405,3.6405,3.6405,3.6405,3.6107,3.5533,3.4981,3.4474,3.3897,3.3345,3.2918,3.2616,3.2616,3.2441,3.2164,3.2466,3.2616,3.2616,3.2943,3.3111,3.3111,3.3111,3.2918,3.2659,3.2444,3.2184,3.2085,3.3252,3.3384,3.3261,3.541,3.6188,3.6306,3.7193,3.7938,3.8493,3.8352,3.8464,3.8649,3.876,3.8686,3.8575,3.8723,3.8797,3.8922,3.9299,4.039,4.1384,4.1782,4.1324,4.0846,4.0846,4.0098,3.9373,3.9373,3.9373,3.92,3.8512,3.7853,3.7127,3.6301,3.6008,3.5952,3.6149,3.6573,3.6969,3.734,3.7105,3.6746,3.6417,3.6656,3.6836,3.6896,3.7823,3.8262,3.8221,3.8979,3.9373,3.9373,3.9373,3.9373,3.9373,3.9373,3.9373,3.9373,3.9373,3.9373,3.9373,3.9373,3.9373,3.9373,3.9373,3.9373,3.9373,3.9373,3.9373,3.9373,3.9373,3.9373,3.9373,3.6757,3.6985,3.7136,3.6631,3.6606,3.6631,3.6556,3.6531,3.6531,3.6531,3.6455,3.6405,3.6405,3.6405,3.6405,3.6405,3.6405,3.6405,3.6405,3.6405,3.6157,3.5633,3.5006,3.45,3.4022,3.3395,3.3111,3.3111,3.3111,3.3111,3.3111,3.3111,3.3111,3.3111,3.3111,3.3111,3.3111,3.3111,3.2792,3.2424,3.3168,3.2908,3.2201,3.4236,3.459,3.4279,3.622,3.6883,3.7,3.7758,3.8202,3.8456,3.8456,3.8575,3.8723,3.8878,3.8684,3.8468,3.89,3.8848,3.8964,4.0114,4.133,4.2291,4.2381,4.1901,4.1354,4.1265,4.0337,3.9493,3.9439,3.9373,3.92,3.8512,3.7819,3.7093,3.6301,3.5866,3.578,3.6301,3.6615,3.7015,3.7644,3.7614,3.7584,3.7704,3.8123,3.8182,3.7734,3.8781,3.9373,3.9373,3.9373,3.9373,3.9373,3.9373,3.9373,3.9373,3.9373,3.9373,3.9373,3.9373,3.9373,3.9373,3.9373,3.9373,3.9373,3.9373,3.9373,3.9373,3.9373,3.9373,3.9373,3.9373,3.9373,3.9373,3.7764,3.7814,3.7713,3.7161,3.7437,3.7588,3.7136,3.7109,3.7109,3.7109,3.6707,3.6405,3.6405,3.6405,3.6405,3.6405,3.6405,3.6405,3.6405,3.6405,3.638,3.6279,3.5253,3.4675,3.46,3.3596,3.3111,3.3111,3.3111,3.3111,3.3111,3.3111,3.3111,3.3111,3.3111,3.3111,3.3111,3.3111,3.3061,3.2978,3.3349,3.3378,3.3408,3.5223,3.5405,3.4862,3.6359,3.6883,3.6922,3.7039,3.7606,3.824,3.824,3.8277,3.8431,3.9174,3.9358,3.9203,3.8751,3.906,3.9917,4.1329,4.162,4.1722,4.2261,4.1901,4.1235,4.0666,4.0397,4.0068,3.9529,3.9373,3.92,3.8512,3.7749,3.699,3.6297,3.6153,3.6331,3.6985,3.766,3.8362,3.905,3.8571,3.8482,3.908,3.8661,3.8601,3.908,3.932,3.9373,3.9373,3.9373,3.9373,3.9373,3.9373,3.9373,3.9373,3.9373,3.9373,3.9373,3.9373,3.9373,3.9373,3.9373,3.9373,3.9373,3.9373,3.9373,3.9373,3.9373,3.9373,3.9373,3.9373,3.9373,3.9373,3.7186,3.7588,3.7839,3.7287,3.7387,3.7588,3.7613,3.7387,3.7186,3.7186,3.696,3.6732,3.643,3.6405,3.6405,3.6405,3.6405,3.6405,3.6405,3.6405,3.6405,3.6405,3.5303,3.4449,3.3847,3.3345,3.3111,3.3111,3.3111,3.3111,3.3111,3.3111,3.3111,3.3111,3.3111,3.3111,3.3111,3.3111,3.3111,3.3129,3.3736,3.4082,3.4339,3.5898,3.638,3.6259,3.7263,3.7606,3.7606,3.7606,3.7872,3.826,3.8609,3.8725,3.8908,3.9779,4.0099,3.9962,3.9241,3.9753,4.063,4.1192,4.1364,4.1602,4.2261,4.1602,4.0876,4.0905,4.0367,3.9888,3.9948,3.9649,3.92,3.8512,3.7784,3.7178,3.6777,3.6518,3.6701,3.7645,3.8142,3.8661,3.9313,3.914,3.908,3.9409,3.911,3.908,3.9373,3.9301,3.9301,3.9373,3.9373,3.9373,3.9373,3.9373,3.9373,3.9373,3.9373,3.9373,3.9373,3.9373,3.9373,3.9373,3.9373,3.9373,3.9373,3.9373,3.9373,3.9373,3.9373,3.9373,3.9373,3.9373,3.9373,3.9373,3.6505,3.7036,3.7538,3.7236,3.7287,3.7513,3.7939,3.7764,3.7538,3.7387,3.7262,3.701,3.6656,3.648,3.6405,3.6405,3.6405,3.6405,3.6405,3.6405,3.6405,3.6405,3.5429,3.4399,3.3294,3.3269,3.3194,3.3111,3.3194,3.3194,3.3111,3.3219,3.3194,3.3111,3.3111,3.3111,3.3111,3.3111,3.3111,3.324,3.4246,3.4807,3.515,3.6676,3.7358,3.7593,3.8315,3.846,3.8335,3.8626,3.8626,3.8626,3.9295,3.946,3.9576,4.049,4.0901,4.0881,4.005,4.0427,4.1101,4.1026,4.105,4.1287,4.1944,4.1197,4.0509,4.1055,4.0457,3.9978,4.0337,3.9978,3.9379,3.8512,3.7938,3.7481,3.7292,3.7033,3.7246,3.8162,3.8471,3.8841,3.9343,3.9373,3.9373,3.9373,3.9373,3.9373,3.9373,3.9265,3.9228,3.9337,3.9373,3.9373,3.9373,3.9559,3.9559,3.9373,3.9589,3.9559,3.9373,3.9373,3.9373,3.9373,3.9373,3.9373,3.9373,3.9373,3.9373,3.9373,3.9373,3.9373,3.9373,3.9373,3.932,3.9164,3.6505,3.648,3.6681,3.7111,3.7613,3.7965,3.799,3.8442,3.8542,3.8015,3.7513,3.7161,3.7136,3.6707,3.6405,3.6405,3.6405,3.6405,3.6405,3.6405,3.6405,3.6405,3.5805,3.4931,3.3872,3.3847,3.3596,3.3111,3.3596,3.3571,3.3136,3.3596,3.3571,3.3111,3.3111,3.3111,3.3111,3.3111,3.3197,3.3513,3.4938,3.5641,3.6081,3.7758,3.8285,3.8269,3.9287,3.914,3.8668,3.9934,3.9934,3.9525,4.0198,4.0217,4.0226,4.1292,4.1938,4.2023,4.092,4.0858,4.119,4.1548,4.0897,4.0375,4.1058,4.0642,4.0174,4.042,4.0876,4.1055,4.0516,4.0367,3.9888,3.8601,3.8256,3.7948,3.746,3.7774,3.8162,3.8357,3.896,3.9379,3.9373,3.9373,3.9373,3.9373,3.9373,3.9373,3.9373,3.9373,3.9301,3.9156,3.9301,3.9373,3.9373,4.0038,4.0008,3.9403,4.0038,4.0008,3.9373,3.9373,3.9373,3.9373,3.9373,3.9373,3.9373,3.9373,3.9373,3.9373,3.9373,3.9373,3.9373,3.9373,3.902,3.8542,3.6455,3.6681,3.6935,3.7136,3.7638,3.8015,3.8015,3.8492,3.8542,3.7613,3.7613,3.7437,3.6807,3.6531,3.6405,3.6405,3.6405,3.6405,3.6405,3.6405,3.6207,3.5881,3.5608,3.5132,3.4424,3.4399,3.4299,3.4098,3.4299,3.4123,3.3596,3.3796,3.3596,3.3111,3.3111,3.3111,3.3111,3.3111,3.324,3.3513,3.4594,3.5507,3.6294,3.7462,3.8173,3.87,3.9526,3.9614,3.945,4.0362,4.0518,4.043,4.1038,4.1165,4.1243,4.1957,4.2511,4.2712,4.1469,4.1283,4.1499,4.1656,4.1222,4.091,4.1718,4.1284,4.0888,4.1496,4.1542,4.1482,4.1632,4.0935,4.0217,3.9709,3.8895,3.8381,3.8596,3.8476,3.8471,3.896,3.926,3.9373,3.9373,3.9373,3.9373,3.9373,3.9373,3.9373,3.9373,3.9373,3.9265,3.8907,3.909,3.9407,3.9824,4.0203,4.0277,4.0038,3.9858,3.9679,3.9373,3.9373,3.9373,3.9373,3.9373,3.9373,3.9373,3.9373,3.9373,3.9373,3.9373,3.9373,3.9379,3.8931,3.8631,3.8362,3.643,3.6707,3.6985,3.7161,3.7487,3.7814,3.799,3.8492,3.8567,3.7563,3.7764,3.7663,3.6782,3.6505,3.6405,3.6405,3.6405,3.6405,3.6405,3.6405,3.6207,3.5805,3.5805,3.5508,3.4956,3.4931,3.4856,3.468,3.4856,3.47,3.4148,3.4148,3.3872,3.3319,3.3187,3.3154,3.3197,3.3197,3.3368,3.3709,3.468,3.5723,3.6837,3.782,3.8716,3.9542,4.0334,4.0423,4.0317,4.0871,4.1097,4.1263,4.1565,4.193,4.2218,4.253,4.289,4.3041,4.2158,4.2,4.206,4.1774,4.1361,4.1219,4.2076,4.1671,4.1364,4.2222,4.2051,4.1871,4.2321,4.1662,4.0876,4.0457,3.9798,3.9409,3.9679,3.9499,3.9439,3.9679,3.9738,3.9649,3.9403,3.9373,3.9373,3.9373,3.9373,3.9373,3.9373,3.9337,3.9192,3.8907,3.9224,3.9624,4.0107,4.0248,4.0203,4.0098,3.9858,3.9619,3.9373,3.9373,3.9373,3.9373,3.9373,3.9373,3.9373,3.9373,3.9373,3.9373,3.9373,3.9373,3.9313,3.8901,3.8571,3.8362,3.6505,3.6405,3.6581,3.7086,3.7186,3.7362,3.7914,3.8492,3.8668,3.8065,3.8015,3.7789,3.7236,3.6732,3.6405,3.6405,3.6405,3.6405,3.6405,3.6405,3.6405,3.6405,3.6405,3.6107,3.5508,3.5508,3.5232,3.4726,3.5232,3.5232,3.4726,3.468,3.4424,3.3872,3.3319,3.3197,3.3411,3.3411,3.3666,3.4224,3.542,3.6592,3.7746,3.9156,4.0168,4.0938,4.2016,4.1837,4.1172,4.1558,4.1843,4.1991,4.179,4.2444,4.325,4.3061,4.2981,4.2981,4.2981,4.2981,4.2792,4.1932,4.1244,4.1026,4.1843,4.1555,4.1364,4.2252,4.241,4.241,4.241,4.241,4.1991,4.0636,4.0965,4.1145,4.0487,4.0965,4.1145,4.0487,4.0397,4.0157,3.9499,3.9439,3.9439,3.9439,3.9403,3.9439,3.9373,3.9228,3.909,3.909,3.9743,4.0107,4.0107,4.0107,3.9884,3.9439,4.0098,4.0038,3.9373,3.9373,3.9373,3.9373,3.9373,3.9373,3.9373,3.9373,3.9373,3.9373,3.9373,3.9373,3.9373,3.9373,3.896,3.8482,3.643,3.6405,3.6581,3.7086,3.7186,3.7236,3.7412,3.8241,3.8567,3.7563,3.7764,3.7789,3.7236,3.6732,3.6405,3.6405,3.6405,3.6405,3.6405,3.6405,3.6405,3.6405,3.6405,3.6329,3.6132,3.6107,3.6031,3.5881,3.6031,3.583,3.5232,3.4856,3.4424,3.3897,3.3721,3.3777,3.4063,3.3994,3.4459,3.5314,3.5865,3.6656,3.762,3.9299,4.006,4.0422,4.187,4.2252,4.2076,4.2634,4.246,4.1989,4.1947,4.2537,4.325,4.3061,4.313,4.317,4.289,4.286,4.2951,4.2663,4.2485,4.2436,4.2842,4.2644,4.2555,4.2961,4.303,4.303,4.303,4.303,4.2761,4.1961,4.1991,4.1871,4.1175,4.1265,4.1362,4.1115,4.1085,4.0995,4.0816,4.0786,4.0786,4.0786,4.0367,3.9918,3.9439,3.9337,3.9265,3.909,3.9297,3.9387,3.9387,4.001,4.0233,4.0098,3.9828,3.9619,3.9373,3.9373,3.9373,3.9373,3.9373,3.9373,3.9373,3.9373,3.9373,3.9373,3.9373,3.9373,3.9313,3.8871,3.8571,3.8362,3.6455,3.6581,3.6832,3.7136,3.7362,3.7513,3.7513,3.8291,3.8467,3.7337,3.7663,3.7713,3.6983,3.6606,3.6405,3.6405,3.6405,3.6405,3.6405,3.6405,3.6405,3.6405,3.6405,3.6405,3.6405,3.6405,3.6405,3.6405,3.6405,3.6182,3.5855,3.5257,3.4831,3.455,3.4324,3.4357,3.4647,3.4666,3.5109,3.5815,3.6313,3.7032,3.7939,3.9229,4.0139,4.0913,4.1882,4.2456,4.2751,4.2782,4.2456,4.2087,4.2415,4.289,4.3349,4.3468,4.3598,4.3698,4.3723,4.3823,4.3916,4.3916,4.3656,4.3437,4.3638,4.3598,4.3468,4.3349,4.329,4.329,4.329,4.329,4.312,4.25,4.262,4.2521,4.1901,4.1983,4.2043,4.1841,4.1811,4.1692,4.1452,4.1422,4.1422,4.1422,4.0995,4.0606,4.0217,4.0187,3.9994,3.9616,3.9616,3.9496,3.9228,3.9725,4.0008,4.0008,3.9619,3.9373,3.9373,3.9373,3.9373,3.9373,3.9373,3.9373,3.9373,3.9373,3.9373,3.9373,3.9373,3.9373,3.9343,3.896,3.8811,3.8751,3.6581,3.6885,3.7287,3.7337,3.7713,3.8015,3.8065,3.8542,3.8542,3.7462,3.7764,3.7688,3.6732,3.6531,3.648,3.648,3.643,3.6405,3.6405,3.6405,3.6405,3.6405,3.6405,3.6405,3.6405,3.6405,3.6405,3.6405,3.6405,3.6405,3.6405,3.5805,3.5508,3.5483,3.4981,3.4936,3.5161,3.5385,3.5634,3.6004,3.6642,3.7493,3.8418,3.8922,4.0204,4.1769,4.1852,4.2374,4.2941,4.214,4.1976,4.2252,4.303,4.3339,4.3499,4.4197,4.4407,4.4526,4.5125,4.5304,4.5304,4.5364,4.475,4.4162,4.4276,4.4317,4.4137,4.3439,4.329,4.329,4.329,4.3349,4.321,4.259,4.3,4.318,4.259,4.294,4.312,4.256,4.25,4.2261,4.1624,4.1564,4.1534,4.1474,4.1512,4.1482,4.1422,4.1422,4.1115,4.0516,4.0427,4.0157,3.9553,3.9493,3.9433,3.9373,3.9373,3.9373,3.9373,3.9373,3.9373,3.9373,3.9373,3.9373,3.9373,3.9373,3.9373,3.9373,3.9373,3.9373,3.9373,3.9373,3.9373,3.9403,3.7111,3.7437,3.7965,3.8466,3.8241,3.8165,3.8617,3.8844,3.8844,3.8592,3.8617,3.8642,3.8391,3.7586,3.7059,3.7059,3.6656,3.6405,3.6405,3.6405,3.6405,3.6405,3.6405,3.6405,3.6405,3.6405,3.6405,3.6405,3.6405,3.6405,3.6405,3.5805,3.5508,3.5483,3.5382,3.5491,3.572,3.5791,3.6319,3.7065,3.6359,3.6836,3.8073,3.8431,3.9093,3.9913,4.0646,4.1029,4.1155,4.0986,4.1852,4.2989,4.3043,4.3548,4.4227,4.4885,4.5095,4.5095,4.5244,4.5304,4.5424,4.5963,4.5562,4.4904,4.4396,4.4317,4.4137,4.3439,4.329,4.329,4.329,4.3708,4.3898,4.324,4.3688,4.3868,4.321,4.32,4.323,4.315,4.312,4.306,4.2871,4.2871,4.2701,4.2231,4.2201,4.1961,4.1452,4.1422,4.1324,4.1175,4.0666,4.0576,4.0935,4.0457,3.9918,3.9373,3.9373,3.9373,3.9373,3.9373,3.9373,3.9373,3.9373,3.9373,3.9373,3.9373,3.9373,3.9373,3.9373,3.9373,3.9373,3.9373,3.9373,3.9499,3.7638,3.7814,3.8191,3.8768,3.8843,3.8818,3.8868,3.8919,3.8668,3.814,3.8065,3.8014,3.7762,3.7387,3.7186,3.7186,3.6732,3.6405,3.6405,3.6405,3.6405,3.6405,3.6405,3.6405,3.6405,3.6405,3.6405,3.6405,3.6405,3.6405,3.6405,3.6081,3.5931,3.5931,3.5931,3.6024,3.6164,3.6257,3.662,3.7057,3.663,3.687,3.7572,3.787,3.8417,3.9149,3.9738,4.0518,4.1239,4.1239,4.2386,4.3787,4.3637,4.4128,4.4915,4.5574,4.5783,4.5873,4.6172,4.6262,4.6352,4.6711,4.6531,4.5992,4.5005,4.4526,4.4137,4.3439,4.329,4.3379,4.3708,4.4077,4.4317,4.4287,4.4287,4.4317,4.4287,4.3988,4.3768,4.3768,4.3768,4.3648,4.3319,4.329,4.314,4.2851,4.2821,4.2671,4.2342,4.2312,4.2162,4.1901,4.1542,4.1354,4.1422,4.1025,4.0696,4.0337,4.0038,3.9888,3.9888,3.9559,3.9337,3.9265,3.9337,3.9337,3.9265,3.9337,3.9373,3.9373,3.9373,3.9373,3.9373,3.9373,3.9619,3.9948,3.804,3.8165,3.8442,3.8919,3.9396,3.9546,3.9069,3.8969,3.8567,3.7713,3.7538,3.7385,3.7008,3.7262,3.7437,3.7337,3.6883,3.6556,3.6556,3.6455,3.6405,3.6405,3.6405,3.6405,3.6405,3.6405,3.6405,3.6405,3.6405,3.6405,3.6405,3.6405,3.6405,3.6405,3.6405,3.6405,3.6405,3.6593,3.6662,3.6709,3.682,3.6985,3.7108,3.7284,3.7906,3.8684,3.8881,4.0229,4.1943,4.1943,4.3084,4.4496,4.4616,4.5035,4.5603,4.6292,4.6459,4.6621,4.716,4.7309,4.7309,4.7309,4.7219,4.686,4.5723,4.5035,4.4426,4.3768,4.3618,4.3798,4.4377,4.4496,4.4646,4.5214,4.4825,4.4676,4.5214,4.4825,4.4496,4.4496,4.4496,4.4257,4.3678,4.3529,4.3469,4.3469,4.3349,4.329,4.329,4.329,4.309,4.259,4.244,4.2201,4.1713,4.1594,4.1594,4.1713,4.1055,4.0666,4.0546,3.9971,3.9593,3.9446,3.9437,3.9467,3.9446,3.951,3.9612,3.9738,3.9738,3.9679,3.9553,3.9553,3.9918,4.0427,3.8191,3.8793,3.9496,3.9572,3.9647,3.9672,3.9597,3.917,3.8994,3.932,3.8944,3.8793,3.9195,3.8868,3.8442,3.7939,3.7387,3.7061,3.7061,3.6681,3.6405,3.6405,3.6405,3.6405,3.6405,3.6405,3.6405,3.6405,3.6405,3.6405,3.6405,3.6405,3.6405,3.6405,3.6405,3.6405,3.6405,3.6452,3.6546,3.6684,3.6227,3.6467,3.7057,3.6845,3.7085,3.7736,3.7965,3.9635,4.1651,4.1651,4.3224,4.5274,4.5873,4.607,4.6322,4.698,4.716,4.7189,4.7279,4.7309,4.7309,4.7309,4.686,4.6369,4.6232,4.607,4.5843,4.5185,4.5035,4.5065,4.5155,4.5155,4.5185,4.5274,4.5214,4.5185,4.5274,4.5214,4.5155,4.5155,4.5155,4.5125,4.5035,4.4526,4.4167,4.4167,4.3618,4.329,4.329,4.329,4.326,4.317,4.2641,4.2581,4.3021,4.2521,4.2521,4.3021,4.2402,4.1841,4.1235,4.0986,4.088,4.0783,4.0068,4.0157,4.0783,4.0226,4.0427,4.1115,4.1115,4.0756,4.0277,4.0277,4.0337,4.0576,3.8994,3.9094,3.932,3.9647,3.9697,3.9697,3.9697,3.922,3.8969,3.9195,3.8467,3.814,3.8693,3.8542,3.8417,3.8492,3.7688,3.7186,3.7186,3.6707,3.6405,3.6405,3.6405,3.6556,3.6857,3.6556,3.6556,3.6883,3.6556,3.6405,3.6405,3.6405,3.6405,3.6405,3.6405,3.6405,3.6405,3.6405,3.6452,3.6521,3.6294,3.6391,3.6709,3.6826,3.7042,3.732,3.7762,3.913,4.0869,4.1415,4.3142,4.5194,4.6032,4.6591,4.692,4.7219,4.7309,4.7309,4.7309,4.7309,4.7309,4.7309,4.71,4.686,4.686,4.686,4.6561,4.5514,4.5304,4.5394,4.5813,4.5873,4.5992,4.6352,4.6112,4.5992,4.6352,4.6112,4.5873,4.5873,4.5544,4.5304,4.5304,4.5035,4.4706,4.4347,4.4047,4.3678,4.3319,4.329,4.329,4.329,4.306,4.303,4.329,4.306,4.306,4.329,4.303,4.2551,4.1961,4.1373,4.1041,4.0926,4.0515,4.0468,4.0704,4.0524,4.0736,4.1232,4.1232,4.1129,4.0935,4.0935,4.1175,4.1602]}]]